GFSSW_925_thetae_000.txt.gz
Theta_e
303 302 302 304 304 304 304 304 304 304 305 306 307 308 317 317 319 317 318 319 321 321 324 334 337 339 349 334 336 338 338 341 342 343 344 347 357 353 352 354 352 351 350 350 353
303 303 302 302 303 304 304 304 304 304 304 305 307 308 316 313 317 320 319 318 320 321 322 333 329 329 328 329 336 338 341 341 338 338 347 347 354 355 354 353 355 353 352 353 354
303 302 302 302 303 303 304 304 304 304 305 305 307 308 315 313 319 315 323 322 320 321 321 323 321 321 322 325 333 338 340 339 339 338 346 346 353 348 351 355 354 354 355 354 354
304 302 302 302 302 302 303 304 304 305 305 306 306 308 312 318 318 319 323 323 321 322 321 322 319 321 325 326 325 337 338 339 338 341 344 347 346 353 350 350 350 350 352 354 354
302 302 302 302 302 302 302 303 304 306 306 306 307 311 316 317 316 322 319 319 321 324 323 318 319 322 328 327 327 328 328 337 340 337 340 343 349 353 349 349 350 350 352 353 352
303 302 302 302 302 302 302 303 304 306 306 307 309 312 318 317 321 318 321 326 325 324 322 319 321 324 327 328 326 326 337 339 339 339 341 348 350 350 351 351 354 352 353 352 352
303 302 302 302 302 302 303 304 304 305 307 310 313 320 322 317 322 321 321 325 325 323 319 321 322 324 325 327 325 337 339 339 340 341 349 346 351 352 350 352 356 355 354 353 353
302 301 302 302 302 302 303 305 306 306 317 321 317 321 317 324 322 322 327 321 320 324 322 322 322 321 325 325 332 337 338 343 341 342 347 344 351 353 349 351 356 357 356 355 354
304 302 301 302 302 302 303 306 307 318 316 317 322 321 323 324 324 328 328 322 319 320 321 320 321 321 322 323 335 334 343 342 344 341 346 347 351 353 348 350 355 356 355 355 354
304 303 302 302 301 302 304 308 314 324 324 323 325 325 321 324 325 326 325 322 319 316 319 320 316 320 318 323 341 340 343 340 346 341 345 347 349 353 349 349 352 352 351 353 352
304 302 302 301 301 302 307 310 310 313 323 321 321 323 322 321 324 325 324 320 317 315 315 315 317 318 322 322 328 334 340 343 342 340 343 346 349 355 350 348 349 349 349 350 349
303 302 302 301 302 304 307 307 311 310 308 311 314 317 319 324 324 323 324 321 320 318 315 318 317 318 321 324 326 334 334 339 336 338 343 347 350 353 352 350 348 348 348 348 347
302 302 303 302 302 312 303 305 310 307 310 313 313 316 316 319 321 323 321 319 318 317 315 315 318 319 325 325 325 326 327 327 338 341 344 348 351 350 351 349 348 347 347 346 347
300 302 304 301 303 304 306 309 306 307 314 317 319 319 321 321 323 323 323 321 316 318 315 315 317 322 324 327 326 326 324 327 335 341 343 342 346 348 348 350 348 347 346 346 346
300 300 304 304 304 306 307 306 307 310 321 320 322 321 319 320 320 322 322 320 322 318 316 317 318 320 326 325 325 327 325 327 334 336 340 348 341 340 347 349 348 346 345 345 344
299 299 304 304 305 303 306 306 310 316 321 320 324 322 322 322 320 320 322 320 320 319 316 318 318 319 320 325 327 324 321 322 324 329 337 339 343 338 349 350 348 346 346 346 345
299 298 303 305 306 305 306 307 314 317 317 320 321 319 320 320 322 321 320 319 321 320 319 319 318 321 323 323 325 320 322 324 328 336 336 333 344 341 338 346 346 346 347 347 346
298 300 303 304 304 306 306 306 317 317 317 317 319 318 320 318 320 321 318 322 318 318 317 317 318 319 321 322 323 322 322 323 327 330 338 335 346 343 338 337 341 342 345 345 347
299 303 305 308 310 307 303 306 312 317 320 321 318 320 320 319 320 321 319 318 320 315 319 316 318 319 321 322 322 322 322 320 321 322 326 330 328 329 331 333 339 341 343 343 346
304 303 304 311 312 307 305 305 308 314 317 314 319 319 320 318 318 319 319 319 319 317 315 316 319 317 320 323 322 322 320 324 319 326 331 327 328 332 331 334 333 339 342 342 343
303 300 307 312 308 304 304 305 308 309 311 311 316 318 318 317 318 318 319 320 320 320 314 315 315 318 319 320 321 322 322 319 319 320 324 326 327 324 328 332 334 337 339 340 340
302 298 309 309 311 304 306 306 309 311 312 313 314 314 314 316 315 317 318 319 319 318 317 314 316 318 318 319 320 321 321 321 325 322 320 322 324 324 327 328 334 335 338 334 338
302 302 306 307 312 311 310 314 315 318 318 319 316 313 314 316 319 316 317 318 318 319 319 316 314 318 318 317 321 322 321 318 317 318 323 326 326 325 327 331 335 335 334 334 338
303 304 305 304 303 307 306 308 313 316 318 318 318 318 317 319 317 318 322 325 326 328 341 329 313 318 321 320 319 323 324 321 320 322 322 324 325 327 332 334 336 337 334 333 336
304 304 307 310 309 309 306 308 313 315 315 317 318 319 319 319 321 319 319 322 328 331 325 314 318 316 321 317 322 323 324 323 323 322 325 326 324 327 331 332 333 337 336 335 333
308 309 306 308 308 306 308 309 313 314 313 314 318 320 320 320 322 324 324 326 329 332 328 315 317 315 321 318 320 322 322 325 324 324 323 324 324 323 328 330 332 334 336 337 336
302 303 307 309 310 309 308 311 312 312 313 313 314 317 323 324 320 322 322 324 330 329 333 326 316 316 321 318 318 321 321 321 324 323 324 325 326 323 329 331 332 331 333 336 335

GFSSW_925_thetae_003.txt.gz
Theta_e
303 303 303 302 303 304 304 304 304 305 305 307 308 309 311 313 317 319 322 321 320 325 329 341 341 349 351 347 345 340 345 345 344 352 351 352 352 353 351 355 352 351 351 347 348
304 303 303 302 303 303 303 303 303 304 306 307 307 308 309 313 318 322 322 321 320 322 331 336 338 341 336 332 338 342 346 345 342 346 350 352 352 355 357 354 353 354 351 350 350
307 303 302 302 303 303 303 303 303 303 305 306 308 308 308 315 323 320 326 321 320 323 325 329 330 329 326 329 335 342 345 342 342 342 348 352 353 353 355 355 352 356 356 352 351
307 305 303 302 302 302 303 303 304 304 304 306 307 308 311 319 323 318 323 319 319 322 323 323 324 325 325 325 331 339 340 341 340 344 348 352 352 353 352 347 348 352 353 353 353
309 303 302 302 302 302 302 302 303 305 305 306 308 310 316 320 321 320 320 321 323 323 322 323 322 323 324 328 329 332 332 337 340 345 347 349 353 352 353 347 349 352 353 354 353
308 305 302 302 302 302 302 303 303 305 306 307 309 314 318 320 319 319 320 325 328 327 323 322 323 324 325 332 332 329 332 335 342 345 346 349 352 350 350 352 353 354 355 354 353
308 306 302 302 302 302 302 303 304 305 306 312 317 319 321 321 320 319 319 323 327 325 323 321 322 327 329 330 328 340 344 344 344 345 348 349 355 353 350 354 355 354 354 354 354
307 305 304 302 302 301 303 304 305 307 313 321 319 322 325 323 325 324 322 324 322 322 322 322 322 324 325 328 338 341 344 346 346 348 349 347 348 352 352 355 355 354 354 354 354
306 303 301 301 301 301 303 304 309 317 318 320 321 322 328 324 325 326 326 321 318 322 322 322 323 324 325 330 341 342 344 347 348 347 351 349 349 351 353 355 356 355 354 355 355
303 301 301 301 301 301 303 309 316 322 322 321 324 327 327 327 324 324 325 319 319 320 321 322 323 323 326 332 336 342 346 346 348 347 351 351 351 355 353 354 355 356 356 356 356
300 299 301 300 301 302 307 310 316 317 321 324 323 327 325 324 321 325 322 322 318 320 322 321 322 322 325 330 335 339 344 345 347 345 348 351 350 354 354 353 354 357 358 357 356
299 298 299 300 302 305 303 306 311 308 310 311 312 315 317 319 320 322 323 325 323 324 318 320 320 323 325 328 329 341 344 346 344 344 346 349 349 351 355 354 353 354 355 356 355
299 298 299 300 302 309 303 305 307 306 310 313 313 315 318 317 319 321 323 324 325 326 321 320 320 321 325 327 328 333 340 344 345 342 346 349 349 352 354 353 352 351 351 351 352
299 298 300 299 303 303 308 307 306 306 317 320 320 321 321 321 323 321 322 325 322 327 322 322 320 321 324 328 330 332 335 340 345 345 349 346 348 350 352 356 354 352 351 350 350
298 297 299 303 304 308 306 305 306 309 321 321 322 321 322 325 321 323 323 324 326 324 322 323 319 321 324 326 329 333 331 335 341 344 343 349 347 343 351 355 356 354 352 350 349
298 298 302 305 305 303 304 306 310 320 321 321 325 323 323 324 324 323 323 323 325 325 320 323 320 321 323 326 329 328 330 332 336 339 340 338 345 339 352 352 351 351 351 350 349
299 298 299 304 307 305 305 309 317 320 319 320 323 322 321 322 324 323 324 324 327 329 328 326 323 321 321 324 329 329 331 334 336 338 337 337 346 342 342 346 347 348 350 349 349
299 299 301 303 305 306 306 310 316 317 318 319 321 320 320 321 323 323 325 324 327 328 328 328 326 324 323 323 327 329 330 335 337 337 335 338 342 340 342 340 343 346 347 347 348
299 301 304 308 311 307 308 307 312 316 321 323 321 321 320 321 321 322 324 325 325 326 327 327 327 322 322 325 327 329 331 331 334 330 334 336 341 336 338 340 340 343 346 349 348
303 303 303 310 312 307 308 307 310 316 320 316 319 321 321 321 320 322 323 324 326 325 328 325 325 322 323 323 326 327 328 330 331 339 337 334 336 334 340 341 343 344 346 348 349
303 303 306 312 307 309 310 308 309 311 316 315 316 319 321 319 319 320 321 323 322 324 326 327 324 321 322 323 324 325 327 329 331 332 336 336 334 337 344 347 343 344 345 347 350
303 301 306 309 314 310 311 309 308 312 312 312 315 317 317 317 317 319 320 323 321 321 322 325 326 326 323 323 323 325 327 330 332 336 331 333 332 333 336 338 341 341 342 344 349
303 304 303 307 312 314 313 313 314 315 316 317 315 317 317 317 318 320 321 321 321 322 327 322 325 327 327 326 324 324 325 328 329 331 339 333 331 335 333 335 337 341 343 344 347
304 306 308 309 307 311 313 313 313 314 317 319 318 320 321 322 322 323 322 324 326 324 332 328 330 330 328 327 325 324 325 327 328 330 331 332 331 334 336 339 340 341 344 344 344
304 307 309 315 313 314 310 310 311 313 315 316 320 321 322 322 322 322 322 322 322 327 332 331 331 331 331 329 326 324 323 326 329 331 332 330 333 335 341 344 344 344 346 343 344
305 308 306 309 310 312 311 311 313 314 314 315 318 318 319 323 323 324 325 325 328 332 334 324 335 325 327 328 326 325 324 325 328 327 330 330 334 333 337 339 341 342 346 345 344
302 302 304 306 309 310 312 312 312 311 313 314 314 314 316 318 318 320 322 324 328 332 338 340 335 337 332 325 324 327 326 326 329 330 330 332 333 336 334 337 341 342 345 347 346

GFSSW_925_thetae_006.txt.gz
Theta_e
307 304 303 302 303 303 303 303 304 305 307 308 308 309 310 311 313 324 327 324 322 320 342 341 342 344 344 343 344 345 347 344 345 347 347 347 348 350 349 353 351 350 349 348 347
311 306 302 303 303 303 302 303 304 305 306 307 308 309 309 310 321 324 324 323 321 321 338 339 338 343 339 333 337 343 347 344 341 344 348 347 347 352 353 352 352 353 348 347 347
311 310 304 302 302 303 303 303 303 304 305 307 307 308 309 313 327 324 324 321 319 323 330 333 330 336 329 328 332 338 345 343 343 342 346 348 348 350 348 352 350 354 352 349 348
307 304 302 302 302 302 302 302 303 304 305 306 307 308 309 323 322 323 322 320 319 334 328 329 327 329 326 328 331 336 337 337 341 343 345 348 348 350 347 346 346 349 350 350 351
304 302 301 302 302 302 302 302 302 303 305 305 306 308 321 325 323 323 320 321 324 333 325 327 325 326 327 329 330 333 333 334 336 341 342 347 349 349 349 347 347 349 351 351 351
308 304 301 301 302 302 302 302 303 303 305 306 310 311 324 322 321 324 330 333 330 327 324 324 325 326 327 329 331 333 333 334 335 340 344 349 350 350 349 346 351 352 353 351 351
309 306 301 301 301 301 302 302 303 304 306 307 318 319 325 323 321 321 323 327 330 327 326 323 324 325 326 329 331 333 336 341 341 343 347 348 353 353 350 350 355 354 353 352 351
302 300 299 300 300 301 302 303 304 308 311 320 320 325 325 324 324 324 325 326 326 329 326 325 323 325 326 331 332 334 337 342 344 346 348 349 348 351 351 352 356 354 354 353 352
301 299 298 299 300 301 302 304 310 318 319 320 325 328 327 326 327 327 327 325 324 326 324 323 324 326 327 331 335 337 340 340 349 347 351 351 347 350 352 352 354 354 353 353 353
306 299 298 298 300 301 303 307 316 321 322 324 327 331 329 326 329 326 329 324 325 327 326 324 325 326 328 331 336 339 339 340 342 350 351 351 348 352 353 352 352 355 353 353 353
301 299 298 298 299 301 306 312 322 326 325 325 324 328 324 325 325 326 327 323 324 326 324 323 324 325 329 332 334 336 339 341 341 348 351 349 348 350 354 353 353 355 355 354 352
300 299 298 299 299 304 307 311 313 311 314 316 317 318 319 321 321 323 325 327 325 326 324 323 323 325 327 330 332 335 337 339 341 347 348 347 349 348 350 355 352 352 355 356 354
300 299 298 300 300 311 308 312 310 309 314 318 318 318 320 319 321 323 325 327 326 325 324 324 323 324 326 328 332 335 337 339 343 347 347 346 349 348 347 352 352 351 351 354 354
301 300 299 298 307 307 312 311 310 309 318 322 322 323 323 323 324 324 323 326 326 326 325 323 324 323 324 327 331 335 334 337 340 345 349 347 349 344 346 352 353 354 352 350 354
302 299 299 301 305 310 310 308 309 312 323 323 324 324 326 327 327 326 323 324 326 326 326 325 323 323 323 325 328 333 334 335 337 343 345 348 349 344 346 348 351 354 353 350 348
303 301 300 306 308 308 308 309 313 322 323 322 325 325 326 326 326 325 324 325 325 326 327 326 324 323 324 325 327 331 334 336 337 338 345 345 346 342 342 346 343 348 351 352 348
303 302 301 305 308 308 309 310 318 320 321 322 323 325 325 324 325 326 325 325 326 329 328 325 324 323 323 325 326 330 335 340 341 341 342 342 345 342 338 338 340 338 345 351 349
303 301 306 307 307 307 308 311 317 319 320 322 323 324 325 324 324 325 326 324 325 327 328 328 325 324 323 324 328 329 333 337 342 339 339 340 342 340 338 337 337 337 341 348 350
303 305 305 309 309 309 312 311 315 317 319 319 321 323 324 324 322 325 326 326 325 327 329 329 328 325 324 324 326 330 334 334 336 336 337 335 338 337 337 339 339 339 343 346 350
304 305 306 308 312 312 312 311 314 314 317 321 322 322 323 323 323 324 325 326 326 326 328 329 330 327 325 325 326 328 331 334 336 344 341 337 338 339 339 336 336 338 343 346 349
305 306 309 314 314 316 314 312 313 313 314 318 319 320 321 322 323 324 325 325 326 326 328 329 329 327 326 325 325 327 329 333 335 335 338 340 338 336 337 337 336 335 343 344 348
305 306 309 313 316 315 315 314 312 313 313 313 316 317 319 321 323 323 324 324 325 327 329 330 330 330 325 325 325 327 329 332 336 341 337 337 335 334 335 335 335 335 335 336 345
307 306 305 308 311 311 314 314 314 314 313 313 313 315 317 319 321 321 322 321 322 325 328 330 331 333 331 325 325 324 326 329 332 335 343 338 336 334 334 334 336 340 342 342 347
306 306 308 313 310 312 314 316 315 314 314 315 316 316 315 318 319 320 322 321 323 323 337 332 329 331 331 331 327 326 324 326 328 335 335 335 336 334 333 334 334 336 341 343 349
306 307 310 308 314 316 317 316 315 315 315 316 317 319 318 319 320 321 322 324 326 329 331 335 336 332 330 328 328 328 326 325 326 328 333 333 334 334 335 334 334 334 336 343 350
306 308 309 308 308 309 309 313 315 314 316 318 319 317 318 320 321 321 321 323 322 327 328 332 338 335 334 331 329 329 328 326 325 326 327 329 331 332 333 333 334 334 335 343 350
304 304 304 305 304 307 308 310 311 314 314 315 317 318 319 321 322 323 324 326 327 327 330 333 336 340 338 333 332 333 331 329 327 326 327 328 329 330 330 333 335 336 340 343 349

GFSSW_925_thetae_009.txt.gz
Theta_e
306 304 303 303 303 303 303 303 304 305 306 307 307 308 309 310 312 325 331 326 326 323 325 340 342 337 340 342 342 341 347 347 345 349 343 341 342 343 346 348 348 349 352 351 351
309 304 303 302 303 303 303 303 303 303 304 306 307 308 309 309 321 325 323 324 323 322 333 336 337 337 340 340 340 342 352 346 341 348 344 343 342 344 346 348 349 349 351 351 351
311 308 303 302 302 303 303 303 303 303 304 305 307 308 308 310 327 326 322 321 322 322 328 332 333 337 338 337 336 339 350 345 342 342 345 343 343 343 345 347 348 350 352 351 351
310 309 305 302 302 302 302 302 303 303 304 304 306 307 308 322 326 328 320 321 321 329 331 330 333 334 337 334 334 337 340 340 341 341 344 344 344 343 341 344 345 348 349 350 352
309 303 300 300 301 301 301 302 302 304 305 305 306 307 319 326 325 328 323 321 329 329 333 330 331 332 334 333 334 335 337 337 337 339 341 345 345 343 341 341 344 348 348 350 351
305 300 300 299 300 300 301 301 302 304 305 306 306 308 324 325 323 325 325 330 328 330 328 328 330 330 331 333 334 335 336 336 336 337 340 345 344 346 343 343 346 349 349 349 350
302 300 299 299 299 300 301 302 303 304 306 307 309 319 324 325 323 323 327 328 328 327 329 326 327 328 329 331 333 334 335 337 338 337 340 342 345 344 344 346 347 350 350 348 349
301 300 299 299 299 300 301 302 304 306 311 314 317 323 325 325 326 324 323 324 326 328 327 326 324 327 328 331 333 334 335 339 340 339 340 342 347 346 346 346 347 349 350 349 349
301 300 299 300 300 300 300 303 306 314 319 319 327 329 326 326 327 325 325 327 327 326 328 326 327 326 328 329 332 336 337 339 341 341 344 345 349 347 348 345 348 348 349 350 350
302 300 300 300 300 300 302 309 313 321 324 326 328 332 328 328 328 328 328 326 326 328 327 327 326 327 328 331 334 338 338 340 347 341 346 345 349 349 349 348 345 347 348 349 350
302 301 300 300 300 301 306 316 324 330 327 329 330 328 328 326 329 327 328 326 326 328 327 326 325 326 328 332 334 337 339 339 340 340 344 346 346 348 350 350 347 347 346 348 349
303 302 300 299 301 305 310 316 317 313 315 319 321 323 323 324 325 327 328 326 325 327 327 326 325 326 329 332 333 335 338 340 340 341 343 345 347 348 352 350 350 348 347 347 348
304 304 302 301 302 313 311 314 313 313 316 319 321 322 323 323 322 324 326 328 326 326 327 326 325 326 328 332 334 335 337 338 340 347 345 346 347 346 347 351 350 349 349 347 347
304 304 303 300 308 309 314 314 313 313 319 322 322 322 323 323 323 323 325 326 328 327 326 326 326 325 326 330 332 335 335 337 338 344 349 342 348 348 345 347 352 351 350 348 348
304 304 303 302 306 312 312 311 311 315 324 326 325 325 326 327 329 327 326 326 328 328 327 326 326 326 326 328 331 333 334 336 338 343 349 342 344 347 344 346 348 351 351 349 347
303 303 303 306 308 311 310 310 313 320 325 326 326 327 328 328 327 328 326 326 327 328 327 327 327 326 326 327 329 331 334 336 336 339 342 344 345 346 346 345 346 346 350 352 349
303 303 303 305 309 311 311 313 317 321 325 325 325 326 326 326 327 328 326 326 327 327 329 328 327 327 326 326 328 330 333 337 340 339 339 340 345 350 344 343 343 342 344 348 351
303 303 307 309 310 309 309 313 317 322 323 325 325 327 326 327 327 328 328 327 326 327 328 329 329 328 326 326 327 329 332 335 342 341 340 338 342 342 343 340 340 340 338 341 349
303 307 308 310 310 310 313 314 317 320 323 324 325 325 327 327 326 326 328 327 327 327 329 330 330 328 327 326 326 328 332 333 336 338 339 339 339 340 341 341 339 339 338 338 345
305 308 310 310 312 312 314 315 317 318 321 321 323 325 327 327 327 326 328 328 328 327 328 329 331 330 327 326 325 326 329 333 338 344 342 339 339 340 341 340 338 339 338 338 341
308 310 311 311 314 317 315 315 315 316 318 319 321 324 324 325 326 327 326 326 327 328 327 327 330 331 330 328 326 325 327 331 334 336 340 340 340 338 342 340 339 338 337 338 340
308 312 310 313 318 317 318 317 315 317 318 317 317 321 324 325 325 326 326 327 327 327 328 328 329 333 331 330 328 327 327 328 336 341 336 341 338 337 337 338 337 338 338 337 339
309 311 309 308 311 313 315 316 317 318 318 318 317 317 320 322 324 325 325 326 326 327 329 329 330 332 334 331 329 328 327 328 328 334 344 341 338 337 338 337 337 337 337 339 339
309 311 311 311 311 311 312 314 315 317 317 317 318 318 317 318 321 322 324 325 325 325 334 330 331 332 334 334 330 328 327 327 328 331 333 335 337 338 337 337 336 336 336 339 340
307 309 309 313 312 312 314 316 317 320 319 318 318 317 317 318 319 320 322 324 324 327 327 328 333 332 332 332 332 330 326 326 326 328 332 332 335 336 340 337 336 336 336 336 337
309 309 309 310 311 311 311 311 312 314 316 317 318 318 318 318 319 319 321 323 326 324 327 328 332 334 333 330 330 330 330 328 327 326 328 329 331 333 335 338 337 335 336 336 336
305 306 309 307 308 309 308 310 311 310 313 316 316 319 322 319 320 322 324 323 324 328 329 331 333 338 339 334 334 334 330 330 330 329 328 328 329 330 333 337 338 337 336 337 338

GFSSW_925_thetae_012.txt.gz
Theta_e
311 308 304 303 303 303 303 303 303 304 305 306 306 307 308 308 310 323 330 326 327 325 325 334 343 340 340 338 341 343 347 351 346 343 340 341 340 345 347 349 352 351 351 350 350
311 308 302 301 302 303 303 302 303 304 305 306 307 307 308 308 317 323 323 324 325 325 326 328 334 339 337 339 341 346 351 348 347 344 342 341 341 341 344 347 349 353 350 349 350
306 302 301 300 301 301 301 302 302 303 304 306 307 307 307 308 325 326 324 322 322 323 324 326 329 335 337 339 340 344 349 344 344 344 343 341 341 340 343 345 347 354 352 350 351
303 301 300 300 300 300 301 301 302 303 304 305 306 307 307 318 324 327 322 321 321 324 326 326 329 334 336 339 338 338 342 343 343 344 344 341 342 341 342 344 345 351 352 351 351
305 302 301 300 300 300 301 301 301 302 304 305 306 306 315 323 326 325 321 321 323 327 327 330 330 333 335 337 336 335 340 339 338 339 341 342 343 342 341 343 345 348 351 352 351
302 301 300 300 300 300 301 301 302 303 304 305 306 308 323 321 323 327 326 330 326 327 326 330 330 332 334 335 335 335 335 336 336 336 339 345 344 342 340 341 344 347 349 351 351
302 302 300 300 300 300 301 301 302 304 305 306 310 317 321 320 324 325 325 328 326 328 327 328 329 331 332 333 334 334 335 336 336 336 339 340 345 344 342 341 345 346 347 349 350
303 302 300 300 300 300 300 302 304 305 306 314 316 323 322 320 323 324 325 326 327 328 327 328 327 328 330 331 331 332 333 336 337 338 338 340 347 341 344 342 344 346 347 348 348
304 303 301 300 300 301 301 304 305 309 316 320 325 328 328 325 326 326 326 325 325 326 328 327 327 326 327 329 330 332 335 335 337 339 339 340 346 346 345 344 344 346 347 347 349
304 304 303 301 301 301 302 307 313 314 325 325 326 330 331 329 328 326 326 325 326 328 327 328 327 327 326 329 331 333 334 337 338 341 340 349 351 346 346 345 345 344 346 348 347
303 304 304 302 301 301 305 315 324 326 326 330 330 326 327 329 326 329 328 328 328 327 327 329 327 328 328 328 331 333 336 337 338 342 341 351 350 346 344 348 344 346 346 347 348
303 303 304 302 302 303 308 319 318 316 316 318 320 326 328 329 329 330 328 329 327 326 328 327 327 326 327 330 331 333 335 338 339 343 344 347 353 348 350 351 345 345 345 345 345
303 303 303 302 303 312 314 313 316 315 316 318 319 319 322 328 328 326 328 329 326 326 328 328 327 326 326 329 331 333 335 337 339 342 341 341 344 353 350 347 347 345 345 344 346
302 302 303 302 311 309 313 315 313 314 317 321 323 322 322 323 323 324 325 328 329 326 325 328 328 326 325 327 331 333 334 335 336 342 345 343 347 348 348 351 348 347 347 346 346
302 303 303 301 306 311 314 313 313 315 322 327 325 326 324 323 325 324 324 325 326 328 328 326 327 326 325 326 329 333 334 335 336 341 345 349 348 351 350 352 352 348 348 348 348
302 303 303 306 308 311 312 312 314 318 323 326 327 326 324 323 325 329 325 324 325 325 328 329 328 327 327 326 327 331 333 334 335 337 342 346 346 347 350 347 346 350 349 349 349
302 303 304 306 308 310 311 314 316 320 325 327 327 328 328 326 325 328 326 325 327 327 329 329 328 328 327 327 327 328 331 337 338 340 340 341 348 350 348 347 345 348 350 351 350
303 304 308 309 310 312 311 314 318 322 322 326 327 327 327 329 327 328 329 328 327 327 328 329 329 328 328 326 327 327 329 336 340 341 340 339 342 345 348 345 345 347 346 349 351
304 308 309 310 311 312 314 313 319 321 324 325 326 326 327 327 328 327 328 329 327 327 329 329 329 330 328 328 326 327 328 330 333 335 338 339 338 338 342 347 344 343 342 345 351
305 308 312 313 311 313 314 316 317 318 321 323 324 325 327 328 327 328 328 329 329 327 327 328 330 330 330 328 328 327 328 328 331 339 342 339 343 344 343 349 345 345 343 341 340
307 312 311 312 313 316 318 316 317 317 318 318 319 321 324 327 328 328 328 328 329 329 328 327 330 330 331 330 328 326 327 327 329 333 339 343 342 343 348 351 349 346 343 341 341
307 311 312 313 316 317 319 319 317 318 319 319 320 319 320 321 326 327 329 328 328 329 329 328 328 332 330 331 329 328 328 327 329 337 334 337 340 338 345 342 345 342 342 341 341
308 309 308 309 313 313 313 314 317 319 320 321 320 320 320 320 324 324 327 328 329 328 328 330 330 333 329 331 332 329 327 327 327 329 335 338 338 338 340 340 346 343 342 344 344
307 309 309 311 311 312 312 313 313 314 316 318 320 321 322 322 322 323 323 325 327 328 336 331 329 334 332 333 332 333 330 329 328 328 331 332 338 338 343 344 342 346 342 343 347
307 309 308 309 311 312 313 316 316 317 315 317 319 320 321 323 321 320 321 322 325 329 330 328 333 332 330 329 331 332 330 330 330 331 332 332 333 338 340 344 341 343 344 343 347
306 308 309 309 309 309 308 311 311 313 315 314 316 319 320 322 322 322 321 324 325 327 327 327 333 331 332 331 331 332 332 330 329 330 331 331 331 333 335 338 341 341 340 344 344
304 305 308 309 308 308 308 308 310 311 312 314 314 317 319 318 318 316 318 320 324 327 330 331 329 335 335 331 332 334 333 333 331 328 329 330 332 333 334 337 342 346 343 345 344

GFSSW_925_thetae_015.txt.gz
Theta_e
309 302 301 301 301 301 301 302 302 303 304 304 305 307 307 307 309 316 325 321 323 322 324 327 342 340 342 343 348 346 350 358 351 347 340 340 352 351 351 354 352 350 350 350 349
303 302 301 301 300 300 301 301 301 302 303 304 304 306 307 307 313 319 317 318 322 326 329 327 325 339 338 339 338 343 346 350 347 344 339 341 351 351 355 354 353 352 350 350 350
302 301 301 301 300 301 301 301 301 301 302 303 304 306 306 308 323 321 324 325 321 322 325 325 324 325 330 335 335 341 341 344 344 343 342 339 339 342 351 356 353 353 354 352 351
302 301 300 301 300 300 301 301 301 301 302 303 304 305 306 317 319 325 322 323 321 322 325 325 322 323 326 332 334 343 341 341 344 343 341 339 338 343 343 349 351 350 351 352 351
303 302 300 300 300 300 301 301 301 302 303 304 304 305 310 322 323 319 322 321 321 322 327 325 323 324 327 332 333 336 339 341 344 342 340 339 340 342 343 350 350 349 349 352 351
304 303 302 301 300 300 301 301 301 302 303 303 305 310 321 318 316 319 322 321 323 328 325 325 325 326 329 332 332 333 334 338 337 342 341 341 342 343 346 351 351 351 349 351 352
304 303 303 302 301 301 301 302 303 303 303 305 310 318 321 317 319 322 324 327 328 326 324 325 327 327 328 330 331 331 331 332 333 334 342 344 345 345 344 347 352 352 351 350 348
304 303 302 302 301 301 301 302 303 304 305 309 318 321 322 316 318 319 321 322 327 326 327 327 326 326 326 327 330 330 328 329 331 333 334 341 349 345 340 347 350 351 352 351 349
304 304 303 303 302 302 302 303 305 310 310 318 322 325 328 325 323 321 322 323 326 327 327 327 326 324 325 325 326 326 327 329 330 333 337 341 344 342 339 345 346 349 349 350 349
304 302 302 302 303 303 303 306 314 315 322 324 325 328 329 327 327 325 323 325 324 323 324 326 324 323 323 322 326 326 328 328 331 335 337 341 342 343 341 342 345 346 346 347 348
304 303 302 302 303 304 304 309 317 320 324 330 328 325 322 324 327 327 326 325 323 322 323 324 324 325 323 322 324 327 328 330 331 337 347 347 346 345 338 342 343 345 345 346 346
304 303 302 302 304 306 311 314 316 313 314 315 316 319 325 328 329 327 327 324 324 325 325 323 325 325 326 325 324 326 328 329 331 338 345 347 347 344 339 337 341 344 345 345 346
304 303 302 303 305 313 307 310 314 314 312 314 315 316 316 319 325 328 326 326 326 325 325 324 326 327 326 326 327 326 327 329 331 339 343 347 350 345 341 343 342 343 343 344 345
304 303 303 303 310 306 310 313 313 313 312 316 318 318 318 317 320 323 328 327 327 326 325 324 326 326 325 325 324 327 328 330 331 333 345 346 353 351 351 353 348 347 342 343 344
304 303 303 303 305 309 312 311 311 313 319 324 322 321 318 317 321 324 328 324 327 328 323 323 326 327 326 324 323 325 329 330 331 332 340 341 341 349 350 351 346 346 342 341 342
304 303 303 305 306 307 309 310 312 315 320 323 324 322 318 318 319 322 325 323 323 327 326 326 325 324 325 326 324 324 326 329 330 331 335 339 342 343 352 350 347 346 344 342 341
304 303 303 306 307 308 309 312 314 316 322 326 324 324 321 320 319 320 321 321 320 321 323 324 326 326 325 324 323 323 321 327 330 333 333 335 341 344 342 343 346 347 345 346 344
304 303 305 308 309 310 311 312 315 321 319 322 322 324 325 324 321 321 323 321 321 320 321 322 323 326 327 324 323 322 321 325 330 333 333 332 337 342 341 343 344 345 345 345 346
303 305 306 307 310 311 312 315 317 318 320 320 318 323 325 326 326 323 323 322 321 321 323 323 324 328 327 327 324 323 322 322 323 328 330 332 331 332 342 341 343 343 346 346 342
304 306 309 310 313 312 313 315 316 316 316 316 317 319 319 319 322 326 324 325 325 324 324 324 327 327 328 326 325 323 324 322 323 325 330 331 333 337 342 343 343 344 342 343 342
306 308 308 309 311 313 314 314 315 315 316 317 318 318 319 319 319 319 323 327 326 327 325 324 324 325 327 326 325 325 322 321 321 324 327 332 332 332 337 344 344 342 342 342 343
306 308 307 307 308 314 314 315 314 316 317 318 319 319 319 319 319 320 320 320 326 327 327 324 323 324 325 326 326 325 323 321 323 324 326 325 328 330 331 342 343 342 340 339 337
305 306 306 307 309 310 312 313 314 314 313 313 316 318 320 320 321 321 321 322 321 322 327 326 324 324 326 324 325 326 325 323 322 321 323 328 329 327 328 335 338 341 342 339 338
306 307 307 308 309 309 310 312 313 313 314 314 315 316 318 320 321 322 322 323 322 320 336 332 325 325 326 326 326 330 327 326 323 322 323 323 323 324 330 336 334 337 339 338 342
307 307 306 308 310 308 309 312 311 311 311 311 313 315 316 318 322 322 322 319 320 324 324 323 327 326 326 327 327 326 328 327 325 323 324 323 323 323 327 339 337 336 338 336 338
306 306 305 305 307 307 308 308 309 309 309 311 313 316 315 318 320 320 318 319 318 318 317 319 328 330 329 329 326 327 328 330 326 326 326 325 326 326 328 333 342 339 337 333 334
304 304 306 306 306 306 308 307 308 309 310 311 311 313 313 315 315 314 314 314 316 318 318 319 324 330 328 330 330 330 327 328 330 329 328 327 326 325 326 327 332 338 337 334 335

GFSSW_925_thetae_018.txt.gz
Theta_e
303 301 301 301 301 301 301 301 301 301 302 302 303 305 306 306 308 312 320 315 317 320 322 336 348 346 351 355 349 349 348 352 348 349 355 352 354 352 350 352 352 351 350 349 348
304 302 301 301 301 301 301 301 301 301 301 302 303 304 305 306 312 318 318 317 316 323 326 341 344 340 343 347 350 347 345 346 346 346 348 352 353 354 353 353 353 352 349 348 348
306 302 301 301 301 301 301 301 301 301 301 302 303 304 305 308 320 318 323 325 318 319 328 327 326 333 339 337 336 344 345 343 342 345 346 352 354 352 354 355 353 354 351 349 349
305 303 302 302 301 301 301 301 301 301 301 302 302 304 305 316 313 323 322 322 319 319 323 326 323 321 322 323 326 336 339 340 343 343 342 351 353 354 353 353 350 351 349 349 348
305 304 304 303 302 302 302 301 302 301 302 302 302 305 312 320 319 317 320 321 323 322 329 325 322 320 322 323 327 333 336 341 343 341 338 340 349 355 353 350 349 350 350 349 348
305 304 304 305 304 304 303 303 302 303 303 303 305 312 317 310 314 316 317 318 321 325 326 323 322 321 322 325 327 330 331 332 339 342 340 338 342 345 350 349 353 352 351 350 349
305 304 303 304 305 304 304 304 304 304 304 305 309 317 320 311 316 319 325 321 321 324 324 324 323 324 324 326 327 329 329 329 330 340 341 342 345 353 351 350 354 354 352 351 349
305 304 303 303 303 304 304 305 306 306 308 309 314 320 318 313 316 315 317 320 324 325 326 326 325 322 324 324 325 326 326 327 328 331 341 339 346 351 351 351 352 354 353 351 349
304 304 304 303 302 303 304 306 308 313 312 314 320 321 321 322 323 321 317 318 320 323 324 326 322 321 323 323 321 322 325 326 326 333 343 341 343 342 351 351 352 351 353 353 351
304 304 304 303 303 303 304 309 316 321 323 322 324 322 319 322 328 324 323 318 321 323 323 324 322 322 319 319 323 324 325 324 326 329 341 341 341 342 353 352 353 352 350 350 350
304 304 304 304 304 303 308 313 310 311 322 325 324 322 321 323 325 324 323 320 321 321 321 321 321 325 322 320 321 323 324 325 326 330 340 342 341 342 348 352 353 352 351 350 349
305 305 304 303 304 307 309 310 314 312 309 312 314 319 321 321 325 327 325 321 321 321 319 320 322 321 323 322 321 322 323 324 325 327 340 342 342 341 344 347 350 350 350 350 349
305 305 304 304 304 309 306 308 310 310 307 310 313 314 314 315 318 321 323 321 321 320 321 320 322 323 324 324 323 321 321 323 324 326 343 344 346 344 339 338 343 346 346 347 348
305 304 304 303 305 305 308 310 309 310 309 312 313 313 314 314 315 319 324 323 324 322 322 322 323 323 324 325 323 321 323 323 325 327 329 341 346 349 345 345 343 344 343 345 345
305 304 304 303 304 306 306 308 309 309 319 321 318 316 313 315 317 318 320 323 325 324 322 322 323 323 325 325 324 323 322 325 326 326 327 333 342 344 344 347 345 343 342 343 343
304 304 303 304 304 306 308 309 310 311 317 319 320 316 314 315 317 320 321 323 323 325 324 322 322 323 324 325 325 324 321 322 325 326 328 329 343 340 350 345 345 344 344 342 343
303 303 303 304 305 306 309 308 310 313 317 322 319 316 315 315 316 317 324 325 326 320 323 326 326 323 322 322 322 320 317 319 322 324 329 326 336 340 342 344 344 344 341 342 342
303 303 303 304 305 306 310 307 312 316 316 317 316 317 319 316 316 317 317 326 324 317 317 322 325 322 324 324 321 318 318 320 322 325 326 326 333 335 338 344 344 342 340 341 340
303 304 305 305 307 306 306 312 311 313 315 315 315 317 317 318 316 316 316 318 321 321 319 317 320 321 322 323 324 322 317 318 318 322 324 327 328 328 333 342 344 343 342 342 340
304 305 305 307 307 308 307 312 311 313 314 315 316 315 318 317 317 317 316 318 319 320 319 318 320 320 322 322 322 320 319 320 314 320 322 323 328 330 330 335 339 343 344 343 342
305 302 305 306 304 306 311 310 312 312 313 315 315 316 317 318 318 318 318 317 319 319 319 319 318 321 323 321 324 323 321 318 317 316 321 322 324 324 327 330 338 343 344 344 343
303 303 304 304 302 303 310 310 311 312 312 313 314 316 316 315 317 319 319 318 320 319 319 318 317 319 322 321 323 324 322 317 320 319 319 322 324 328 326 327 337 342 344 344 343
301 300 304 305 304 304 305 310 310 311 311 312 312 312 314 315 318 319 320 320 319 319 319 322 319 322 320 319 320 322 322 321 313 315 320 324 323 322 322 330 338 338 338 340 342
301 304 299 300 303 304 306 309 309 309 310 310 310 313 315 315 315 319 319 320 317 317 323 317 323 320 325 324 321 321 323 321 321 321 321 321 321 321 321 327 329 332 338 336 338
300 301 302 303 304 304 305 307 309 309 308 308 310 311 315 316 317 317 319 318 317 318 316 315 316 318 319 323 323 324 324 324 322 323 322 323 318 318 318 319 323 326 335 336 335
304 304 303 303 302 302 305 307 308 307 309 310 312 311 312 313 314 316 317 313 315 315 314 313 317 318 324 324 324 325 325 325 325 324 322 320 320 318 319 319 325 331 332 334 334
303 304 304 305 303 302 303 304 305 306 308 310 309 310 311 309 310 312 312 311 311 313 314 314 315 317 322 323 324 325 326 325 324 324 323 321 320 320 322 323 324 326 332 334 330

GFSSW_925_thetae_021.txt.gz
Theta_e
311 308 305 304 302 302 301 301 301 301 301 301 302 304 305 305 306 310 314 315 315 323 343 353 353 354 354 357 351 349 347 350 346 348 356 352 355 352 349 351 349 350 348 346 347
310 310 308 306 304 303 302 301 301 301 301 301 302 303 304 305 312 317 316 315 315 320 351 354 351 352 353 355 355 352 346 347 342 344 354 353 354 353 353 353 353 351 348 348 348
310 310 308 308 308 306 304 303 302 302 302 302 302 303 304 308 317 312 320 323 315 320 329 340 343 346 345 339 355 352 351 343 343 344 351 353 354 350 354 355 352 352 351 348 347
308 307 307 307 307 307 307 305 303 303 303 303 303 303 307 314 312 320 321 322 317 323 329 328 323 329 332 342 339 338 346 346 342 345 350 353 351 352 352 350 349 348 348 347 347
305 304 305 304 304 304 304 303 303 304 304 304 306 304 313 318 313 317 320 321 317 326 327 323 322 321 320 320 325 339 336 334 340 339 349 350 354 353 351 350 348 348 347 348 347
305 304 304 304 304 304 303 303 304 305 305 306 309 308 314 306 314 315 314 321 321 328 326 323 322 319 320 321 323 327 328 329 332 336 343 353 354 352 351 349 350 349 349 348 348
305 304 304 304 304 304 304 304 305 307 307 310 312 314 319 309 315 319 322 315 322 323 322 325 322 320 319 321 322 326 328 326 327 330 342 350 352 356 351 350 352 351 349 349 348
305 305 305 304 304 304 304 305 307 308 312 313 314 318 312 311 313 313 316 316 316 323 322 322 323 319 322 323 323 325 324 327 327 328 339 342 348 353 349 352 353 352 351 349 348
305 305 305 304 304 304 304 306 310 316 311 314 317 318 315 318 323 315 314 316 317 322 324 325 320 320 322 323 321 320 325 325 325 325 339 339 341 352 350 353 353 352 352 351 349
305 305 305 304 304 304 307 312 315 322 321 321 323 320 317 318 327 325 321 316 317 316 320 321 320 319 317 318 324 324 324 323 325 331 340 341 341 353 351 354 355 353 353 352 350
305 305 305 304 304 306 306 311 308 310 317 320 322 320 318 320 323 323 318 316 318 320 320 320 322 321 321 319 321 323 323 323 324 330 340 341 340 353 352 352 355 354 353 352 350
305 305 304 304 304 308 305 306 308 308 308 309 310 312 316 318 319 319 320 317 318 318 319 319 322 321 322 320 321 321 322 322 322 325 330 333 339 347 353 352 352 353 354 353 351
304 304 303 304 304 306 305 308 307 308 305 308 310 311 312 314 317 318 319 318 320 319 318 321 319 320 322 322 321 320 320 322 322 324 333 340 342 342 353 352 351 350 349 350 350
303 303 303 303 304 303 306 306 308 308 307 312 311 311 312 315 317 317 321 320 320 321 320 319 319 321 322 323 322 321 320 322 322 323 324 338 346 343 340 355 353 351 351 350 348
303 302 303 302 304 304 304 306 309 306 320 321 314 313 311 313 316 316 321 321 322 320 319 320 321 321 322 323 321 324 322 322 323 322 324 328 337 337 340 345 347 348 348 349 348
302 302 302 304 303 304 305 304 307 310 316 318 316 314 313 313 314 316 318 321 322 322 321 321 321 321 322 322 322 323 322 319 320 320 323 324 329 329 345 342 342 342 345 346 346
302 302 302 304 304 304 304 305 308 311 315 319 315 314 315 314 315 317 318 320 323 324 324 322 323 320 321 322 322 321 317 320 319 321 324 320 327 328 335 342 341 341 342 343 343
302 302 303 303 305 304 306 306 310 314 312 314 315 314 316 315 315 315 320 322 322 319 321 325 325 323 320 321 321 319 319 317 319 320 322 321 326 327 331 337 341 341 340 341 342
302 303 304 305 305 305 304 308 309 311 314 315 315 315 316 316 316 316 314 323 323 317 320 319 322 321 324 322 321 319 320 318 316 319 319 322 325 325 328 332 336 340 341 341 341
302 303 304 305 303 306 306 309 309 312 312 313 315 315 316 316 316 316 316 316 318 321 317 316 318 317 321 322 321 322 317 320 311 320 322 319 323 324 327 329 334 340 339 339 340
303 300 303 303 304 303 308 308 310 310 311 312 313 313 315 316 317 317 318 318 320 320 318 318 316 319 318 318 322 319 320 316 314 314 321 320 321 320 326 327 331 336 341 340 339
300 300 303 303 301 299 304 305 309 310 310 311 312 313 314 314 316 315 317 318 318 318 320 317 311 319 318 319 320 320 321 316 319 318 314 319 321 323 323 324 325 330 335 339 340
298 297 303 303 304 302 303 307 309 309 309 310 311 311 313 314 315 318 318 318 317 317 322 320 318 316 316 317 319 319 319 320 316 315 322 319 320 318 321 322 328 330 333 336 338
299 302 298 297 300 303 304 305 309 308 309 308 309 312 313 314 313 315 315 318 314 314 321 313 314 318 319 318 319 319 321 321 320 320 323 322 320 321 321 320 323 333 334 336 339
300 300 299 301 302 302 303 304 308 307 308 308 309 312 314 314 315 315 315 316 313 316 313 313 316 315 317 318 319 319 319 322 320 322 322 323 317 318 318 318 319 321 328 333 338
303 304 303 302 302 304 302 305 308 305 305 308 312 310 308 311 311 310 312 313 313 313 311 310 317 314 318 319 321 322 320 321 322 322 320 320 318 316 318 317 318 318 320 331 333
303 303 303 304 305 304 303 303 304 304 306 307 307 307 307 309 309 308 308 310 310 312 311 312 315 316 319 318 319 322 322 322 322 321 321 322 320 317 318 317 317 318 321 326 331

GFSSW_925_thetae_024.txt.gz
Theta_e
311 311 311 311 310 310 310 309 307 304 302 302 302 302 302 304 306 310 312 312 314 319 349 351 351 350 353 356 352 348 348 349 346 351 349 351 354 350 348 349 348 348 347 345 347
310 310 310 310 310 309 308 309 309 306 303 303 303 303 302 306 312 315 315 313 313 332 353 351 354 353 356 355 356 355 349 347 341 343 353 353 353 352 352 350 352 349 346 346 346
310 310 308 309 310 309 307 305 304 306 304 304 304 303 303 311 315 310 318 321 316 331 343 351 352 354 354 348 357 355 358 344 342 342 349 353 353 350 352 353 351 350 348 347 346
308 306 306 307 307 307 306 305 304 304 305 306 305 304 307 314 312 323 320 326 321 343 349 348 349 349 346 351 350 346 344 350 342 346 350 353 350 351 350 350 348 347 346 347 347
306 305 305 305 305 307 308 307 306 305 306 306 310 309 314 316 310 318 317 323 332 340 340 335 347 335 325 330 339 344 342 336 336 337 348 349 352 353 352 349 346 346 347 347 347
305 305 305 305 305 305 305 306 306 306 305 307 312 313 312 304 311 312 314 317 335 335 327 323 325 321 321 320 326 324 331 330 327 329 336 350 352 351 350 348 347 348 348 347 346
305 306 305 305 305 304 304 305 306 308 309 310 313 313 317 305 312 314 316 318 322 329 323 323 321 321 319 321 319 321 324 325 326 327 336 347 354 355 350 348 349 349 348 347 346
305 305 305 304 304 304 305 306 308 311 314 315 315 315 308 309 310 311 317 322 321 323 322 324 323 319 320 320 321 323 323 325 326 326 334 349 355 353 349 350 351 349 348 348 347
305 304 304 303 303 303 307 307 316 316 312 315 315 315 311 316 319 313 313 313 322 323 323 322 320 319 320 320 320 319 324 324 325 324 335 348 346 348 349 351 352 351 349 348 348
303 303 303 303 303 304 307 314 322 321 318 319 319 317 316 317 322 323 315 313 314 316 319 321 318 318 315 317 319 323 322 323 325 330 337 347 338 345 350 352 352 352 350 349 348
303 303 302 302 302 305 306 309 305 308 307 321 321 318 318 318 320 319 317 314 316 316 318 318 320 321 318 317 320 321 322 324 324 327 339 338 340 352 351 352 353 352 351 350 349
302 302 302 302 302 306 308 306 305 304 307 307 307 310 316 315 317 317 316 314 315 317 317 317 322 320 320 318 320 321 322 322 321 323 325 329 338 349 351 353 352 353 352 351 349
302 302 302 302 302 303 305 305 304 306 304 307 308 310 310 311 314 315 314 315 316 317 319 322 319 321 322 320 320 319 320 321 323 322 326 336 337 338 351 351 352 352 351 351 350
303 302 302 302 302 302 302 304 303 306 306 311 310 310 312 311 313 316 316 317 318 318 316 317 318 322 320 322 320 319 318 321 321 320 322 332 334 340 346 354 352 352 352 351 350
302 302 302 302 303 303 303 304 304 303 319 320 311 312 310 313 314 315 318 320 319 318 318 319 318 319 320 321 320 323 320 320 320 319 320 324 332 329 342 356 353 351 349 351 350
302 302 302 303 303 304 304 304 305 313 318 317 313 313 312 312 313 314 318 319 318 319 320 319 318 320 319 320 320 320 321 317 316 317 321 321 325 323 341 348 353 351 350 349 348
302 302 303 303 303 305 304 302 307 312 313 317 315 313 313 313 314 314 316 320 321 321 320 320 321 320 319 320 319 320 318 320 320 320 324 318 323 326 328 339 342 349 349 348 348
302 302 302 304 303 305 305 304 310 312 311 313 314 313 315 314 315 316 315 320 320 320 320 321 322 321 319 320 319 318 316 318 321 320 322 318 322 323 323 334 338 338 340 343 345
302 302 303 305 303 304 302 306 308 309 312 312 313 315 316 315 315 315 314 318 322 317 322 321 323 320 320 319 321 318 320 316 315 316 317 318 319 323 325 324 334 337 337 338 340
303 301 302 303 303 304 305 308 308 309 310 310 314 314 315 315 315 314 315 318 320 319 316 318 322 318 322 321 319 317 315 320 312 322 321 319 319 324 325 328 329 335 338 338 338
302 298 302 303 303 301 303 305 307 308 309 310 310 311 313 314 313 313 316 319 318 319 317 316 314 318 318 321 324 317 317 314 316 314 319 318 320 317 323 324 325 330 336 337 338
298 299 302 303 299 297 300 303 305 309 307 309 310 312 314 314 315 314 319 319 315 317 321 320 313 318 317 317 319 323 321 314 320 318 312 315 320 318 318 322 324 326 333 336 336
297 298 303 302 300 300 302 304 306 308 308 308 309 311 312 313 313 317 315 316 314 314 321 318 315 315 316 317 317 317 321 317 319 315 320 319 322 319 317 319 321 323 326 330 336
297 301 297 297 297 302 304 302 306 307 309 308 308 310 312 312 312 314 316 316 313 316 319 313 313 315 318 318 317 318 318 317 319 322 322 321 321 319 319 319 320 322 326 327 331
297 298 299 300 300 303 303 302 306 306 306 308 310 310 307 311 311 312 311 312 312 314 311 311 316 315 316 317 318 318 319 318 317 320 321 322 322 321 319 319 320 319 326 329 333
302 304 302 303 302 304 303 301 304 304 304 305 311 309 307 308 310 310 308 311 312 311 309 308 315 314 317 318 318 318 319 320 320 318 319 320 319 316 318 317 318 319 320 323 329
303 302 302 305 302 303 302 303 303 302 303 305 306 305 306 306 307 306 305 305 307 311 309 310 313 316 318 317 318 320 319 319 319 318 319 320 320 319 317 317 318 319 318 319 321

GFSSW_925_thetae_027.txt.gz
Theta_e
311 309 307 306 307 307 307 306 304 305 305 305 304 303 303 303 305 310 314 312 313 316 345 347 347 348 353 355 355 350 358 356 349 356 352 354 357 351 349 351 348 348 348 346 347
311 309 307 307 306 307 308 309 308 305 305 305 305 305 304 305 312 315 314 313 312 321 346 346 348 349 355 357 358 361 360 352 346 346 349 355 355 354 353 351 351 351 347 346 347
309 307 307 307 308 308 307 307 306 306 305 306 306 308 304 310 315 314 320 320 311 317 340 345 348 350 355 354 359 361 356 352 345 343 347 355 355 352 353 353 351 352 350 347 347
309 308 308 308 307 307 307 305 305 305 306 307 308 311 308 313 315 324 320 324 314 340 345 348 351 353 354 357 357 358 352 348 346 344 352 355 353 354 351 348 346 349 347 347 348
307 306 305 305 305 304 305 305 305 306 306 309 311 312 313 316 311 315 318 320 345 344 343 347 352 351 351 352 348 356 347 344 344 341 338 352 355 354 353 348 348 348 347 347 347
305 304 303 303 303 303 303 305 306 306 306 309 312 314 312 307 309 313 319 341 345 344 342 343 349 343 334 331 341 335 335 332 331 331 333 350 350 353 353 350 350 349 348 347 347
303 303 303 303 302 302 303 305 305 309 309 310 314 313 315 310 309 311 327 340 342 337 340 336 334 339 329 324 325 324 324 325 326 329 331 340 349 354 352 351 351 349 349 348 347
302 302 302 303 302 302 303 306 316 316 314 315 315 314 311 308 309 312 329 325 340 333 330 329 325 336 323 323 324 325 326 328 328 328 330 338 335 345 352 352 353 350 349 349 348
302 302 302 302 302 302 305 306 318 314 317 317 314 316 312 315 313 310 314 322 332 331 323 325 324 324 322 323 322 324 328 328 329 329 337 341 337 342 352 353 354 351 350 350 349
303 303 302 302 302 303 306 314 320 319 317 318 316 317 314 317 318 313 313 320 324 326 324 323 324 325 324 323 324 324 325 326 328 329 331 341 342 343 353 353 355 353 351 351 350
302 302 302 302 302 303 307 308 310 312 308 323 323 318 320 317 321 318 312 316 319 322 321 323 323 325 323 323 323 322 324 327 327 327 333 334 338 345 354 354 355 354 353 351 351
302 302 302 302 302 303 307 307 305 304 309 310 308 312 316 316 318 319 313 315 317 319 321 323 324 323 322 323 323 321 323 325 326 326 329 333 339 342 352 355 355 355 354 352 351
301 302 302 302 302 302 304 304 303 304 309 311 310 311 313 313 317 319 315 316 317 319 320 324 323 323 323 324 324 323 322 323 326 326 326 332 333 340 349 351 353 354 353 352 352
301 302 302 302 302 303 304 303 304 304 313 316 312 313 312 314 316 317 318 320 318 319 320 322 323 323 324 325 324 324 322 323 324 326 329 331 335 338 339 352 353 354 354 353 352
301 301 302 303 303 305 304 304 304 305 315 318 312 311 314 317 316 316 317 320 320 320 321 322 323 324 325 324 325 324 324 324 324 326 327 328 332 334 343 348 352 353 353 353 352
301 301 302 303 303 303 303 304 305 314 317 319 313 313 315 315 315 317 318 321 321 321 321 322 321 324 324 325 325 325 325 324 324 326 328 328 329 333 336 342 348 351 352 353 352
301 301 302 303 304 303 304 306 313 316 316 318 317 316 316 317 315 317 319 322 324 323 323 323 323 322 323 323 324 325 325 326 326 326 327 328 329 331 332 338 336 346 351 351 353
301 301 303 304 303 302 305 307 313 313 314 313 314 315 317 317 318 318 319 322 325 323 323 324 324 324 323 324 324 325 325 324 324 324 324 328 329 330 330 331 338 339 346 350 351
301 302 302 302 302 302 308 305 310 312 311 312 314 317 318 317 317 318 318 321 324 323 324 324 323 323 323 323 324 324 327 324 323 322 324 325 326 327 328 330 334 339 340 347 350
302 301 302 302 303 305 307 308 310 309 310 311 314 314 317 317 318 318 321 320 322 321 321 325 327 325 323 324 323 323 324 324 324 324 324 325 327 328 333 332 332 335 339 341 342
301 303 302 302 301 305 307 307 306 308 310 311 312 313 314 316 316 317 321 318 316 319 322 322 322 322 325 325 325 322 324 324 325 324 324 323 323 328 333 337 335 334 335 338 340
300 303 302 302 304 303 305 305 305 307 309 309 310 312 315 315 316 318 321 319 314 319 324 320 320 326 325 325 325 325 325 325 326 328 325 325 324 325 329 331 333 333 334 337 341
302 301 301 302 304 304 304 304 304 307 308 310 311 312 313 315 316 317 318 316 315 319 321 319 323 328 327 325 322 326 326 325 326 326 328 325 325 326 326 327 329 330 332 335 338
303 304 303 302 301 302 303 304 305 306 308 309 311 309 310 314 314 315 315 315 312 316 318 317 320 325 329 327 322 324 322 326 325 328 327 328 326 326 327 327 329 331 332 333 336
303 303 303 303 303 303 304 303 305 306 304 306 310 309 309 312 312 313 311 312 311 313 314 316 320 319 319 318 319 321 322 322 323 326 330 327 329 327 327 329 330 330 332 332 334
305 305 303 303 304 304 304 304 304 304 304 304 307 308 308 311 308 311 310 311 312 313 313 313 316 317 317 316 319 320 321 321 322 323 323 324 325 326 325 329 331 331 332 335 332
302 303 303 303 305 305 304 304 304 303 304 305 306 306 306 306 306 306 307 307 308 309 312 312 313 314 316 317 316 321 321 322 322 322 323 325 324 324 325 326 328 331 333 335 334

GFSSW_925_thetae_030.txt.gz
Theta_e
312 312 311 310 311 310 308 308 307 306 307 306 306 307 306 304 305 318 317 315 315 320 344 345 350 351 351 354 355 355 360 354 351 353 354 355 357 353 350 352 351 350 351 350 349
311 311 310 310 310 309 310 309 306 307 307 308 307 307 307 305 316 316 315 314 313 320 339 344 351 349 352 353 355 358 357 350 346 345 348 354 355 355 353 352 352 352 350 349 350
310 308 304 304 306 308 308 306 308 309 309 310 309 308 307 309 318 318 318 319 312 319 332 340 343 346 347 350 355 355 354 347 343 343 346 354 355 354 352 353 352 355 353 351 350
307 303 303 303 303 304 305 306 306 308 309 309 312 310 307 317 319 322 319 326 311 326 331 336 342 346 346 351 350 354 348 347 345 342 344 350 353 355 353 349 349 351 351 351 351
304 303 303 302 302 303 303 304 304 306 306 308 311 312 316 318 315 317 320 321 329 329 331 336 343 342 343 346 347 353 346 342 344 342 339 340 350 352 353 350 349 350 350 351 351
303 303 303 302 302 303 303 304 305 306 311 311 312 313 316 315 314 313 324 327 332 332 332 335 341 339 340 342 346 340 344 342 337 334 335 335 346 349 350 351 351 351 351 350 350
302 302 302 302 301 302 303 304 305 315 317 317 314 315 318 318 312 314 326 332 335 334 333 334 336 341 334 336 331 338 330 329 330 331 333 335 342 347 347 353 354 352 351 350 350
302 301 301 301 301 301 302 306 314 314 316 315 315 316 320 315 314 319 325 333 338 335 332 333 332 340 333 328 327 330 330 333 335 332 332 333 341 342 347 354 355 353 351 350 349
301 301 301 301 301 301 302 310 319 318 318 316 318 319 321 313 312 314 327 329 337 333 333 331 333 333 334 333 329 329 335 337 337 333 335 335 339 339 346 352 354 355 352 351 350
301 301 301 301 302 302 304 313 318 319 319 320 318 320 318 319 317 313 318 322 336 332 329 329 327 327 331 330 333 332 332 336 338 336 334 338 340 340 348 350 353 355 353 352 351
301 301 301 301 302 303 306 311 318 322 313 325 327 322 322 319 320 315 314 324 330 332 327 325 325 326 325 327 328 331 332 334 335 334 334 336 338 338 344 350 351 355 354 354 353
301 300 301 301 302 305 309 311 306 305 310 313 313 317 323 321 324 320 315 324 324 330 326 325 326 325 324 324 326 327 329 331 333 332 332 337 338 338 341 350 351 354 355 355 353
301 300 301 302 303 307 308 307 307 307 312 316 316 316 317 318 322 322 318 321 323 326 325 325 325 324 324 325 325 326 328 330 331 332 331 332 335 336 337 348 350 352 353 353 354
301 300 301 303 306 307 307 306 307 307 316 318 316 317 317 319 321 323 316 320 321 324 323 324 324 324 324 324 324 326 325 326 327 330 333 333 339 339 338 343 347 350 353 353 354
301 300 301 303 306 307 306 306 307 309 316 321 317 315 317 321 324 321 320 318 320 322 323 323 323 324 325 325 325 325 324 325 325 327 330 332 335 336 338 338 341 345 349 352 353
301 301 302 306 307 306 305 306 309 316 316 321 316 317 317 319 320 322 322 320 320 322 323 324 324 325 326 325 325 324 324 325 326 325 329 331 334 336 337 340 339 342 346 351 352
301 302 305 305 306 305 305 310 313 314 317 320 319 319 320 320 321 320 323 324 327 326 325 324 324 324 324 326 326 325 327 328 327 327 328 330 332 334 335 336 338 339 342 350 352
301 304 304 305 304 305 306 311 310 314 317 316 316 318 320 321 320 320 322 325 324 326 327 326 325 324 325 326 327 326 326 326 328 326 326 328 330 332 333 334 334 337 337 345 350
303 304 305 304 304 306 310 308 310 315 313 313 316 320 322 321 321 321 321 324 325 327 328 328 328 324 325 326 326 328 329 326 326 326 327 327 328 329 331 333 334 334 336 337 347
305 305 305 304 304 307 309 308 311 310 310 312 316 317 321 321 322 322 322 323 326 326 327 329 330 326 325 325 326 327 327 327 326 329 329 326 328 329 331 332 334 334 336 338 345
306 307 304 304 305 307 306 307 307 307 309 311 313 315 318 319 320 322 324 320 320 322 325 327 329 330 326 326 326 326 327 327 327 327 328 328 328 330 330 332 333 334 336 338 343
306 306 304 304 306 306 306 306 305 306 307 309 311 311 315 317 319 322 325 323 318 322 326 327 329 331 328 326 326 327 327 328 328 331 328 329 328 328 328 329 332 333 335 337 340
307 306 304 304 306 306 305 306 306 307 307 308 311 313 313 316 319 319 321 317 316 321 325 326 327 331 331 329 328 328 327 328 328 329 333 330 328 329 329 330 333 334 334 335 336
307 307 306 306 305 306 306 306 306 306 306 306 311 311 314 313 314 317 317 315 314 315 317 320 328 330 332 331 329 330 328 328 328 331 330 331 330 329 328 330 329 330 332 333 336
306 306 305 307 306 306 305 306 306 306 306 306 310 309 311 314 314 314 315 314 315 315 316 319 327 327 330 325 325 329 328 329 330 330 331 330 331 330 330 330 330 331 331 332 334
306 305 305 306 305 305 305 306 306 305 305 306 306 306 307 311 311 313 312 314 315 315 316 316 324 323 325 323 323 325 326 327 328 330 330 330 331 330 330 330 331 331 331 331 332
305 305 305 305 306 306 305 305 304 304 305 306 306 306 307 307 308 309 310 310 310 312 314 315 318 321 326 324 323 326 326 326 327 327 328 330 330 329 329 329 330 330 330 330 332

GFSSW_925_thetae_036.txt.gz
Theta_e
309 306 304 304 304 307 309 309 306 307 310 307 308 307 308 308 309 316 317 316 318 319 316 333 330 340 348 353 351 352 362 366 360 352 348 346 351 352 352 354 355 356 354 352 351
305 303 302 302 303 305 307 306 309 307 306 310 309 307 307 310 317 318 316 318 318 319 321 333 333 341 349 351 350 354 360 356 354 351 353 346 347 350 351 352 358 356 352 350 349
302 301 301 301 301 301 301 304 307 306 304 305 306 306 307 311 322 321 321 318 318 318 322 331 334 342 349 348 349 351 356 349 348 349 348 346 345 348 349 353 358 358 354 351 349
301 301 300 300 301 301 301 302 303 302 304 307 307 306 307 318 326 326 318 320 318 318 323 328 336 345 350 349 346 351 351 351 348 347 347 349 346 345 347 350 355 354 351 351 350
301 300 300 300 300 301 301 302 302 303 310 314 311 312 315 322 321 323 319 319 320 318 325 328 336 342 349 348 346 348 352 350 347 346 350 347 350 349 347 350 352 353 352 352 352
301 300 300 300 300 301 302 302 302 306 317 319 317 315 318 325 325 325 327 327 321 320 325 326 334 338 346 346 345 346 349 349 349 346 342 344 349 347 345 347 351 353 353 352 351
301 301 300 300 300 302 303 304 304 309 316 317 319 316 319 324 325 321 323 328 324 324 325 325 330 336 342 345 343 343 346 346 346 344 342 339 343 349 348 348 351 353 354 353 351
302 301 300 300 301 302 306 308 308 311 318 317 321 318 324 327 325 324 318 322 324 325 326 325 328 334 338 342 342 343 345 347 345 345 342 338 340 345 350 351 352 352 352 354 352
302 302 301 300 301 307 310 311 311 312 320 317 320 321 328 325 326 325 322 325 326 328 328 327 328 330 334 342 344 343 345 348 346 344 340 338 339 342 349 351 354 352 351 351 354
303 302 301 300 302 308 310 312 312 315 322 321 324 327 326 328 326 325 325 323 328 331 331 330 330 330 333 340 348 343 339 343 344 340 339 339 338 342 344 350 354 355 352 352 352
303 302 301 301 302 308 308 312 313 324 314 322 328 325 326 328 324 323 324 323 330 333 335 334 334 334 333 337 340 340 336 337 339 339 339 339 339 343 344 348 352 355 355 353 351
302 302 301 300 302 309 309 312 310 310 312 313 314 316 319 323 327 324 323 324 330 336 336 336 337 334 333 335 338 340 339 335 335 338 340 341 339 340 343 347 347 352 355 354 351
302 302 301 301 305 311 312 309 308 310 312 312 314 315 315 318 324 327 323 325 330 336 338 338 336 334 335 335 334 340 340 337 335 335 339 341 342 342 341 342 345 350 353 354 353
302 302 302 302 308 311 311 308 308 309 311 314 317 318 316 317 320 326 323 328 330 335 338 336 334 334 334 335 333 333 335 335 336 336 339 342 344 345 340 340 345 345 351 352 354
302 302 303 304 308 312 308 307 308 311 316 321 320 321 320 317 322 322 326 324 329 329 337 337 331 331 332 332 328 327 329 332 332 334 335 336 340 341 341 341 342 346 350 351 353
302 303 304 309 310 310 307 308 309 313 314 321 322 322 322 319 319 323 326 325 326 329 333 337 332 328 328 328 327 327 327 327 328 330 336 334 337 342 341 343 342 344 346 352 352
303 305 305 307 310 307 307 310 310 311 314 318 317 317 319 323 321 321 326 328 324 328 333 333 335 332 329 328 327 327 327 328 329 330 331 332 335 338 337 340 341 341 346 351 352
303 308 308 310 308 307 308 310 311 310 312 313 313 314 318 321 323 323 325 329 324 324 328 330 331 331 329 328 328 327 327 328 331 330 328 330 333 335 336 336 337 340 343 346 350
305 311 312 310 308 307 310 311 311 312 312 310 311 315 319 320 321 324 325 328 327 323 329 330 330 329 329 327 328 328 328 327 327 328 328 328 329 330 334 335 336 336 341 344 346
307 311 312 310 308 309 311 310 310 310 309 308 309 310 312 313 316 321 327 326 328 324 325 328 330 329 329 328 327 328 329 328 329 333 335 331 335 333 334 336 337 338 338 342 344
310 313 311 309 309 311 311 308 309 308 307 307 307 308 309 316 316 319 323 326 324 326 328 326 329 330 330 329 329 328 331 329 328 329 332 335 331 336 338 337 338 338 339 341 344
310 315 311 309 310 310 309 308 307 308 309 308 308 308 311 314 315 320 326 326 324 322 326 329 326 331 333 331 329 329 330 331 331 335 331 333 333 333 336 337 337 337 339 340 343
312 314 311 308 310 309 309 308 307 308 309 309 308 307 309 310 314 319 319 321 320 321 324 326 331 334 334 334 331 330 329 330 331 330 337 334 332 333 334 333 338 337 340 341 345
312 313 312 310 309 309 308 307 307 308 309 308 309 308 308 310 311 316 317 319 318 319 328 323 329 334 336 336 335 333 330 330 330 333 333 333 334 333 333 333 336 339 340 341 346
310 312 310 311 310 310 308 308 309 310 309 309 307 310 311 309 310 313 314 314 317 322 321 325 332 333 332 334 334 330 329 330 332 334 335 333 333 336 338 337 337 337 341 343 347
310 311 308 311 310 309 309 308 309 307 306 307 308 309 308 307 309 311 312 313 317 317 317 321 328 331 334 334 334 335 331 330 330 330 332 332 333 335 336 338 338 340 340 342 342
307 305 306 309 310 310 311 310 308 307 307 307 307 307 307 307 308 308 309 309 311 313 316 318 324 329 333 333 334 336 334 331 330 330 331 334 336 336 337 337 338 337 336 335 334

GFSSW_925_thetae_039.txt.gz
Theta_e
305 304 304 303 304 304 303 304 303 305 306 304 304 306 308 309 309 314 317 312 313 317 328 334 331 333 348 354 354 351 359 364 359 356 354 351 356 356 355 356 355 353 353 349 348
306 304 302 302 303 303 303 303 307 307 304 303 305 306 307 310 315 317 314 315 315 317 320 329 330 330 342 354 354 357 360 357 354 351 351 350 353 355 358 357 357 356 351 349 348
302 301 300 301 301 301 301 304 306 303 303 305 307 307 307 310 321 321 322 316 316 317 318 319 329 329 339 346 351 353 358 350 351 349 348 349 350 350 358 360 356 356 353 351 349
301 301 301 300 300 300 301 302 302 303 303 312 316 312 310 316 322 321 319 321 316 318 320 319 324 331 339 347 348 352 351 350 349 347 348 348 348 348 358 357 353 352 351 350 350
302 301 301 300 300 300 302 303 305 306 306 316 319 315 314 319 319 321 322 320 320 318 319 320 324 332 337 346 347 348 352 350 348 345 346 346 348 355 358 354 352 350 350 350 350
302 302 301 301 300 301 304 307 308 308 308 316 321 317 316 320 322 323 328 322 323 319 319 320 326 330 338 345 347 345 347 350 348 347 347 347 348 348 357 353 353 352 350 349 349
302 302 302 301 301 302 307 308 309 309 310 317 321 317 318 315 323 325 327 323 322 319 318 321 325 327 335 339 344 345 347 351 350 347 347 346 348 347 356 354 354 353 351 350 349
302 302 302 301 301 303 308 310 310 311 311 319 320 319 320 319 323 322 324 327 321 321 319 321 325 324 327 335 341 344 344 347 348 346 345 346 353 351 351 355 355 354 352 351 350
302 302 302 301 301 303 308 310 312 312 313 318 321 321 323 325 325 325 324 324 325 324 323 323 323 323 325 334 339 341 346 343 345 344 344 337 339 350 349 353 355 354 353 352 351
302 302 302 301 301 303 307 310 311 320 322 321 322 323 323 323 326 327 324 324 323 324 325 325 325 324 325 330 338 343 342 341 343 345 343 340 335 351 350 354 355 354 353 352 351
302 302 302 302 302 307 307 309 308 316 311 308 310 315 313 324 322 327 326 325 322 324 328 328 327 327 326 328 332 340 343 339 338 341 341 341 335 352 354 355 356 353 353 353 351
302 302 303 302 303 308 311 308 307 308 307 309 310 311 312 314 317 321 326 325 320 326 328 330 331 328 327 328 329 336 341 340 335 336 337 339 337 337 352 354 352 353 353 352 351
303 303 303 303 305 310 310 308 308 308 307 309 309 311 311 312 314 317 321 324 321 326 330 332 333 332 332 329 329 333 337 339 338 334 334 337 338 338 350 348 350 354 357 355 350
303 303 303 304 308 308 312 309 307 308 308 312 313 314 314 313 315 318 320 323 324 325 331 333 334 334 334 332 330 334 334 337 339 338 335 337 341 339 344 349 354 353 351 352 349
305 305 305 305 307 310 310 308 308 309 314 319 316 316 314 313 315 317 319 322 324 325 330 335 336 335 334 334 332 334 331 335 338 337 332 335 340 340 338 345 348 350 347 351 349
305 306 306 307 308 310 309 308 308 310 314 313 313 312 311 313 317 318 319 321 322 324 328 331 335 334 334 333 333 333 331 327 333 332 332 330 337 338 341 339 340 347 350 351 350
304 306 307 307 309 309 308 308 309 309 312 312 310 310 310 314 318 318 319 318 323 323 329 329 332 334 330 332 331 331 325 324 325 330 329 325 329 329 336 338 339 341 347 351 351
303 309 310 311 310 310 308 308 311 311 311 310 309 308 310 311 312 314 315 320 323 322 325 329 331 333 332 328 327 328 325 322 325 325 325 325 327 329 330 331 336 338 345 349 350
303 309 311 313 312 310 308 310 311 310 309 308 307 307 308 309 311 312 314 322 325 326 322 326 328 332 334 330 327 325 325 322 323 325 325 324 324 324 326 329 329 331 338 350 350
306 310 313 311 310 309 309 311 310 308 307 307 308 306 306 310 311 312 315 319 324 322 322 322 322 328 331 332 329 326 324 324 323 324 325 325 325 326 325 326 329 328 330 346 348
308 313 312 312 309 309 310 310 309 308 308 308 309 309 307 311 311 311 314 315 320 320 319 321 322 322 326 329 330 325 325 324 322 322 325 329 329 327 326 326 328 329 330 341 347
308 313 312 311 309 310 308 308 307 306 308 308 309 308 307 307 311 310 313 317 317 317 316 320 323 323 322 325 328 327 324 324 325 324 325 324 327 331 331 328 328 330 330 335 343
309 312 311 310 309 309 309 308 307 307 309 309 307 307 307 309 312 314 315 314 314 314 317 320 322 329 325 324 324 327 325 324 324 325 327 326 327 333 332 329 329 331 332 332 340
310 310 311 310 309 309 310 309 307 308 309 309 309 308 308 309 311 314 313 314 312 313 319 319 322 324 329 326 327 329 327 325 325 327 327 327 330 333 334 332 334 332 337 335 340
308 309 309 310 311 309 310 309 310 309 309 307 308 308 310 309 309 311 311 311 311 315 314 312 319 325 329 330 330 332 327 327 326 326 328 326 332 333 336 337 338 337 337 340 342
308 309 306 306 308 310 310 310 310 309 309 307 307 307 307 309 309 309 309 309 311 311 311 310 318 324 331 331 333 334 333 328 327 327 327 328 327 333 334 336 336 337 336 334 336
307 307 306 307 307 309 310 311 311 310 311 310 307 306 306 307 308 308 307 307 307 310 310 310 315 321 331 332 333 336 334 332 328 328 327 329 329 333 335 337 334 335 333 332 332

GFSSW_925_thetae_042.txt.gz
Theta_e
305 303 303 304 304 303 305 307 308 307 308 303 304 307 309 309 309 314 317 312 311 331 324 333 341 345 350 353 349 347 355 365 360 360 356 354 359 357 353 354 353 352 344 337 337
303 302 302 301 301 302 303 305 305 304 303 304 306 311 311 311 314 316 318 315 312 321 334 339 337 334 351 353 355 358 362 361 354 353 354 354 356 357 357 358 356 350 339 342 341
302 302 302 301 301 301 301 303 304 305 307 307 312 317 313 312 319 321 322 319 315 314 325 332 329 329 331 344 355 357 359 353 350 351 350 348 359 355 358 360 355 352 349 345 343
302 302 302 301 301 301 301 303 306 307 307 308 313 319 312 315 324 320 319 321 315 315 319 319 319 326 331 341 345 355 357 352 347 349 351 348 349 358 357 356 352 349 348 347 347
302 302 301 301 301 301 301 304 306 307 308 308 314 318 314 317 316 322 321 322 317 317 320 318 318 324 331 336 341 348 349 350 348 346 346 345 349 356 357 353 350 349 348 348 348
301 301 301 301 301 301 303 305 307 308 311 309 317 316 316 316 316 321 320 323 318 323 320 318 319 320 330 332 341 345 346 349 346 343 345 345 350 357 355 352 352 351 349 348 348
302 302 302 301 302 302 305 308 309 309 311 310 319 317 317 314 317 322 326 322 319 319 318 318 319 324 326 335 334 338 347 349 345 344 346 345 351 361 354 352 353 352 351 349 348
302 302 302 302 302 302 306 310 310 311 311 314 321 318 318 314 316 319 324 325 326 318 318 318 318 321 323 324 326 339 342 352 349 347 348 346 355 359 353 353 354 352 351 350 349
302 302 302 303 302 303 308 311 309 315 322 318 320 319 321 319 323 324 321 325 322 319 318 318 318 320 322 323 324 332 339 344 350 349 348 348 353 358 353 353 353 352 351 350 349
303 303 304 303 303 304 310 310 307 317 321 320 322 321 318 320 316 317 324 325 320 319 319 318 318 319 321 321 328 334 341 340 342 341 347 349 353 358 355 354 355 353 351 350 350
304 305 305 305 303 306 310 309 304 303 307 305 305 320 312 311 311 317 322 323 323 321 322 321 322 323 322 321 325 332 337 340 339 338 341 346 356 359 356 354 356 354 353 351 351
303 304 304 306 304 308 309 305 306 306 302 306 307 306 307 308 309 311 318 322 322 324 322 325 325 324 325 323 325 328 329 338 339 339 336 338 355 354 355 356 355 356 355 353 351
302 302 304 307 305 307 309 309 309 307 302 306 308 308 307 308 309 310 314 321 323 322 323 326 328 327 327 326 326 326 327 330 339 338 334 337 345 352 353 354 349 350 354 353 351
301 302 304 306 306 308 309 308 308 307 304 309 311 312 310 310 311 314 313 317 323 321 321 324 327 328 329 328 326 326 326 328 333 337 339 334 341 355 356 355 351 351 353 353 351
301 302 306 306 308 308 308 309 308 306 307 314 310 311 308 309 312 312 313 316 320 322 320 325 327 330 329 329 328 327 326 328 332 333 335 337 334 347 356 358 355 350 349 350 350
302 302 309 308 307 308 308 309 306 306 311 311 308 307 308 308 310 312 312 314 319 320 322 322 327 329 331 331 331 329 329 330 330 329 335 335 332 334 359 358 353 349 345 345 347
302 303 310 308 307 309 311 303 305 306 309 309 306 306 306 307 309 310 312 312 317 320 322 323 324 328 332 333 331 331 329 332 333 330 331 331 326 330 340 352 351 350 350 348 344
301 307 311 311 311 312 310 303 309 308 306 306 305 305 305 308 310 309 311 312 317 318 321 322 323 325 329 333 334 331 327 328 335 327 330 322 324 325 326 335 346 348 351 346 344
301 309 312 311 312 312 302 306 307 306 306 306 306 306 306 309 311 309 310 314 316 317 319 321 322 326 328 331 331 331 331 322 319 319 320 322 321 322 323 323 328 343 349 347 348
304 308 310 311 311 308 303 308 308 307 307 306 307 307 306 308 310 310 310 313 316 315 314 317 322 322 327 327 330 325 323 325 317 323 323 322 322 323 322 322 321 326 345 345 350
305 305 311 311 309 301 304 306 307 306 307 307 308 308 305 304 305 310 309 310 313 314 313 314 316 322 320 324 330 328 325 322 321 317 321 322 324 322 322 322 322 322 340 348 349
304 307 310 309 303 301 305 306 306 305 307 307 306 306 305 306 308 309 311 313 314 313 314 314 320 323 323 321 321 332 323 320 323 320 318 320 324 326 323 323 323 324 325 346 349
303 304 309 308 305 305 306 309 308 308 308 308 307 307 307 307 309 313 313 311 312 313 315 315 322 322 323 320 320 320 327 320 317 317 320 324 324 324 323 328 326 327 324 332 347
303 305 303 303 304 307 308 309 309 309 308 308 308 307 307 307 309 310 312 312 311 311 312 313 311 317 324 321 321 322 323 325 320 322 322 322 323 325 324 328 326 323 326 333 344
301 303 305 304 305 306 307 309 310 310 309 307 306 307 308 308 308 309 309 308 308 309 311 311 311 311 311 314 318 324 326 325 322 324 324 323 325 323 324 331 329 329 329 334 343
304 304 302 306 304 306 307 309 312 311 310 310 311 310 306 306 307 309 309 308 309 308 309 309 312 310 313 322 326 329 331 331 323 323 324 322 324 322 327 330 333 333 335 338 339
305 305 305 308 307 308 308 308 309 309 311 310 310 309 307 307 306 306 306 307 307 310 311 310 310 310 317 323 330 332 328 332 326 323 324 324 323 327 338 344 342 328 330 330 336

GFSSW_925_thetae_045.txt.gz
Theta_e
304 303 302 302 303 304 304 303 304 305 306 307 307 307 314 313 311 313 314 313 312 327 325 340 339 343 348 352 350 344 352 360 362 360 359 356 358 358 353 354 352 346 340 339 341
302 302 301 301 303 303 303 303 304 306 307 307 308 310 317 315 313 315 317 317 312 326 327 340 342 343 352 353 354 356 357 358 353 353 354 354 358 358 356 356 347 340 338 338 341
301 301 301 301 302 302 302 302 303 305 307 308 308 313 318 313 317 319 320 318 314 331 325 337 339 343 347 350 355 358 359 354 351 350 351 351 358 355 357 359 348 341 339 338 341
302 302 302 302 302 301 301 303 305 307 308 310 308 316 312 314 322 320 321 320 315 327 331 332 328 328 335 341 344 359 356 357 349 348 352 350 355 358 357 356 346 338 337 338 340
302 302 302 302 302 302 302 305 308 309 309 310 309 316 313 315 312 317 322 321 314 331 325 324 327 327 333 335 340 353 353 351 355 354 347 345 356 358 357 352 340 341 338 338 338
303 303 303 303 303 302 304 308 310 309 312 313 313 315 316 311 313 320 320 321 320 320 321 316 320 323 327 329 342 341 343 345 346 348 341 345 347 355 355 349 346 345 341 339 339
304 305 305 305 304 303 305 311 309 307 320 310 317 316 316 312 315 314 327 319 317 317 317 317 317 322 321 331 330 334 341 340 343 345 346 347 359 360 354 350 350 349 346 343 345
303 304 304 306 306 303 306 311 309 310 318 315 319 317 317 313 318 321 326 323 326 318 317 317 317 320 322 323 323 334 334 341 342 348 344 345 353 358 353 352 351 350 348 347 347
301 302 303 306 307 304 309 308 308 314 318 320 320 317 319 318 320 311 315 321 324 323 318 318 317 317 322 323 321 325 336 344 343 345 347 347 359 357 353 353 353 350 349 349 347
301 301 302 305 307 305 309 308 307 318 318 318 321 315 314 311 309 308 315 321 318 318 317 316 315 315 317 319 330 326 336 337 339 342 348 348 352 358 354 354 354 352 350 349 349
301 302 302 306 307 307 308 307 301 302 304 304 304 311 308 308 308 310 311 321 318 316 317 316 316 318 318 321 323 329 336 339 338 338 344 349 350 360 355 354 354 353 351 350 350
301 301 301 308 306 307 309 304 306 307 301 304 305 305 306 306 307 309 311 321 322 320 319 319 318 317 318 320 322 322 325 330 332 335 336 339 349 358 356 354 353 353 352 350 349
301 301 301 308 306 308 308 308 308 307 301 303 306 307 307 307 308 309 310 316 321 324 321 322 323 321 323 322 322 322 323 326 330 334 335 342 351 358 357 355 353 351 350 349 349
301 301 303 309 306 306 307 308 309 305 302 307 308 308 307 307 310 311 312 312 318 323 323 322 323 324 323 325 323 321 323 326 328 333 337 334 348 362 360 358 355 354 352 350 349
301 301 306 308 307 306 308 309 309 304 306 310 306 308 306 305 307 311 311 313 315 317 319 322 323 324 325 325 324 325 323 325 326 328 332 332 334 349 355 359 357 355 354 352 350
301 301 309 309 307 308 308 311 305 305 309 308 306 305 305 306 308 309 311 315 315 318 317 319 320 323 324 326 326 325 325 325 326 326 331 330 333 332 354 353 356 352 350 350 352
301 304 311 309 306 309 311 302 304 305 306 306 305 304 304 308 308 309 313 316 317 321 320 319 321 320 325 326 326 327 323 326 329 329 333 329 331 334 346 349 350 352 349 346 350
300 306 311 311 310 309 308 303 307 308 305 305 305 305 305 309 309 308 308 314 315 316 319 320 322 322 323 328 328 327 328 327 331 333 333 325 329 329 334 345 347 348 348 346 348
301 307 311 310 309 309 301 305 307 306 306 305 305 306 306 308 309 308 309 314 315 314 316 320 321 316 318 324 329 329 330 326 323 316 322 328 320 320 325 338 346 348 348 348 344
303 305 309 309 308 306 302 306 307 306 306 306 307 307 307 304 305 309 308 312 315 313 313 315 319 317 320 321 326 331 325 329 319 330 323 321 321 326 322 323 335 348 348 346 345
305 304 309 308 306 299 303 303 305 306 307 307 307 307 306 305 306 309 308 312 313 313 313 314 316 320 320 321 323 325 330 326 327 321 332 320 323 318 320 322 323 338 344 344 347
302 304 308 307 304 299 304 306 307 306 306 307 305 305 305 306 308 308 312 312 312 311 315 314 318 324 322 321 319 320 326 318 332 327 317 320 327 321 320 320 319 323 335 339 345
302 301 307 306 305 304 304 308 308 308 307 307 306 306 306 306 308 311 312 311 312 312 313 314 319 315 322 318 318 318 320 321 321 315 318 330 330 319 320 323 323 322 321 333 341
302 304 301 299 301 305 306 308 310 309 309 308 307 306 306 306 306 308 311 312 309 309 315 312 315 314 319 316 314 314 315 315 317 319 320 321 324 321 320 321 322 323 323 324 339
298 302 302 303 303 304 305 307 310 312 310 307 307 310 309 306 306 307 308 307 309 312 311 311 312 312 311 312 312 312 313 314 320 321 322 322 319 320 319 322 328 329 322 322 336
303 303 300 303 304 307 306 308 309 309 309 311 311 311 308 305 304 304 306 306 307 308 310 310 311 311 313 312 312 314 315 319 321 325 319 320 320 319 338 341 343 341 328 326 342
303 304 305 308 308 308 309 310 310 309 310 311 310 310 310 309 306 303 303 302 305 308 309 310 311 312 312 313 315 324 323 325 328 324 325 321 324 334 344 346 346 346 341 332 338

GFSSW_925_thetae_048.txt.gz
Theta_e
303 303 303 303 304 304 302 303 305 306 306 307 307 308 311 316 314 314 314 315 313 315 325 348 345 345 345 349 352 344 352 356 362 361 362 356 359 356 353 352 348 343 341 342 344
303 303 303 303 303 302 302 303 304 306 307 307 308 308 313 317 313 314 312 316 314 316 335 347 343 343 349 353 355 352 354 353 354 354 355 356 357 359 356 355 344 342 341 343 342
303 304 304 304 303 302 302 304 306 308 308 308 310 309 316 312 315 315 327 320 315 329 336 334 336 346 351 352 355 356 359 352 352 350 351 352 358 355 356 358 343 344 344 342 342
304 305 304 305 305 304 303 304 308 309 308 311 311 313 315 314 317 318 318 321 315 333 331 337 340 342 345 348 350 358 356 356 352 350 351 352 355 357 355 356 344 340 342 342 342
302 303 304 305 306 305 303 306 310 308 308 314 311 315 313 312 310 318 320 321 321 337 332 330 339 330 343 343 341 354 355 351 353 354 353 349 354 357 356 345 339 339 341 342 342
302 302 304 304 307 305 304 307 309 309 314 314 311 315 315 308 313 315 322 322 330 331 330 324 334 326 330 335 343 342 348 348 346 345 347 351 351 355 351 339 340 340 341 342 341
301 302 303 305 307 306 306 309 308 308 317 313 315 315 315 312 314 318 325 323 325 330 322 321 323 329 323 330 329 335 335 334 337 343 345 344 358 357 347 341 340 339 340 342 341
301 302 302 304 308 305 309 308 308 310 317 316 318 317 316 315 317 313 324 323 320 323 318 320 319 320 321 323 322 330 332 339 340 341 343 345 353 358 346 345 343 339 338 340 339
301 301 302 303 307 305 308 307 307 319 317 319 319 317 315 313 313 309 309 321 324 319 318 317 316 317 321 323 323 322 339 340 343 341 346 345 357 357 350 348 347 342 339 339 339
301 301 302 305 306 307 307 307 309 319 318 318 319 313 311 309 308 308 315 320 322 320 320 316 312 313 314 320 329 328 330 336 341 339 346 347 353 356 352 351 350 347 345 342 342
301 301 301 304 306 307 307 306 301 302 303 304 303 305 307 307 308 309 310 320 316 316 318 314 314 316 316 322 324 327 333 337 337 335 347 347 353 359 354 352 351 350 348 347 344
301 300 300 304 306 307 308 303 305 306 303 302 303 303 305 306 307 310 310 321 318 318 315 316 315 315 315 317 321 323 323 329 330 335 339 342 347 358 355 354 352 351 349 348 347
300 300 301 307 306 307 307 306 307 307 301 303 305 306 306 306 308 308 310 311 320 319 318 317 317 316 316 318 319 321 322 323 331 329 334 337 341 357 357 354 353 351 350 348 347
300 300 304 309 306 306 306 307 309 305 301 307 306 307 306 305 308 309 309 311 314 322 320 319 319 319 317 318 319 318 321 324 324 329 332 335 342 352 358 357 354 352 351 350 348
300 301 309 310 307 306 307 310 306 302 304 307 305 307 303 304 306 308 312 313 313 314 319 324 321 322 320 318 319 319 321 321 323 326 328 329 333 334 356 360 357 353 351 350 348
300 301 310 309 308 308 309 309 303 303 306 306 305 305 306 306 307 307 314 313 315 318 316 315 318 321 322 321 321 322 323 322 323 322 327 327 332 333 351 358 357 354 352 350 348
300 302 311 309 307 308 310 301 302 303 305 305 305 304 305 307 307 307 313 315 314 319 319 319 317 318 320 321 322 322 322 324 325 326 331 328 331 331 330 348 353 355 353 351 349
300 303 310 308 307 308 305 302 306 307 305 305 305 304 305 305 307 306 311 315 313 313 316 320 321 319 319 321 324 324 321 323 327 328 332 324 330 330 330 336 347 348 351 351 350
301 305 309 307 308 309 301 304 307 306 305 306 304 305 305 305 307 306 310 316 314 312 315 317 319 316 317 318 322 324 325 321 323 318 324 330 324 323 324 329 341 345 347 350 349
302 304 308 307 308 305 301 306 305 305 305 305 305 306 306 303 305 306 307 313 314 311 312 314 317 316 318 319 320 323 323 326 321 331 325 324 320 333 325 329 333 341 344 346 347
304 303 306 307 304 299 302 302 305 305 306 306 305 305 305 305 306 307 308 312 312 312 310 313 314 318 318 321 321 321 328 327 325 323 329 324 323 321 323 327 328 330 344 344 345
300 302 306 306 303 298 303 304 306 306 305 306 305 304 304 304 306 307 309 312 311 310 313 313 315 320 320 319 316 318 320 322 333 329 319 323 329 320 320 321 322 326 332 343 344
301 300 306 305 303 302 303 306 307 307 307 306 306 305 305 304 306 309 311 311 311 311 312 313 318 313 318 315 313 315 314 312 312 320 332 332 330 324 317 318 318 320 324 330 339
300 303 300 298 299 304 305 307 309 308 308 307 307 305 305 305 304 306 310 311 310 310 314 311 310 311 315 315 313 314 314 313 312 317 325 328 329 324 322 320 320 320 320 320 324
297 301 300 302 302 305 307 306 308 310 309 309 308 309 308 308 305 306 306 308 309 312 310 308 310 311 311 312 312 313 314 314 314 315 319 324 320 319 321 320 322 328 328 326 325
302 302 300 302 305 307 307 306 309 309 309 309 310 310 310 308 305 304 305 304 308 307 308 306 309 311 312 312 313 314 314 315 315 316 317 320 320 321 334 340 346 346 346 346 335
302 303 305 308 308 309 309 310 310 309 308 309 311 310 308 309 309 308 301 301 303 306 305 307 308 313 312 310 312 318 317 321 321 319 323 322 324 327 344 345 341 340 342 346 347

GFSSW_925_thetae_051.txt.gz
Theta_e
305 305 305 305 304 303 302 303 305 306 307 307 308 312 311 314 316 314 313 315 313 313 340 348 345 345 345 351 352 346 355 358 360 362 359 354 359 356 353 348 347 345 345 345 346
303 303 304 305 305 304 303 303 305 308 309 308 309 312 314 316 314 315 312 313 313 315 337 343 342 343 347 351 354 352 361 356 353 354 357 356 357 358 357 353 348 346 344 345 346
302 302 303 304 306 306 304 304 307 309 307 309 312 311 315 313 316 316 317 328 314 332 339 338 339 342 349 352 355 356 360 354 353 351 354 355 357 358 359 359 351 350 349 345 346
302 302 303 304 307 307 304 304 308 309 308 312 311 311 315 314 318 314 320 322 314 328 340 332 339 343 344 352 353 359 356 356 354 350 351 355 355 359 357 356 350 347 346 345 346
302 302 302 304 308 308 304 306 308 308 308 316 311 313 313 314 312 316 324 323 329 331 330 328 338 338 337 343 350 356 357 354 353 352 352 352 353 355 357 350 346 346 346 345 345
301 302 301 303 308 307 305 308 308 308 314 313 312 314 315 311 311 316 325 327 331 329 330 331 335 335 337 347 347 347 350 353 350 349 349 351 350 354 354 346 346 347 347 345 344
301 301 301 302 307 305 307 308 307 307 317 313 315 315 315 313 316 319 325 326 331 329 330 331 332 333 329 334 337 341 347 343 342 344 347 346 352 358 350 347 348 347 346 345 343
301 301 301 302 307 307 307 306 307 314 314 317 318 317 317 316 315 315 320 324 327 324 323 322 325 331 325 325 325 332 334 346 345 344 345 347 355 358 347 349 349 347 346 345 343
301 301 301 302 306 307 307 307 309 316 315 318 319 318 312 310 309 309 311 322 322 328 319 320 320 326 326 328 329 331 333 341 348 344 347 349 352 359 348 348 348 347 346 345 344
301 301 301 305 306 307 307 308 310 314 315 318 318 315 311 309 308 308 313 323 322 323 320 318 323 322 323 327 325 329 330 341 351 346 346 350 351 359 351 349 347 346 346 345 344
300 300 301 308 306 307 307 305 308 309 307 307 307 308 309 307 309 311 311 321 321 318 318 318 319 323 321 323 326 331 333 337 344 344 347 351 351 360 356 353 349 346 345 345 344
299 300 301 310 306 307 308 309 308 307 309 305 304 305 305 305 310 310 313 323 324 321 318 317 318 318 319 319 323 325 331 336 338 338 342 347 349 355 358 357 354 349 345 344 342
299 300 305 310 306 307 306 307 308 305 307 307 307 308 307 307 310 309 312 314 323 324 319 318 319 318 317 318 319 322 326 331 334 331 336 341 346 351 358 357 355 352 349 346 344
299 300 308 309 306 306 306 307 309 306 308 310 308 308 308 307 309 309 314 313 314 325 322 323 322 318 318 318 318 320 321 327 330 330 344 340 354 347 353 360 358 355 353 350 348
300 300 307 309 307 307 307 308 305 303 308 308 308 307 308 309 309 309 313 317 316 317 322 326 323 322 321 320 319 319 319 320 325 331 332 336 344 346 350 358 359 357 355 353 350
302 301 307 309 308 307 307 306 304 309 308 307 307 306 308 309 309 309 314 315 316 320 320 320 323 324 324 321 319 319 322 321 321 325 336 336 338 343 349 354 356 356 355 354 352
302 302 309 308 308 307 307 305 309 308 307 307 307 307 308 307 308 310 315 316 318 319 322 321 320 320 324 324 323 321 321 327 327 325 329 335 337 338 339 345 349 354 355 354 353
303 303 309 307 306 308 304 309 308 308 308 306 306 306 308 307 308 308 312 316 314 315 321 323 319 320 321 324 325 325 324 323 329 325 322 331 337 336 335 335 340 347 351 353 353
304 306 308 306 306 307 309 310 310 308 307 307 306 307 307 306 307 307 311 315 315 312 317 321 322 318 319 321 323 325 327 324 323 326 327 324 331 332 333 334 336 341 348 352 353
303 304 307 306 305 304 310 308 307 307 307 307 307 307 307 306 307 307 308 315 315 311 313 316 320 319 319 320 321 324 325 328 327 327 329 326 328 331 336 335 335 338 343 350 352
303 309 306 306 305 307 311 307 307 307 308 307 307 307 307 307 307 308 307 313 312 310 313 314 314 317 318 323 324 324 326 328 328 328 327 327 328 329 333 338 336 337 340 344 350
303 309 306 306 310 306 309 308 307 308 307 307 307 307 307 306 306 308 308 310 311 310 310 314 316 317 317 320 320 320 324 326 332 333 331 330 327 328 332 334 335 336 337 341 346
305 305 305 306 311 310 308 308 308 309 309 309 308 306 306 307 307 309 311 311 311 310 310 313 315 314 311 318 317 321 319 320 323 326 333 330 328 329 331 331 330 331 333 336 345
306 309 307 305 304 307 306 309 309 308 310 310 309 307 307 307 308 308 310 311 311 310 313 312 312 310 313 314 314 317 316 317 320 331 332 334 332 330 329 332 331 330 330 328 334
305 307 304 309 308 308 307 307 309 309 310 309 310 310 310 309 308 308 308 310 311 311 313 311 310 309 308 309 311 312 313 314 318 323 329 332 332 334 333 333 333 328 335 340 338
308 308 305 307 306 308 308 308 309 310 308 309 310 311 312 313 309 308 307 308 310 312 312 311 309 309 309 308 312 314 314 314 316 319 320 322 326 326 339 341 341 347 348 349 349
303 304 307 308 309 309 310 310 310 309 309 308 310 309 310 308 309 309 309 309 307 309 312 311 311 309 307 311 314 317 316 316 319 322 323 327 327 331 339 348 344 344 343 345 347

GFSSW_925_thetae_054.txt.gz
Theta_e
302 302 303 305 306 306 305 303 305 307 309 307 310 313 314 313 315 317 316 318 315 328 346 343 345 345 346 350 353 352 357 361 361 361 362 356 358 356 354 353 351 350 351 350 348
302 302 302 304 307 307 306 304 305 309 309 307 311 314 314 313 317 317 316 314 313 327 343 343 345 343 347 351 355 356 361 358 353 354 355 356 357 359 360 355 353 350 348 348 347
301 301 302 303 307 307 307 304 305 309 308 308 313 311 310 315 320 322 319 319 314 330 336 338 339 341 343 348 355 357 360 354 352 351 353 356 357 358 360 359 354 354 352 349 348
301 301 301 302 306 306 305 305 307 308 308 313 313 310 311 318 324 318 321 321 317 324 330 332 337 338 339 346 348 355 353 355 352 352 351 353 355 358 358 358 354 351 350 350 349
301 301 301 302 306 305 305 307 308 307 309 314 312 311 318 319 314 317 327 329 321 332 332 333 335 334 334 338 342 350 352 353 353 351 352 352 354 354 357 355 352 351 349 349 348
301 301 301 302 305 306 306 307 306 307 313 314 311 312 319 316 316 320 327 326 322 329 333 329 330 330 332 335 337 342 345 355 352 352 352 354 353 351 355 353 353 352 351 349 347
301 301 301 302 305 306 307 306 306 308 314 314 316 318 319 318 316 322 327 326 327 325 329 326 330 331 327 332 335 338 347 347 349 349 349 350 353 354 355 354 355 354 352 348 347
301 300 301 303 306 306 307 307 308 314 310 317 318 321 319 315 315 319 324 326 331 327 327 329 326 330 326 328 326 330 339 351 351 345 346 349 354 356 354 355 356 354 352 349 347
300 300 301 306 307 306 307 309 313 310 314 318 322 320 315 312 312 312 314 325 331 323 326 328 326 330 330 325 324 326 333 342 349 347 348 351 354 358 353 355 356 355 352 350 349
300 300 301 309 307 307 307 308 307 319 319 320 318 318 313 313 313 312 317 324 326 325 321 322 325 326 327 325 326 329 329 335 343 351 351 352 353 357 353 354 356 355 353 351 349
300 300 302 310 307 308 311 310 318 314 312 312 312 312 312 312 312 315 323 324 324 327 322 321 325 324 323 324 325 329 332 333 346 349 351 352 352 358 355 355 356 355 353 351 350
300 301 302 309 307 308 310 313 311 311 313 310 310 311 310 310 314 314 320 326 324 328 323 321 321 324 323 323 324 326 333 336 339 345 349 351 352 352 358 356 355 354 353 351 350
303 301 302 308 307 310 310 310 310 310 313 311 311 311 311 312 313 313 318 322 326 324 323 323 323 321 321 323 323 324 326 332 337 339 342 349 353 351 356 357 356 353 351 350 350
305 302 302 308 309 310 311 310 310 310 314 313 312 311 312 312 313 312 316 318 322 327 325 323 323 321 321 322 322 323 321 323 331 336 347 347 355 351 352 359 358 357 353 350 348
306 304 302 309 312 313 311 310 308 309 312 311 311 310 312 313 312 312 315 319 319 321 327 326 325 324 323 323 322 323 322 321 323 333 339 342 351 350 349 356 359 358 356 353 350
306 304 304 312 311 310 310 309 307 313 313 311 310 310 312 312 311 313 315 317 319 320 321 324 326 326 326 324 323 322 322 322 323 323 334 340 344 348 349 349 353 355 355 354 353
307 303 308 310 312 310 310 310 313 313 311 311 311 310 311 311 311 313 315 316 317 318 319 321 321 324 326 326 326 324 324 327 326 323 323 332 339 343 342 345 347 351 354 354 354
306 307 308 310 309 309 310 313 315 312 312 310 310 310 311 310 311 310 312 315 316 317 317 321 321 320 324 327 327 326 326 327 330 326 323 323 332 339 339 339 342 346 350 353 353
305 309 311 310 308 309 314 316 315 312 310 310 310 311 311 310 310 310 312 313 316 315 316 319 319 322 322 323 327 328 329 326 327 328 329 325 323 327 335 338 339 340 344 351 352
307 311 311 309 306 309 316 313 313 310 309 310 311 311 312 311 311 311 311 314 315 313 314 318 319 320 322 323 324 327 328 329 328 331 332 329 328 325 334 337 338 339 340 345 349
308 315 310 309 308 314 317 314 311 310 310 310 311 311 311 311 311 311 311 312 314 312 312 314 314 317 319 322 322 325 327 328 329 329 332 332 329 327 329 332 337 337 339 341 347
310 314 309 310 314 313 315 312 307 311 310 310 310 311 311 311 311 311 311 310 312 310 310 312 313 316 315 319 324 324 327 327 331 334 331 332 331 328 328 329 333 336 338 340 342
312 312 310 312 317 316 313 312 311 312 312 312 312 310 310 311 311 310 310 310 311 309 310 313 312 314 313 313 316 321 325 327 327 330 334 334 333 330 329 332 331 334 336 339 341
312 317 313 312 312 312 313 313 313 310 312 312 312 311 311 311 310 310 310 311 311 309 313 312 310 312 311 314 314 319 322 323 325 330 331 333 335 332 332 331 333 334 335 335 339
311 312 310 313 311 311 311 311 310 311 311 311 312 312 311 312 311 310 310 310 311 310 313 312 312 311 310 310 309 312 314 317 320 325 330 330 334 334 332 330 331 333 334 336 335
314 313 311 311 311 312 311 312 312 311 311 310 312 311 312 315 313 313 310 310 311 311 312 312 311 309 310 309 308 308 311 315 317 319 322 327 329 331 333 336 340 337 342 344 342
309 308 311 309 310 310 311 311 311 311 310 310 310 310 310 311 311 311 313 312 312 312 314 313 312 311 310 309 308 312 313 317 318 319 321 326 328 331 334 337 344 345 345 345 346

GFSSW_925_thetae_060.txt.gz
Theta_e
301 301 301 301 302 303 306 306 305 304 306 308 308 308 311 310 309 317 318 321 320 318 320 331 337 345 346 348 347 350 367 369 364 361 363 357 357 358 359 359 357 355 354 350 347
301 301 301 301 301 303 306 306 306 307 307 308 307 311 311 310 318 320 321 319 320 316 328 337 339 344 347 348 347 354 367 365 358 357 362 360 357 360 359 357 356 357 353 350 347
301 301 301 301 301 304 305 306 306 306 307 306 308 313 311 315 324 326 321 319 316 317 337 336 338 343 346 346 349 351 360 360 356 355 355 356 358 357 358 359 357 359 354 350 346
301 301 300 301 302 306 305 306 306 306 306 306 311 313 311 319 333 326 319 318 315 321 336 340 340 343 345 347 346 352 352 354 352 352 352 359 352 351 357 361 353 355 351 350 348
301 301 300 301 302 308 306 306 307 307 306 309 314 311 317 324 326 323 323 319 320 324 334 342 340 341 342 342 344 347 349 351 351 353 352 354 357 356 362 356 354 353 351 350 348
301 300 300 301 304 309 307 306 307 308 310 313 312 312 320 329 320 325 328 333 324 320 334 340 338 338 338 338 339 343 343 347 353 353 353 352 355 354 359 353 356 353 352 350 348
300 301 301 301 306 309 306 307 307 311 311 312 316 318 328 326 319 324 327 332 326 319 331 337 335 335 336 334 333 335 341 344 352 353 357 354 358 355 357 358 356 354 352 351 349
301 302 303 301 306 308 307 308 308 311 308 312 317 324 331 317 317 322 328 327 326 321 327 330 332 332 333 332 331 333 338 342 348 355 352 356 361 358 358 359 357 354 353 352 349
305 306 305 302 306 307 307 309 308 309 313 315 325 329 329 316 317 320 327 328 326 327 330 332 331 331 330 333 332 331 336 341 345 355 354 352 361 354 355 357 356 355 353 352 351
307 308 307 303 307 307 309 312 313 312 322 322 323 324 321 318 318 317 319 328 330 328 329 331 330 330 331 332 334 331 333 335 343 352 353 352 358 358 355 354 356 354 354 353 350
307 307 308 305 307 308 309 317 321 325 323 321 321 320 318 317 317 319 320 327 332 330 332 331 333 334 332 330 332 329 329 332 333 347 353 351 356 354 347 351 355 355 355 354 352
307 307 307 307 306 310 310 318 316 316 318 317 316 316 316 317 319 323 324 328 333 331 328 332 334 332 327 330 331 332 330 329 333 343 352 357 357 354 347 348 352 354 353 354 352
307 307 307 306 306 310 316 316 315 315 316 319 316 317 316 317 318 320 325 326 328 329 330 328 327 327 328 328 329 328 328 328 332 338 347 348 360 354 348 353 357 352 352 352 353
307 307 307 304 310 316 317 315 315 314 318 318 315 316 315 316 317 317 318 323 326 328 327 329 328 327 326 328 328 328 327 326 328 334 341 349 362 360 357 358 361 353 352 351 352
307 307 307 302 310 317 316 315 314 314 319 317 316 314 316 316 317 317 317 320 323 326 327 327 329 328 328 326 327 328 328 328 326 327 332 339 348 354 363 363 354 349 352 350 353
307 307 305 310 311 315 315 315 314 316 316 316 316 314 315 316 316 317 317 318 320 322 323 324 326 326 326 326 326 326 326 328 328 326 327 330 339 343 358 354 353 353 350 352 351
307 306 305 311 317 315 315 317 316 316 318 316 315 315 316 316 315 316 317 318 317 319 318 319 322 325 327 326 326 326 326 329 329 328 327 325 328 340 346 353 352 351 353 355 352
308 308 312 313 314 314 316 319 318 319 317 316 315 315 315 316 316 316 316 317 318 318 319 321 321 319 322 327 327 326 327 329 332 331 328 329 326 328 334 342 352 352 352 352 354
309 314 315 316 314 314 318 320 320 319 317 316 315 314 315 315 315 316 316 316 317 320 320 318 318 320 323 322 324 328 329 326 328 329 332 330 328 327 329 335 347 350 351 353 348
311 317 317 315 315 315 318 320 320 317 316 316 315 316 317 316 316 316 315 318 317 319 318 318 320 320 321 322 323 323 326 329 330 332 335 331 335 330 331 333 340 350 349 350 348
314 321 317 317 315 318 320 321 318 316 316 316 317 317 318 317 317 317 317 317 317 317 317 316 317 318 319 322 322 323 325 326 328 331 333 333 333 335 337 332 337 348 350 348 347
320 321 317 317 320 321 322 319 311 317 317 317 317 317 317 317 318 318 318 317 316 316 316 316 315 317 319 320 321 322 324 324 329 333 333 332 331 332 334 333 332 334 340 350 350
322 320 317 318 322 322 320 318 317 318 317 317 318 317 317 317 317 317 317 317 315 314 315 315 316 317 317 318 318 320 321 322 323 324 333 335 332 331 333 335 333 332 332 350 347
321 322 320 318 319 319 320 319 318 315 316 315 316 316 316 317 316 317 316 315 315 314 314 312 314 317 318 318 317 318 319 319 321 324 324 326 331 335 333 334 334 333 335 337 349
320 318 317 319 319 318 318 318 317 317 315 315 316 315 316 317 316 315 315 316 315 315 313 313 313 314 314 314 314 315 316 317 319 323 327 326 328 331 335 337 337 338 340 338 339
319 320 318 317 316 318 316 316 315 315 315 317 316 315 314 315 315 316 315 315 316 316 315 315 314 314 315 315 315 315 315 315 317 320 323 325 329 330 331 335 335 338 342 349 341
316 316 317 313 315 316 315 315 315 314 314 313 313 314 314 314 313 313 313 313 313 316 316 317 319 320 319 316 317 316 314 314 315 316 320 324 326 327 327 331 336 337 338 348 351

GFSSW_925_thetae_063.txt.gz
Theta_e
301 301 301 301 301 302 304 306 306 306 307 307 307 307 311 311 309 314 317 316 316 320 322 327 329 334 350 351 351 351 361 368 365 363 357 357 358 355 358 359 355 354 351 348 347
301 301 300 300 301 302 306 305 306 306 306 306 306 307 313 311 314 318 316 317 321 319 316 329 334 336 348 349 352 352 363 360 354 358 356 357 356 354 355 357 361 355 349 348 347
301 301 301 301 301 303 308 306 306 306 306 306 306 311 312 314 322 325 316 321 319 320 317 333 335 339 347 348 347 347 356 360 358 356 356 360 359 356 360 360 361 356 351 347 347
301 301 301 301 301 304 309 307 306 306 307 306 307 313 311 318 333 325 322 322 320 317 320 333 337 338 345 346 345 350 350 358 356 355 356 359 352 353 357 359 356 352 349 346 346
301 301 301 302 301 304 308 307 306 307 308 309 312 312 316 322 324 321 322 318 317 316 320 336 342 339 344 342 343 346 349 353 352 351 355 354 355 357 355 352 355 352 348 347 345
301 303 303 303 302 304 307 306 307 307 311 311 311 311 317 327 321 326 330 320 321 319 325 334 341 338 339 340 339 340 341 348 350 354 356 358 357 355 350 352 357 353 348 346 344
303 306 307 307 303 303 307 306 307 308 311 310 315 316 324 326 320 322 328 331 323 320 323 332 339 339 335 336 335 331 333 335 353 354 356 355 362 356 356 355 356 353 349 346 344
306 307 307 308 305 304 307 307 308 308 311 311 317 322 329 323 318 320 326 332 328 322 322 331 336 336 331 331 333 330 330 334 338 354 355 356 365 356 352 355 357 353 350 347 345
307 307 307 308 307 304 307 308 310 309 310 315 321 324 331 317 316 318 325 328 329 323 319 323 326 330 330 330 330 329 328 332 335 351 356 357 365 359 350 358 358 352 351 349 346
307 307 308 307 308 305 308 310 313 313 318 322 322 324 325 319 317 317 320 325 325 321 322 325 330 329 327 326 331 331 328 328 333 350 355 356 366 363 360 361 357 353 353 350 349
307 308 308 307 307 304 307 310 318 318 318 326 324 325 318 317 318 317 319 326 328 326 327 328 329 329 327 327 328 329 331 328 329 336 353 357 365 364 350 346 352 355 352 350 347
308 308 307 307 307 305 306 314 314 314 315 317 321 317 316 317 318 321 320 323 331 330 329 330 329 329 330 330 330 328 330 330 329 327 351 356 362 359 350 353 355 352 352 351 348
308 308 307 307 306 308 311 315 315 315 314 316 317 315 314 316 317 322 323 323 330 333 327 328 331 331 332 331 327 327 328 327 327 327 351 355 358 356 353 353 355 355 352 350 348
307 307 307 307 309 310 315 316 315 315 314 318 315 315 315 315 315 319 319 320 325 328 329 327 326 327 330 329 326 324 325 326 325 324 327 352 364 356 353 356 357 356 351 348 348
307 307 307 305 304 310 315 315 314 314 318 317 315 314 314 314 315 316 317 318 322 324 325 325 327 328 328 325 324 325 326 326 326 323 322 323 329 360 354 356 356 356 354 350 348
307 308 307 312 311 316 317 315 315 315 319 316 315 314 314 314 315 317 317 316 318 319 321 322 323 324 326 327 326 325 324 324 324 323 324 322 324 340 355 353 354 351 349 350 347
308 309 307 306 315 315 315 315 315 316 317 315 314 313 313 314 315 315 316 316 315 316 317 317 319 320 322 325 323 324 323 323 325 325 325 322 322 320 353 352 347 350 350 352 343
310 310 309 312 312 315 315 316 320 318 316 316 315 315 315 315 316 315 315 314 317 316 315 316 319 316 321 323 326 324 321 322 328 328 326 324 324 323 344 354 347 349 350 347 347
311 314 315 316 316 315 315 320 318 317 316 315 315 314 314 315 314 315 316 314 316 317 318 317 318 318 319 319 321 324 325 321 322 323 324 326 326 324 324 350 354 349 345 345 354
312 315 319 317 316 314 316 319 317 316 316 316 316 317 317 316 314 314 314 316 318 317 315 316 315 316 317 317 319 318 321 323 322 324 326 326 326 328 328 325 348 349 349 353 352
315 321 318 318 316 317 320 320 318 317 317 316 316 317 317 317 317 317 317 315 316 316 315 315 314 314 315 317 317 319 319 320 319 323 325 326 326 325 328 329 346 347 350 352 347
318 323 317 318 320 322 320 318 313 318 318 317 317 317 317 317 317 318 318 317 315 314 315 314 312 313 314 314 315 315 316 319 321 322 324 328 329 327 326 328 335 347 348 350 344
319 321 317 318 322 321 320 317 315 316 316 316 317 316 316 316 317 317 317 316 314 314 315 312 313 314 315 313 315 316 316 316 318 318 320 324 326 328 330 330 331 336 344 348 346
319 321 319 317 317 318 319 318 316 316 315 315 316 316 316 316 315 317 316 316 315 315 316 313 311 312 312 313 313 314 314 314 315 316 318 320 322 321 330 330 330 333 344 347 346
320 318 318 317 317 317 317 317 316 316 315 315 316 315 314 315 315 316 315 315 316 318 315 312 312 312 310 312 313 313 313 313 314 315 317 318 320 325 327 327 330 333 341 346 348
318 319 318 316 316 316 316 316 315 315 314 314 315 314 313 314 314 314 313 313 313 313 316 314 316 315 316 313 313 314 315 316 314 314 315 316 318 322 323 323 327 329 335 343 346
317 318 317 314 315 315 315 315 315 315 315 314 313 314 314 313 312 311 311 311 310 311 313 316 317 318 317 316 316 317 316 315 315 314 313 314 315 321 327 323 326 342 343 343 340

GFSSW_925_thetae_066.txt.gz
Theta_e
301 301 301 301 301 301 304 307 305 305 306 306 306 306 306 312 310 312 316 310 315 328 328 323 331 333 349 351 350 350 358 366 361 362 363 359 359 358 357 356 353 353 349 346 347
301 301 301 301 301 301 304 308 306 306 306 306 306 306 310 311 313 316 311 311 316 322 325 327 327 329 336 351 353 357 362 362 355 358 359 358 357 360 360 358 356 354 348 346 347
301 301 301 302 303 302 304 308 307 305 306 307 306 307 312 312 321 323 319 316 317 319 316 328 330 333 340 343 349 354 358 357 356 356 355 358 359 355 357 362 360 357 349 345 345
300 303 304 305 305 303 303 307 306 306 307 308 308 311 310 316 332 326 317 319 319 319 317 322 331 336 342 348 347 350 348 348 356 356 358 354 355 356 359 360 355 354 347 346 343
302 305 306 307 307 305 303 306 306 306 307 311 311 312 316 321 316 325 321 320 319 318 318 330 338 337 339 342 344 344 344 346 352 356 357 355 357 357 355 354 354 351 347 346 344
305 307 307 307 307 307 304 305 306 307 307 311 312 311 315 320 323 323 322 319 318 316 318 326 338 339 339 342 341 340 339 339 354 357 356 357 356 355 350 351 354 354 348 347 343
307 307 307 308 307 307 306 306 307 308 308 310 314 318 320 318 322 325 328 323 318 316 320 321 332 336 338 335 335 335 331 332 355 357 358 356 361 358 355 357 358 353 348 347 342
307 307 308 308 308 307 306 306 308 308 308 310 317 321 323 328 324 323 330 329 321 319 317 324 330 332 337 333 329 330 327 330 352 355 356 355 365 357 353 356 358 353 349 347 342
307 307 308 308 307 306 306 306 309 311 309 312 320 322 327 321 314 315 323 331 328 324 320 320 323 323 326 329 326 325 330 328 331 354 356 357 363 356 356 357 357 354 349 347 344
308 308 308 307 306 306 306 308 313 313 316 321 322 322 321 324 317 318 318 330 325 322 319 319 319 326 325 324 329 330 329 326 327 345 356 359 363 355 356 359 358 355 350 347 345
308 308 307 306 306 306 306 308 310 314 319 320 322 321 321 318 317 316 317 321 322 320 321 325 327 329 328 325 325 326 327 328 328 328 357 360 365 358 358 353 356 355 353 349 345
308 307 306 307 307 306 307 310 313 313 311 314 319 320 321 316 316 316 318 321 326 326 324 326 327 326 326 326 327 328 327 327 326 333 347 362 365 357 359 353 354 355 352 351 348
307 306 307 308 306 311 308 313 316 315 310 312 313 318 313 314 315 320 317 318 329 329 327 328 328 328 329 329 330 328 327 328 326 345 358 360 365 364 358 350 353 354 353 351 349
306 307 307 306 310 305 312 315 315 313 308 313 314 314 313 313 314 320 320 320 324 330 331 325 326 327 329 330 329 326 323 325 325 322 344 355 367 359 353 351 358 357 355 351 348
307 307 308 308 304 308 314 315 315 311 316 316 312 314 312 311 313 315 316 317 319 321 322 324 325 326 326 325 326 327 324 323 324 323 321 334 339 344 353 357 360 359 355 353 350
309 309 309 312 310 315 314 315 313 310 317 314 313 313 312 313 314 315 316 315 315 317 317 318 320 322 324 325 324 323 323 320 319 319 322 321 320 333 356 354 358 357 351 352 350
311 311 310 305 311 312 314 311 312 313 314 313 312 311 311 311 313 314 315 314 313 313 314 315 316 316 319 321 321 322 317 320 322 321 323 320 320 318 350 349 352 357 354 351 348
312 312 313 312 312 313 314 313 317 315 314 312 312 311 311 312 313 314 313 311 314 314 311 313 316 315 316 318 323 323 317 319 324 323 324 321 323 322 327 345 347 352 349 346 347
314 314 315 316 316 315 310 314 313 313 315 314 312 312 313 313 312 313 312 313 316 313 313 314 316 316 315 314 316 317 322 318 319 319 320 321 322 323 323 340 345 345 347 348 348
315 315 316 318 316 313 310 316 315 315 315 313 314 314 314 315 314 311 313 313 316 314 311 314 315 313 315 314 313 312 316 319 316 322 324 322 323 323 328 336 348 344 349 348 347
317 315 317 317 316 310 315 318 316 315 315 315 314 314 314 315 314 313 314 314 314 313 310 310 309 312 312 311 313 312 311 312 314 317 321 322 322 324 332 332 336 345 347 344 350
313 314 316 317 316 313 313 314 314 313 313 313 314 314 314 313 314 314 313 314 313 313 313 310 308 311 313 312 313 313 311 308 313 317 318 320 323 327 329 330 332 344 343 344 349
312 314 316 316 314 313 314 314 314 314 314 313 313 313 312 312 314 314 314 314 313 312 312 310 308 310 311 310 309 311 311 310 307 310 316 319 319 323 326 328 336 344 346 345 346
312 312 310 308 309 313 314 314 314 315 313 314 313 311 311 311 310 313 313 314 314 315 318 310 305 308 310 311 310 310 311 311 308 309 311 315 315 316 320 324 335 342 345 346 346
311 313 311 311 311 310 312 313 315 314 312 311 312 313 310 311 310 311 311 310 312 315 312 307 309 310 309 311 311 311 312 313 313 312 311 313 314 317 323 333 342 341 342 344 343
312 312 309 309 309 311 310 311 314 313 312 312 312 312 310 311 312 312 310 309 310 308 310 309 313 313 314 314 314 315 314 315 314 314 314 312 313 322 325 332 336 338 338 339 340
315 315 307 308 309 309 310 312 313 312 312 311 312 311 311 311 310 309 307 307 308 309 307 312 313 313 315 313 314 314 313 314 315 318 321 314 321 321 323 328 331 330 331 332 335

GFSSW_925_thetae_069.txt.gz
Theta_e
301 301 302 302 303 302 302 305 307 306 305 306 306 305 305 310 311 313 314 309 313 321 322 330 335 335 348 350 350 350 362 362 360 362 364 358 359 358 355 352 346 353 348 347 350
301 302 304 304 305 305 303 304 306 306 305 306 306 305 307 311 314 315 312 309 315 324 330 334 332 330 345 352 353 357 363 360 354 357 362 359 359 359 356 356 355 349 346 348 349
302 305 306 306 307 306 304 304 306 305 306 306 307 307 312 311 320 320 317 310 324 326 327 324 327 331 336 340 353 355 359 355 355 356 357 358 359 356 357 360 355 351 349 348 348
303 306 307 307 307 307 306 305 305 306 306 307 309 310 310 316 330 326 318 314 318 323 317 325 330 334 340 346 345 352 349 354 352 356 357 359 356 358 357 359 352 351 347 347 347
305 307 307 307 308 307 307 306 305 306 307 308 310 311 315 319 315 325 312 315 319 319 317 324 334 334 340 341 344 348 346 342 343 354 356 353 356 358 359 357 354 349 347 346 346
307 307 308 307 308 308 307 306 305 306 307 309 310 312 314 313 319 323 315 319 319 318 317 330 333 335 337 338 342 340 341 339 337 355 355 356 356 354 355 353 355 354 347 344 345
307 307 307 307 308 307 306 306 305 306 308 310 314 317 318 313 323 322 320 320 320 318 315 321 333 335 337 340 335 338 340 331 356 357 359 355 358 358 352 351 356 353 347 344 344
307 307 308 307 307 306 306 306 306 307 309 310 317 320 320 323 323 322 321 322 319 317 318 318 329 329 335 335 328 329 325 327 358 357 356 356 365 356 356 353 354 353 348 347 344
307 307 307 307 306 306 306 305 308 310 309 313 320 321 326 324 323 324 325 329 320 318 317 322 326 324 324 327 325 324 330 328 355 354 358 357 362 357 355 357 357 353 349 348 344
307 307 306 306 306 307 306 310 312 311 318 320 321 321 318 320 316 314 320 329 324 318 317 318 317 321 323 325 331 331 329 326 328 354 356 359 359 358 357 357 358 354 350 348 344
306 306 306 307 308 307 306 310 307 310 320 314 315 317 320 319 316 315 317 326 319 318 318 318 324 327 328 325 327 326 326 327 326 330 356 357 361 357 357 357 358 355 350 348 346
306 306 307 308 307 306 308 308 312 311 310 313 318 319 320 319 315 316 320 323 322 323 322 323 327 326 327 326 326 326 328 327 326 333 338 350 363 355 358 358 357 355 351 348 346
306 307 308 309 306 310 305 312 313 312 309 310 313 315 315 315 314 315 315 319 325 326 325 325 327 326 327 328 328 327 327 327 328 338 355 359 362 358 356 353 350 352 353 349 346
308 309 309 306 308 307 310 313 313 311 307 309 312 315 313 311 313 318 318 320 325 327 326 326 326 329 328 328 327 329 325 327 325 321 323 352 360 364 358 358 352 353 355 352 348
309 310 310 309 310 310 314 313 314 309 315 314 312 313 310 311 313 315 315 316 320 323 327 331 325 325 325 326 326 328 326 323 323 321 335 341 337 342 355 357 355 354 354 353 349
311 311 310 309 308 313 311 314 312 311 317 313 312 311 311 311 313 314 314 314 314 316 316 317 318 321 323 323 323 324 322 317 316 316 320 322 321 330 358 354 353 351 355 353 350
312 312 312 308 310 309 313 311 310 312 313 312 312 311 310 311 313 314 314 312 313 314 315 315 315 313 315 319 320 318 317 319 321 320 321 318 319 319 339 350 348 350 354 353 349
314 313 314 315 314 314 313 309 314 315 314 312 310 310 310 310 312 312 310 310 313 311 309 312 315 315 314 315 317 320 317 318 323 321 323 318 322 321 320 330 344 347 349 352 349
316 315 316 317 316 315 309 311 314 313 314 313 313 313 313 313 311 312 312 312 312 311 313 313 315 313 314 312 314 316 318 317 316 316 319 319 320 321 328 334 343 347 350 352 348
318 317 316 315 316 312 312 314 314 313 313 312 313 313 314 314 314 309 312 312 314 311 310 312 314 312 313 312 312 311 312 316 314 321 323 320 321 322 330 331 344 344 349 350 349
317 311 315 315 314 309 315 315 315 314 314 313 313 313 313 313 313 313 312 313 312 312 308 308 309 312 310 311 312 310 309 308 310 314 319 321 321 326 329 328 330 338 342 344 344
313 312 315 315 311 308 310 312 313 314 312 312 312 312 312 311 311 311 313 312 312 311 311 308 305 310 312 309 310 308 309 305 309 312 313 317 324 318 319 326 340 345 346 343 344
312 312 315 315 313 311 311 313 313 313 312 312 312 311 310 310 313 312 313 313 314 311 312 310 306 310 310 308 307 309 309 308 304 305 310 315 316 317 323 341 340 342 343 345 345
309 311 307 306 305 311 312 312 314 312 312 311 312 310 309 310 308 312 312 312 311 316 318 309 304 308 311 310 308 310 310 309 307 309 310 310 311 323 332 341 338 337 338 340 341
307 311 308 309 309 309 310 312 314 312 310 309 312 311 310 311 311 311 310 309 309 311 310 305 308 310 310 312 313 313 313 313 313 311 312 311 312 322 323 333 333 331 333 337 339
311 312 305 306 306 309 308 311 313 313 310 311 311 311 309 311 311 312 310 309 309 308 307 308 312 313 313 313 312 313 312 312 313 313 313 316 315 319 321 327 328 327 329 332 332
314 312 306 307 307 308 309 312 311 311 311 311 311 310 311 311 309 307 306 307 308 310 307 310 310 310 314 311 311 311 312 312 318 321 320 316 320 319 320 323 322 325 325 328 330

GFSSW_925_thetae_072.txt.gz
Theta_e
301 303 305 305 306 306 305 303 305 306 305 305 306 306 305 307 311 313 313 309 312 318 327 336 338 343 347 347 349 351 363 364 360 361 363 358 358 357 353 348 350 351 349 349 351
302 304 306 307 308 307 307 305 305 305 305 306 307 306 307 311 313 315 310 309 312 320 334 335 335 336 348 351 351 357 362 358 354 356 360 360 358 357 354 351 352 352 349 351 350
304 306 307 308 308 308 307 306 305 305 305 306 307 308 310 310 319 320 320 309 321 324 327 325 330 331 339 341 353 357 360 354 354 356 356 359 358 356 357 360 352 354 353 349 348
306 307 308 308 308 308 307 306 305 305 306 307 309 310 310 315 324 326 316 311 328 329 324 326 328 335 341 346 344 354 352 351 353 356 357 359 356 358 356 358 348 349 349 349 348
307 307 308 308 307 307 307 306 306 305 306 307 309 311 313 316 315 323 311 319 330 324 323 324 332 334 341 341 343 351 349 345 343 354 356 356 357 359 359 352 348 348 349 349 348
307 308 308 308 307 307 306 306 306 305 306 307 310 315 314 309 316 319 312 321 325 325 317 326 330 333 336 337 340 341 342 340 337 349 354 355 357 356 359 351 351 350 348 347 348
308 308 307 307 307 306 306 306 306 305 306 307 313 316 316 309 324 317 314 318 320 318 314 326 332 335 336 340 335 335 335 333 356 355 355 354 359 357 356 356 357 353 349 347 346
308 308 307 306 306 306 306 306 306 306 307 309 316 320 320 321 324 318 319 320 319 318 318 319 330 329 332 333 326 326 325 327 356 356 355 355 362 357 355 355 357 353 349 347 346
306 306 306 305 306 307 307 307 311 309 309 314 319 320 325 322 325 322 319 322 319 317 318 318 327 329 322 326 326 324 330 327 351 355 357 356 360 356 356 353 356 354 348 345 346
305 305 305 307 307 308 306 312 313 312 317 319 321 320 316 320 317 323 323 321 320 315 316 318 318 319 321 324 334 331 328 326 327 355 357 359 358 357 358 357 354 351 347 345 345
307 306 308 308 308 307 307 313 305 309 320 313 313 314 317 319 314 319 327 322 317 316 315 316 320 322 324 325 326 326 326 327 325 335 355 356 356 358 356 359 357 351 349 346 344
307 308 309 309 307 306 308 308 311 310 310 313 317 317 317 319 315 312 327 322 320 318 319 322 326 323 325 326 326 326 327 327 326 325 336 344 359 355 357 358 356 355 350 348 344
309 310 309 308 308 308 305 311 311 310 309 309 313 315 314 316 315 312 321 320 320 322 322 325 327 325 326 327 327 326 326 326 329 325 353 356 360 358 353 355 350 352 351 348 346
311 310 310 306 307 310 309 311 312 310 306 308 311 313 311 311 312 315 317 320 325 325 323 325 325 327 327 328 326 329 325 328 329 321 325 350 358 356 355 357 352 350 352 351 345
311 311 311 307 312 310 312 312 310 307 311 312 312 313 309 310 313 314 315 317 322 327 326 328 326 327 327 327 325 327 324 326 325 320 338 338 336 340 355 355 354 352 350 351 349
312 313 311 308 308 312 312 314 309 311 316 312 311 310 310 311 312 313 314 312 315 315 317 323 317 322 324 323 325 323 318 314 314 315 319 326 324 322 351 351 349 350 350 349 350
314 313 313 312 309 311 314 309 310 312 312 314 310 310 310 311 312 313 311 311 312 314 315 314 314 313 313 318 318 317 316 318 320 319 321 316 320 320 320 327 335 345 349 349 348
315 313 314 315 315 314 312 309 315 314 314 312 310 311 311 310 310 311 310 311 311 309 309 313 315 313 312 314 317 317 317 317 322 321 321 317 321 326 325 328 338 340 347 349 349
317 316 314 313 313 314 309 312 315 313 313 313 313 313 313 313 310 311 310 311 311 310 312 312 314 311 312 311 312 316 316 314 314 314 318 318 319 319 324 329 333 341 346 348 350
318 316 314 314 314 311 312 313 314 313 312 312 314 312 314 312 312 311 311 311 311 309 309 310 313 311 311 311 310 310 310 317 315 321 323 319 324 325 322 324 337 344 345 343 349
315 310 314 314 313 308 312 314 314 313 313 312 312 313 312 313 311 311 312 312 312 311 306 308 308 311 309 309 308 309 308 307 310 313 318 320 326 320 319 330 341 340 341 345 342
311 312 315 312 309 305 310 313 311 313 312 312 312 312 311 310 312 312 314 314 313 310 310 307 304 308 310 308 308 307 308 304 313 313 311 317 319 326 336 337 335 338 339 341 343
311 309 314 312 311 308 311 312 312 312 311 311 312 310 309 309 312 312 313 312 311 315 311 309 305 307 311 308 307 308 308 305 302 304 310 319 319 324 329 332 330 335 338 337 337
306 310 306 304 303 309 311 311 312 311 310 311 310 309 309 309 308 311 311 311 310 316 316 309 305 307 307 309 307 312 312 310 305 309 309 310 311 321 327 330 328 328 332 332 333
304 308 306 308 308 308 309 311 313 312 309 308 311 310 310 310 310 311 309 309 309 310 309 304 310 310 311 312 312 312 313 313 312 311 311 309 317 322 324 328 326 325 326 329 331
311 308 303 304 305 308 307 310 311 311 309 310 311 310 308 309 310 311 310 309 309 307 307 306 313 311 313 312 311 312 312 312 312 312 310 312 319 318 320 321 321 320 322 325 328
312 308 305 306 305 307 309 311 311 310 310 309 310 309 310 310 308 308 306 305 307 308 306 308 309 309 311 310 310 313 311 312 319 320 320 318 319 317 316 321 317 315 315 317 319

GFSSW_925_thetae_075.txt.gz
Theta_e
302 305 306 307 307 307 307 307 307 305 305 305 305 307 306 306 309 312 313 310 312 320 335 341 342 346 345 347 350 352 364 365 361 363 363 357 357 355 353 352 349 350 349 346 346
305 307 308 308 308 308 307 307 306 306 305 305 306 307 307 310 313 314 310 309 313 322 336 333 339 346 348 349 352 358 364 360 356 358 362 358 358 356 353 354 355 353 349 348 348
308 309 309 308 308 308 308 307 306 305 305 305 307 308 310 311 318 317 323 310 316 326 333 329 338 346 349 350 353 358 363 356 356 357 357 358 358 355 352 357 354 355 351 348 347
308 310 309 309 309 308 307 307 306 305 305 306 307 309 310 315 319 323 319 310 316 330 327 328 336 345 350 352 348 359 354 353 354 357 357 359 356 358 356 355 350 351 349 348 348
307 308 309 309 308 308 307 306 306 305 305 306 308 311 314 316 313 320 311 319 333 327 324 328 333 341 350 350 348 353 352 347 347 355 356 357 357 358 357 351 351 350 349 348 348
309 307 307 308 308 307 306 306 306 306 305 306 309 310 314 311 316 320 315 337 328 322 324 328 330 337 344 344 345 342 343 339 340 346 357 358 359 355 355 349 351 352 352 351 349
308 308 307 307 307 306 306 306 306 305 305 306 310 315 316 312 324 321 327 332 327 319 323 328 333 339 339 344 339 339 336 345 355 351 356 355 362 359 355 351 352 352 350 349 347
307 306 306 306 308 307 307 307 307 307 306 308 315 319 322 323 325 323 322 323 326 317 319 324 332 336 337 335 330 331 330 334 358 356 356 356 362 357 354 353 354 350 350 350 349
307 306 306 308 310 309 307 312 310 308 309 315 318 321 324 322 327 323 320 320 319 317 317 320 330 336 329 335 334 331 339 333 359 357 358 359 361 357 356 355 355 352 351 349 348
308 308 308 310 310 309 307 315 316 317 319 320 321 323 321 323 323 322 321 319 319 318 319 319 325 335 333 335 346 339 334 331 347 360 359 361 360 359 356 355 358 355 352 351 349
309 310 310 310 310 308 310 314 311 316 321 316 315 319 315 317 322 323 322 320 317 320 320 320 330 334 340 334 330 330 332 332 330 349 352 353 357 361 360 356 358 356 354 351 349
310 311 311 310 308 307 308 311 312 311 315 314 317 317 317 317 316 326 323 324 318 320 321 321 330 332 331 329 330 330 332 332 330 334 337 342 356 359 359 358 357 356 353 351 349
312 311 310 309 308 308 305 310 310 310 315 313 315 316 316 318 316 324 326 323 320 320 322 324 331 330 330 330 332 331 334 331 331 329 357 357 363 361 358 358 357 354 351 349 349
313 311 311 308 307 310 310 310 310 310 313 312 313 315 315 317 314 320 327 325 323 320 323 328 328 335 331 331 331 336 329 329 331 331 331 355 350 360 360 360 358 358 354 351 349
313 312 311 308 311 312 311 312 309 308 313 312 314 312 312 314 316 318 322 321 326 325 327 330 330 336 334 333 330 333 329 330 331 330 336 350 345 348 359 362 359 356 357 354 350
314 313 312 309 308 311 312 312 308 314 317 314 313 314 314 314 314 315 318 317 321 326 327 326 324 328 329 329 329 328 325 323 323 325 330 343 335 333 341 339 339 352 353 355 352
315 314 314 313 313 314 314 312 314 317 316 315 312 312 313 313 314 317 317 318 323 329 329 320 317 316 316 325 326 327 327 329 329 328 333 324 332 336 336 338 343 348 344 352 353
316 315 313 313 312 314 310 316 319 317 316 315 313 314 313 314 314 315 316 317 315 316 323 329 324 316 315 317 325 328 328 329 332 330 330 324 331 334 330 338 345 347 348 346 352
318 316 314 311 313 312 316 319 317 315 315 315 315 315 315 314 316 316 315 315 314 314 324 320 317 314 314 314 316 321 326 321 324 321 328 326 327 326 335 342 343 345 346 348 350
316 314 314 312 312 312 317 316 316 314 314 314 317 315 316 315 316 316 315 314 315 312 312 315 318 313 313 314 315 319 316 325 325 330 330 328 332 331 343 342 341 343 343 345 347
313 318 314 312 311 315 316 316 315 314 313 315 315 315 315 316 315 315 315 315 315 314 313 312 316 316 315 314 314 317 318 319 323 323 329 330 331 338 339 337 339 340 340 341 348
313 318 314 312 317 312 315 314 312 313 312 314 314 314 314 314 315 316 316 315 314 313 314 312 314 315 313 311 310 313 313 314 327 327 323 327 329 332 335 333 333 336 336 338 340
316 314 313 311 317 315 314 314 312 313 313 313 313 312 312 313 316 315 315 312 314 317 315 313 313 316 315 314 313 315 314 312 313 317 324 327 327 331 332 332 330 331 333 333 335
313 315 314 311 308 314 314 315 314 311 312 312 312 313 313 314 314 314 314 312 311 317 316 312 313 315 317 316 314 316 314 313 315 321 319 320 319 332 332 331 330 330 330 330 331
311 313 309 314 313 313 313 313 313 313 311 312 312 312 313 316 315 314 313 313 312 312 313 314 316 316 315 314 314 314 314 313 314 315 319 318 322 330 330 329 327 326 326 326 326
317 313 309 310 309 312 312 313 313 312 312 312 312 312 313 314 313 315 313 313 313 312 313 313 317 315 315 313 313 313 313 313 313 313 314 315 323 324 325 326 324 321 321 321 320
311 306 312 309 311 312 312 311 313 312 312 311 311 312 313 312 311 310 310 310 311 312 314 316 316 316 316 314 313 312 313 313 315 320 317 317 321 321 321 323 319 315 314 314 315

GFSSW_925_thetae_078.txt.gz
Theta_e
305 307 307 308 309 310 310 310 309 305 306 305 305 306 306 306 308 318 316 314 314 331 343 340 340 347 347 349 351 353 365 364 364 360 361 356 356 355 351 354 352 352 350 345 344
307 308 308 308 308 308 310 310 310 307 305 305 306 307 307 308 317 316 315 310 313 333 338 333 343 347 350 349 353 359 364 361 357 359 359 357 356 355 355 355 356 354 347 345 344
310 308 308 308 309 308 307 308 308 308 306 305 306 308 309 315 319 317 318 309 314 328 334 330 339 347 351 349 354 359 360 354 355 359 357 358 355 353 354 360 358 357 350 346 344
309 310 309 308 308 307 308 307 307 307 307 306 306 308 309 319 320 324 323 310 317 330 331 329 340 346 348 351 352 360 355 351 352 354 358 361 354 360 355 357 353 353 347 346 346
309 308 309 308 307 307 307 306 306 306 306 305 307 309 318 319 315 327 316 313 329 330 329 329 335 337 345 349 350 356 353 346 344 355 355 357 358 357 356 353 352 350 347 347 346
308 308 307 308 307 306 306 306 306 306 306 305 307 310 317 316 322 324 320 321 329 326 325 326 329 334 340 348 350 349 349 342 340 349 353 358 358 355 355 354 352 350 349 348 346
309 308 309 307 307 307 308 307 307 306 306 305 308 318 317 316 326 321 328 326 325 323 324 325 327 333 339 344 345 346 344 344 347 344 352 356 362 360 355 354 353 352 350 349 347
310 310 311 311 310 309 309 307 310 310 307 306 310 321 321 322 326 322 327 329 322 323 324 327 329 334 339 342 343 346 341 343 352 350 353 357 365 361 354 354 353 351 351 349 346
310 309 311 312 312 310 307 315 313 308 307 310 321 323 321 326 327 323 324 326 322 321 323 326 329 334 338 341 344 345 350 341 356 355 358 359 362 360 354 353 352 349 347 343 343
309 311 313 312 311 309 307 312 316 320 320 321 322 322 323 324 326 322 321 322 322 321 321 325 331 333 337 341 343 351 346 339 354 359 358 358 359 362 355 355 353 351 350 344 346
310 312 312 311 310 306 313 317 319 324 318 318 317 320 322 323 325 324 323 321 322 322 322 323 330 331 332 339 339 344 343 343 345 356 355 351 351 362 361 358 356 354 352 350 348
313 313 312 311 307 308 312 317 316 314 317 318 317 318 318 323 325 325 325 326 323 324 323 323 327 326 330 338 337 339 340 338 334 340 340 336 344 354 360 359 359 358 356 354 349
313 312 311 308 308 311 314 314 313 313 318 317 317 317 319 319 323 326 326 327 323 324 323 323 325 327 334 339 337 339 343 337 337 334 344 347 358 358 358 358 357 357 356 354 353
313 312 310 309 311 314 315 313 313 313 317 316 315 316 318 320 319 325 324 326 323 323 324 322 329 330 335 336 336 338 338 335 333 335 345 345 358 360 359 364 359 357 356 355 353
313 313 311 310 315 317 314 314 312 313 318 314 316 316 320 320 321 324 324 326 325 323 324 326 331 333 335 335 334 335 336 336 334 335 334 340 346 353 357 359 362 359 355 352 352
314 314 314 313 313 314 313 314 312 318 320 316 316 318 318 318 319 325 327 323 327 324 324 328 329 335 334 332 333 333 333 334 334 334 336 340 342 343 349 347 346 347 355 356 352
315 314 314 314 318 315 316 317 318 320 318 316 316 317 317 318 319 322 325 324 329 327 328 329 332 329 329 335 334 332 332 336 338 333 334 337 338 345 343 350 351 351 350 350 355
317 314 315 314 314 315 317 320 321 319 319 317 315 316 316 318 320 322 323 325 323 326 327 327 329 327 321 329 333 333 331 332 337 333 333 334 339 341 345 347 348 349 350 343 353
317 318 318 315 314 315 320 321 320 319 317 317 316 316 317 318 320 323 322 322 319 322 328 329 323 318 318 319 323 332 332 329 332 331 333 333 338 340 341 345 347 346 347 350 350
320 320 318 314 314 316 321 319 319 317 316 317 318 317 318 319 321 323 322 318 319 318 319 325 323 319 317 318 321 327 329 330 330 334 336 333 337 344 346 345 344 343 344 349 351
319 320 317 315 315 321 321 320 318 317 316 318 318 319 318 319 320 320 319 318 318 318 319 321 323 320 319 322 324 324 327 328 329 329 333 336 338 343 341 340 341 340 340 344 346
319 320 316 315 322 320 320 318 313 316 317 317 317 317 319 318 319 320 320 318 317 318 320 319 322 322 321 316 316 320 324 327 330 331 330 332 345 338 339 336 337 337 337 337 340
319 317 316 317 321 320 318 317 315 317 315 316 317 317 316 318 320 319 317 315 318 319 321 318 322 322 319 318 318 322 320 322 324 328 331 329 342 337 338 338 337 336 334 334 334
317 317 318 318 318 320 320 319 317 314 316 316 316 317 319 318 319 318 317 315 316 318 317 318 320 323 323 323 321 321 319 319 323 329 331 330 340 338 337 338 337 337 332 329 330
317 316 315 317 318 318 318 316 316 316 315 315 317 317 319 320 319 319 317 316 316 316 317 320 323 321 319 318 319 318 318 318 322 324 328 328 337 336 335 333 332 331 330 329 328
318 316 315 315 315 316 313 316 314 315 315 314 317 317 319 320 320 320 319 320 318 317 318 318 322 320 320 317 317 317 317 317 316 318 322 326 332 331 331 329 326 325 324 324 323
316 313 316 311 314 314 314 314 314 314 313 313 313 316 317 316 315 315 315 316 316 318 319 319 320 320 319 316 315 315 316 316 317 318 319 323 328 327 329 327 324 322 322 320 319

GFSSW_925_thetae_081.txt.gz
Theta_e
308 308 309 309 310 310 310 310 310 308 306 306 305 306 307 307 307 316 318 318 318 316 340 340 344 348 348 351 352 354 367 366 365 364 362 358 360 356 355 355 354 353 348 346 345
311 309 308 308 309 310 310 310 309 308 306 305 306 306 308 308 317 319 319 315 315 329 342 338 342 348 352 352 353 361 366 363 360 357 362 356 357 355 357 357 357 352 346 345 345
312 311 309 309 309 309 309 309 308 307 306 305 306 307 308 312 324 321 318 312 312 334 336 334 340 348 351 350 354 359 360 356 360 357 356 356 354 352 355 360 357 352 349 346 345
310 309 307 308 309 309 307 307 306 306 306 305 306 307 309 321 327 331 322 311 313 334 334 331 340 347 350 352 355 361 356 353 358 356 356 358 354 355 355 358 354 351 347 346 346
309 308 307 306 307 308 307 306 306 306 306 306 306 308 319 322 320 328 320 310 320 334 334 331 338 344 348 350 354 358 353 348 351 352 357 355 358 359 358 355 353 350 347 346 345
312 312 310 308 306 306 309 307 307 307 306 306 306 308 320 320 321 327 322 318 322 331 331 330 336 340 342 350 352 353 354 346 346 347 358 358 358 357 356 354 355 350 348 346 344
313 313 310 308 311 310 311 309 307 307 306 306 306 315 321 320 324 322 321 320 326 329 330 327 329 334 339 347 351 351 350 345 347 351 356 357 362 360 356 354 354 351 348 347 344
311 309 310 310 309 310 309 308 312 309 309 306 308 319 326 318 324 323 322 323 328 326 325 326 326 330 337 343 347 352 350 350 348 349 354 358 367 361 357 356 355 351 348 347 345
310 310 311 312 312 311 308 310 314 308 307 307 318 323 323 323 327 324 328 326 326 325 324 326 330 330 337 343 347 350 352 348 352 352 356 359 367 360 356 354 355 350 349 347 346
311 312 312 312 312 308 306 312 319 321 319 320 322 321 323 323 325 326 327 327 324 325 326 328 330 331 337 343 346 349 349 347 353 355 356 360 361 361 356 356 353 351 348 347 345
313 313 313 312 311 307 313 319 324 328 322 324 321 321 322 321 325 324 325 326 324 324 326 325 331 331 334 336 339 341 344 351 352 351 358 357 361 361 356 356 357 350 347 344 343
313 313 312 310 308 306 314 321 318 317 319 321 319 318 322 325 326 326 323 326 325 325 325 325 329 331 331 334 339 342 345 341 347 349 358 360 360 363 359 357 355 353 352 344 343
312 312 310 309 309 314 318 317 316 317 319 320 320 318 321 324 325 326 325 325 326 325 326 326 326 328 329 332 340 343 344 341 341 345 344 340 351 361 358 358 355 354 352 351 346
313 312 310 309 312 317 318 316 317 317 320 320 319 319 319 321 323 325 325 326 326 327 326 326 327 327 327 332 338 342 340 338 339 340 346 345 364 356 363 359 361 359 356 355 352
314 313 313 310 317 318 317 317 317 317 322 317 318 318 320 321 323 326 324 327 327 324 326 326 326 327 330 334 336 335 338 340 337 338 343 347 356 357 359 362 361 358 359 356 353
314 314 314 316 316 316 315 317 317 318 322 318 318 318 320 321 322 325 325 326 326 324 325 327 325 331 331 333 333 333 336 338 338 337 340 338 346 359 357 361 361 357 357 356 353
316 314 314 316 320 319 317 319 321 323 323 318 318 318 321 321 322 325 325 327 328 327 326 327 328 332 331 333 333 334 338 341 340 338 337 335 344 353 351 352 352 351 351 356 353
316 316 318 318 319 318 319 322 326 324 321 319 318 319 320 320 321 325 327 328 327 327 325 329 334 333 334 334 335 334 336 337 339 336 334 335 348 354 350 351 349 350 349 352 354
316 319 320 320 318 319 322 327 327 321 319 318 317 319 319 320 322 325 327 326 327 328 327 330 332 329 332 333 331 335 336 331 333 333 332 341 350 348 348 350 347 348 352 354 347
320 321 322 319 319 320 323 325 322 319 319 318 318 319 320 321 323 324 325 324 325 324 325 328 331 327 324 325 328 330 333 334 332 337 335 342 349 350 349 350 346 345 348 352 356
320 322 321 319 319 323 328 323 320 319 319 319 319 321 320 320 322 325 325 322 322 324 325 328 329 326 324 326 329 330 332 333 332 334 335 343 352 349 347 346 344 342 342 343 346
321 321 319 319 322 322 323 322 315 320 319 319 318 321 321 322 324 325 323 322 320 322 326 326 327 327 326 325 323 326 330 332 334 335 333 335 353 342 344 344 341 340 339 339 341
322 318 318 318 323 322 321 320 319 320 319 320 319 318 320 322 321 321 321 318 321 322 325 324 325 327 326 324 324 325 327 329 330 331 334 334 352 342 343 344 340 337 335 336 337
320 320 319 319 321 321 322 322 320 317 319 319 320 318 320 320 322 322 319 318 319 319 322 323 325 326 327 326 325 327 326 326 328 331 332 338 346 344 342 344 341 337 335 333 334
319 317 319 320 319 320 320 318 319 319 318 319 321 321 320 319 321 322 320 320 319 318 322 323 324 325 323 323 324 325 325 324 327 329 331 343 344 342 340 339 339 338 335 333 334
321 319 316 317 318 317 314 318 317 317 318 318 321 320 321 321 323 321 321 321 322 320 322 321 324 324 322 320 321 321 321 321 324 325 328 337 341 338 336 334 333 332 331 330 329
318 316 319 313 317 317 317 317 316 316 315 316 318 321 322 320 320 321 321 321 322 323 321 322 323 323 321 321 318 319 320 320 321 322 327 336 338 335 333 330 329 328 327 326 325

GFSSW_925_thetae_084.txt.gz
Theta_e
312 311 309 309 310 312 311 309 308 308 307 306 305 306 306 307 307 315 316 317 319 320 319 326 328 336 347 350 350 354 368 369 367 364 366 359 362 357 357 354 354 350 346 344 344
312 313 312 310 309 309 311 310 308 307 307 306 305 306 307 309 318 317 320 317 318 318 332 335 339 345 352 352 354 360 367 366 359 359 363 358 357 356 357 355 354 348 345 343 344
312 311 311 310 311 309 307 309 310 308 307 306 305 306 307 311 324 323 321 319 316 315 335 339 342 347 352 352 355 361 361 360 359 357 357 358 357 353 356 359 352 350 346 344 343
309 306 307 309 310 308 307 306 306 308 306 306 306 306 308 319 332 328 319 318 313 320 337 337 337 348 351 353 354 363 356 358 358 355 355 357 353 356 356 360 350 347 345 344 343
314 313 311 310 309 307 307 308 307 307 307 306 306 306 316 324 320 327 320 316 313 324 337 336 338 346 350 353 356 362 355 356 357 355 354 353 356 355 359 357 351 347 345 344 343
314 314 312 311 310 310 310 310 308 307 307 306 306 307 319 321 323 328 323 315 318 328 337 333 334 342 346 348 354 353 353 349 351 357 355 355 360 357 359 356 354 349 346 344 343
312 311 311 311 311 312 311 309 308 308 307 307 306 316 320 321 321 326 322 318 320 327 336 332 331 340 341 346 351 351 357 348 351 358 359 356 362 361 356 357 355 350 348 344 344
310 310 311 311 312 312 311 308 308 310 310 307 306 319 321 321 319 324 322 320 321 325 331 330 330 332 337 340 352 355 353 351 350 356 357 359 368 359 355 356 354 350 348 344 344
311 311 312 313 313 311 308 306 311 308 308 306 317 322 324 324 320 324 321 322 325 329 328 327 327 328 332 339 348 352 356 353 351 354 358 360 367 362 354 354 353 351 348 345 344
313 314 313 313 311 307 306 309 317 322 313 317 321 324 321 328 320 323 327 325 328 328 327 326 327 331 332 339 349 349 349 351 353 355 358 362 363 361 357 355 355 351 348 347 344
313 312 311 309 308 307 310 319 323 327 325 326 325 325 323 324 323 325 327 327 327 327 328 328 330 331 332 336 342 343 345 353 352 350 359 362 364 359 359 356 355 351 349 347 346
314 312 311 308 309 307 310 323 319 318 319 325 324 321 322 322 326 326 327 328 325 327 328 329 330 328 329 333 337 340 342 348 349 350 361 362 364 361 357 355 355 352 349 348 345
314 312 310 309 309 310 318 318 316 317 318 319 320 322 322 325 327 325 326 326 325 326 326 328 326 327 329 330 334 337 341 346 350 347 349 353 365 352 358 356 355 354 353 349 345
314 313 311 310 312 319 320 317 318 317 319 320 320 321 320 323 327 326 324 326 326 325 325 326 326 326 330 330 332 337 339 345 350 353 363 354 372 368 361 360 358 355 354 352 344
315 314 314 311 315 319 319 316 318 318 322 320 320 320 320 321 324 325 326 325 326 326 325 326 326 326 328 329 330 337 339 342 340 341 340 343 347 366 361 365 351 353 354 352 350
315 314 314 317 315 317 316 317 319 319 323 321 319 319 319 320 322 324 327 326 325 328 325 327 326 327 327 328 329 335 338 340 341 339 339 345 346 364 362 357 358 354 356 345 350
315 316 314 316 321 320 319 319 322 322 326 322 319 319 318 320 322 324 327 327 328 329 327 325 327 326 328 329 332 335 336 340 344 343 340 335 343 359 350 360 359 357 356 349 349
315 316 317 316 320 320 320 323 328 328 327 323 320 319 318 320 322 323 326 327 327 327 325 327 327 327 330 331 333 334 334 339 343 339 338 336 344 359 348 356 352 350 356 348 349
315 318 319 322 322 320 322 329 328 326 322 321 320 319 320 321 321 323 325 326 325 327 329 326 327 328 329 331 333 334 336 336 337 336 336 350 356 354 352 350 350 352 356 355 357
317 321 324 322 320 321 326 326 327 324 320 319 320 320 322 322 322 323 325 326 327 326 327 328 327 330 331 332 334 335 333 336 337 341 339 354 357 357 355 352 348 348 348 347 346
318 324 323 322 319 323 329 326 324 319 319 321 320 322 324 324 326 327 329 327 326 326 327 327 332 335 332 333 334 333 333 334 334 335 336 354 359 351 353 350 348 345 344 345 344
322 325 322 319 319 325 327 326 315 320 318 321 320 321 324 324 327 327 329 326 322 323 326 327 333 335 330 328 329 331 333 334 336 340 336 353 357 346 347 345 344 341 342 343 343
325 320 318 318 324 330 325 320 320 320 320 320 320 319 321 325 324 325 326 324 321 323 326 327 330 333 329 326 326 327 328 330 332 334 339 346 353 345 346 344 341 339 339 341 341
324 320 321 319 320 323 324 323 322 319 319 320 320 319 318 322 323 323 320 320 320 321 327 326 326 333 330 327 326 327 327 329 330 333 335 349 351 347 348 346 341 338 336 337 338
323 318 319 320 320 320 320 321 320 320 319 320 322 318 318 322 321 321 320 320 320 321 323 323 326 328 329 324 326 326 326 327 329 330 348 348 347 347 346 344 341 338 337 336 334
320 322 317 318 319 318 314 318 318 317 319 319 321 322 320 320 322 322 321 322 324 321 323 322 326 327 324 322 324 325 325 326 326 328 335 339 345 340 339 339 338 336 334 333 332
320 318 321 314 319 319 318 318 317 317 315 318 321 323 324 321 322 322 321 322 323 324 324 324 325 326 326 322 321 324 324 323 324 325 341 347 342 338 337 335 333 331 330 329 328

GFSSW_925_thetae_087.txt.gz
Theta_e
312 312 312 311 309 309 310 309 307 307 309 308 306 305 306 307 307 315 315 314 313 322 319 329 322 331 338 351 351 355 366 370 366 364 366 359 361 358 357 353 347 346 345 346 347
312 312 312 308 307 310 309 308 307 307 307 307 306 305 306 308 313 318 311 315 317 318 319 327 325 328 334 349 353 360 365 369 361 360 363 360 360 358 356 356 353 346 345 346 347
313 313 312 310 307 307 308 307 306 306 306 306 306 305 306 309 323 322 327 317 318 318 318 330 329 332 340 350 357 361 365 361 359 358 357 358 356 354 356 357 347 346 345 346 345
314 313 313 313 309 308 307 307 307 306 306 306 306 306 307 314 331 325 321 317 319 317 318 329 339 343 349 354 357 364 358 359 358 356 356 357 354 356 360 359 347 343 343 347 345
314 311 312 311 309 311 310 309 308 308 307 307 306 306 314 322 319 323 319 318 317 316 322 336 339 338 348 350 355 350 355 358 355 354 354 352 355 358 357 355 350 343 342 347 346
313 313 311 310 311 312 313 310 309 308 307 307 307 306 319 316 327 323 319 317 313 318 325 336 339 335 345 347 357 356 355 358 355 354 353 355 355 355 355 346 353 344 342 340 340
311 312 313 313 312 313 313 310 308 307 309 309 309 314 319 318 326 326 321 315 315 318 333 337 338 331 340 343 349 354 357 353 357 356 357 357 361 360 353 349 354 345 343 341 341
312 312 314 313 313 313 312 309 306 310 310 312 307 318 319 316 321 323 322 319 316 320 333 336 334 328 330 334 345 352 356 362 356 358 358 358 369 361 355 353 356 347 344 342 340
314 314 314 314 313 311 308 306 310 309 309 307 312 320 322 322 320 319 323 321 318 322 325 329 330 327 327 330 336 350 358 358 354 358 359 359 367 361 356 357 353 348 346 342 340
313 312 312 312 311 308 306 307 313 321 315 316 317 321 322 325 323 320 322 321 319 323 325 328 324 324 324 326 337 350 355 356 356 360 359 361 359 358 358 357 353 349 346 343 342
313 311 310 310 309 308 306 319 320 321 324 321 319 326 324 323 322 321 324 322 324 328 327 325 323 324 326 327 330 338 345 354 354 357 363 360 362 363 358 356 353 349 347 343 342
314 312 310 309 310 309 307 319 322 316 316 323 323 323 324 322 322 323 325 326 326 327 325 324 325 326 328 330 331 332 340 349 355 358 357 348 359 361 358 356 352 351 347 345 342
314 314 312 311 311 311 312 318 319 317 316 317 317 324 322 320 324 324 324 327 325 325 326 326 327 328 329 327 329 330 336 342 353 355 351 351 360 361 359 356 355 354 350 350 344
314 315 314 312 313 315 318 320 320 318 315 318 317 318 321 321 325 326 325 326 325 323 324 325 326 327 327 326 326 327 331 336 348 351 355 353 367 357 360 360 356 354 353 352 351
314 315 314 313 312 315 317 316 317 318 320 320 318 320 319 320 323 326 324 324 325 324 323 323 324 324 325 326 327 328 333 344 347 348 352 350 361 358 359 362 359 353 352 351 350
314 314 315 317 317 320 321 320 318 319 323 325 319 319 318 318 319 322 324 323 323 324 324 323 323 323 324 325 326 328 328 342 342 348 354 348 351 367 364 363 359 353 353 351 350
314 314 314 315 317 319 320 318 321 322 326 326 324 322 317 317 318 319 325 325 325 324 324 326 324 324 324 325 324 325 327 339 345 346 344 334 353 361 359 359 352 350 352 347 346
313 313 315 316 317 319 321 320 328 326 325 324 324 323 322 317 318 320 323 325 325 325 325 327 324 323 325 323 324 325 331 335 346 344 338 336 361 359 352 353 354 348 352 346 345
312 316 318 317 319 320 321 329 330 325 324 323 320 319 320 319 320 320 323 325 325 324 325 324 324 324 325 327 328 328 332 330 331 334 334 359 357 353 351 352 354 355 351 345 343
313 318 318 321 322 323 325 324 327 324 324 321 320 323 326 324 326 329 327 325 325 325 326 328 330 324 325 327 329 328 332 331 329 338 339 364 362 365 356 351 351 349 349 348 349
317 320 323 323 323 324 327 326 324 323 323 320 321 323 324 326 326 329 332 328 325 326 324 325 329 329 327 325 329 333 333 332 329 332 335 360 362 354 350 348 346 347 346 347 346
318 325 323 322 323 325 327 325 322 321 318 320 320 322 327 328 327 330 330 327 324 324 323 328 326 331 332 332 331 333 332 331 331 333 337 353 360 348 345 343 343 345 345 343 343
321 325 320 317 325 328 326 324 325 321 320 320 320 319 322 327 328 325 327 324 324 323 323 327 327 332 331 330 327 328 329 328 327 328 332 345 359 346 345 343 342 343 342 343 340
323 326 321 320 322 323 324 325 323 319 319 320 320 319 318 323 323 324 324 322 320 323 326 324 325 331 334 330 326 326 326 325 326 328 344 353 354 348 345 342 340 339 339 340 339
325 321 317 318 318 318 319 320 319 320 319 320 323 322 319 323 323 323 321 320 319 321 323 324 327 325 328 329 328 325 325 326 327 343 350 349 352 349 344 340 338 336 336 337 334
321 320 321 317 320 320 317 318 318 316 317 319 322 322 320 322 322 325 322 321 323 322 322 321 325 326 330 328 323 323 325 326 326 340 344 345 349 343 340 338 338 336 334 334 334
323 322 326 323 319 317 317 317 316 319 317 316 319 325 322 321 320 319 318 319 322 323 324 324 325 327 328 323 322 325 324 323 327 340 343 347 345 342 340 335 333 330 328 328 328

GFSSW_925_thetae_090.txt.gz
Theta_e
315 312 310 309 308 308 308 307 307 307 309 308 307 306 305 306 307 312 314 309 309 323 324 326 324 325 336 345 350 353 365 367 364 363 364 359 358 357 348 348 347 346 349 347 349
316 315 314 313 309 309 310 308 306 306 306 307 306 306 305 307 312 317 309 309 314 320 324 323 324 322 330 337 350 358 365 362 358 355 361 359 359 358 350 347 348 350 348 348 349
315 316 315 313 313 312 311 310 309 307 306 306 306 306 305 308 321 321 324 310 316 317 319 321 325 326 328 336 355 358 366 356 355 356 359 359 358 355 355 358 348 350 349 347 347
314 313 312 313 312 312 310 310 309 310 308 307 307 306 306 313 330 327 321 314 315 318 319 319 328 329 338 341 357 360 360 360 356 358 357 358 356 360 357 352 345 347 347 347 346
313 311 311 312 312 313 313 310 309 309 310 309 307 306 315 320 316 319 320 315 318 319 318 320 332 337 341 347 358 361 358 358 356 354 355 353 358 359 355 353 345 346 346 346 345
311 311 313 313 313 314 314 312 310 308 307 311 312 306 317 312 316 322 319 316 318 317 318 323 337 337 336 343 354 354 358 358 355 353 352 356 358 354 354 349 347 347 346 343 343
312 315 315 313 313 315 314 310 309 306 308 311 317 313 318 313 323 323 319 318 317 314 323 320 331 337 334 333 351 352 357 358 356 355 354 354 358 358 352 347 345 349 348 345 343
314 314 314 314 313 313 310 307 305 309 310 317 317 318 315 313 314 323 321 318 314 314 318 331 332 333 330 327 330 355 358 363 357 356 355 353 362 356 352 351 353 344 345 344 344
313 314 313 312 310 308 306 305 309 314 308 311 313 319 317 320 318 319 323 319 314 315 318 324 327 327 326 327 328 340 359 360 362 356 357 358 358 357 353 352 352 345 343 341 346
313 313 313 311 309 308 305 311 311 317 317 316 317 319 319 323 319 320 322 321 316 317 320 322 323 324 320 322 329 334 353 356 358 360 359 359 359 361 353 354 354 346 344 341 343
313 313 312 310 310 309 308 316 318 320 319 314 315 322 323 322 322 319 322 320 317 321 322 325 321 322 322 322 325 328 330 335 357 357 352 358 357 357 358 357 356 348 345 340 342
313 314 313 311 310 310 310 314 319 316 311 321 319 320 321 321 321 319 320 318 320 324 326 323 322 321 324 325 327 329 331 351 359 350 352 353 355 349 355 357 355 350 347 341 341
313 314 314 314 313 311 311 315 317 316 314 314 320 321 321 320 321 319 320 322 324 325 325 323 322 323 326 326 328 327 330 337 358 351 350 352 351 351 354 354 353 352 349 343 341
313 313 315 314 313 314 313 317 318 317 311 314 316 316 317 320 320 322 323 324 324 324 323 323 324 326 325 327 326 324 325 328 357 355 358 349 358 356 359 359 355 353 353 351 343
313 313 314 314 314 313 318 319 318 313 318 322 315 318 317 317 322 324 324 323 326 322 320 321 324 324 325 327 325 324 325 327 351 350 351 352 360 356 357 363 357 354 353 350 348
313 313 313 315 316 317 317 318 317 315 319 325 319 321 318 316 319 319 322 322 322 323 322 321 321 321 323 323 322 323 326 338 346 350 354 349 355 361 357 361 358 353 352 351 349
314 313 311 313 315 316 316 314 316 320 323 325 323 322 319 316 317 316 320 322 321 323 321 321 323 322 321 321 320 322 323 332 342 350 351 342 351 354 353 356 356 355 352 350 348
313 312 313 314 315 315 317 317 326 325 324 321 322 316 320 316 315 316 318 322 321 321 321 324 325 323 322 321 321 321 322 332 343 346 346 350 356 360 353 353 353 352 351 349 348
314 313 317 314 317 318 316 322 326 324 323 323 319 318 321 321 324 324 325 321 322 320 323 324 324 323 322 321 321 322 327 325 333 337 333 358 355 351 352 354 350 349 352 349 347
315 315 317 318 321 320 316 320 322 323 322 322 319 322 324 323 324 327 329 326 325 322 320 322 325 324 325 321 322 324 325 330 325 334 336 359 359 357 358 357 353 353 347 348 347
317 313 320 318 322 314 320 320 323 321 321 320 319 322 324 325 326 328 330 327 323 322 320 323 323 325 327 323 323 326 328 326 325 327 334 356 358 353 351 349 350 349 347 347 346
315 318 319 322 318 317 319 323 321 322 320 318 318 324 326 327 326 328 330 326 324 322 322 322 321 326 328 327 325 327 328 326 328 330 336 352 360 347 346 346 346 347 345 344 343
315 315 320 320 319 320 321 323 323 324 320 319 319 319 322 324 324 326 327 325 324 321 321 319 322 327 327 325 324 324 327 324 322 323 331 347 354 346 344 344 344 345 345 342 342
315 319 311 310 314 317 322 324 322 321 320 319 319 317 318 322 322 322 325 324 322 321 330 323 321 324 327 325 324 326 325 323 320 324 347 351 354 350 346 345 343 343 342 341 340
316 315 311 311 312 314 319 321 318 317 315 316 320 321 320 320 321 321 321 320 319 330 322 319 325 323 322 324 326 326 325 322 328 334 341 351 349 348 343 341 341 339 338 336 336
317 318 317 314 311 312 313 313 314 314 313 315 323 320 318 319 319 322 318 319 321 320 321 318 322 323 324 325 322 321 321 322 335 343 348 347 348 341 337 337 337 338 335 333 333
321 320 318 319 311 312 313 315 316 317 314 316 320 323 318 318 317 315 315 314 318 319 320 320 320 326 327 324 320 320 320 325 338 343 347 349 345 338 339 337 336 334 333 332 328

GFSSW_925_thetae_093.txt.gz
Theta_e
316 315 315 313 310 311 311 309 309 312 313 309 307 306 305 305 306 311 313 309 309 322 323 325 329 329 336 342 348 353 364 364 364 363 360 357 352 352 348 350 347 348 347 345 346
314 315 315 315 313 312 312 311 309 309 311 308 307 306 306 306 310 316 309 308 310 324 326 329 327 324 333 338 350 357 364 361 358 357 359 356 352 349 351 351 351 349 345 345 346
314 315 314 314 314 313 313 313 312 310 309 307 307 307 306 308 318 314 322 309 313 324 325 325 322 324 328 333 349 357 364 356 354 354 355 357 357 348 349 354 351 350 349 346 346
314 313 312 312 314 314 313 313 313 312 310 309 307 307 306 314 318 326 321 310 313 321 320 319 325 326 338 340 354 360 356 356 356 354 357 358 356 349 351 351 349 348 348 347 347
311 312 314 314 314 313 313 313 314 312 310 310 307 307 314 316 312 313 319 310 317 319 320 318 329 334 340 341 358 359 358 358 357 357 356 355 358 355 357 348 348 347 349 348 347
314 314 314 314 314 314 315 313 310 310 309 310 311 306 316 307 311 323 316 312 317 322 318 319 330 333 338 338 356 356 356 358 356 356 355 358 357 354 352 348 348 348 348 347 346
315 315 314 313 313 314 313 311 309 307 308 312 315 314 317 309 320 323 316 318 318 318 315 317 328 337 336 337 345 356 361 358 356 354 356 354 359 357 351 348 350 349 348 346 344
314 314 314 312 313 310 309 306 306 308 313 316 319 317 311 312 316 319 320 318 317 317 318 320 322 332 336 333 328 357 359 362 358 356 354 352 362 356 351 349 350 348 347 345 342
314 313 312 311 309 309 307 306 308 319 309 319 315 317 312 317 319 316 321 318 314 314 314 321 327 328 328 325 325 341 364 361 362 356 355 353 357 356 352 351 350 349 347 344 344
313 312 312 310 310 310 307 313 312 318 316 314 317 317 319 322 320 317 317 319 314 313 317 320 321 324 319 321 330 335 349 358 360 359 356 358 352 355 353 352 352 347 347 344 345
313 313 313 313 311 311 310 314 315 315 319 312 314 319 321 321 321 317 321 319 317 318 320 321 323 324 323 322 324 328 329 345 361 355 355 355 356 356 354 354 354 347 342 343 346
313 313 313 314 313 312 310 311 316 315 314 316 318 317 319 320 321 318 320 318 318 319 323 323 324 322 322 322 325 329 330 361 356 354 356 356 356 352 354 354 354 349 343 346 346
313 313 313 314 314 312 312 312 315 316 314 313 319 319 319 319 321 320 317 318 319 321 324 325 324 322 324 325 326 326 329 352 358 352 351 352 353 350 351 354 353 350 349 343 343
313 313 313 314 313 313 314 314 316 315 310 314 314 315 319 318 319 319 320 321 323 320 322 324 324 324 324 325 325 327 326 329 355 353 358 350 357 352 350 356 356 352 350 341 342
313 313 312 312 314 313 318 316 317 312 320 321 317 315 314 316 320 322 321 322 324 322 321 323 324 324 324 324 324 326 328 325 351 347 350 353 358 353 356 360 358 356 352 349 341
313 313 313 312 314 316 316 316 314 314 322 324 320 321 317 316 318 318 322 322 322 323 321 322 320 322 322 323 323 325 324 335 344 346 349 349 355 358 359 359 358 354 352 349 343
313 314 313 312 314 316 315 312 316 318 321 322 322 319 317 316 316 317 319 322 322 322 321 320 321 321 320 320 319 320 321 328 347 349 349 345 352 351 352 354 356 354 353 349 348
314 314 312 312 313 313 316 316 325 324 323 320 321 316 320 319 319 318 318 318 320 319 319 323 323 322 321 321 320 318 318 327 344 345 345 346 349 348 351 348 352 351 350 348 347
315 313 314 314 314 315 314 320 323 323 322 322 318 319 321 321 323 324 324 320 321 319 321 321 323 322 322 320 319 321 320 320 330 332 336 349 352 350 354 352 351 351 351 349 348
315 315 315 318 320 317 314 319 320 322 321 321 319 320 324 323 322 325 326 325 322 321 318 321 323 322 324 322 319 319 320 326 324 340 340 348 356 354 357 356 352 350 349 347 345
315 315 317 319 321 313 318 317 321 320 320 320 319 322 323 324 325 325 327 325 322 321 319 321 321 323 325 323 321 323 326 323 322 327 336 347 350 351 352 351 352 347 348 345 346
312 318 317 320 317 313 318 321 320 321 320 319 320 322 324 325 325 325 327 325 322 321 322 319 318 325 324 324 324 321 322 323 326 329 339 343 349 345 347 346 346 346 345 345 345
312 313 319 317 316 317 317 322 321 322 321 317 318 319 321 323 323 324 325 324 324 319 318 319 320 325 324 323 321 323 321 322 320 322 345 348 346 345 345 344 345 344 341 343 343
313 312 309 310 310 316 321 322 320 319 318 317 317 316 320 321 321 320 321 324 322 324 330 322 318 323 325 324 321 324 325 322 319 324 335 340 352 347 346 345 345 345 342 340 342
310 311 310 311 310 315 316 320 316 315 312 314 319 319 320 319 319 321 319 317 320 331 320 319 322 323 321 321 322 324 325 320 321 325 337 344 349 348 344 343 344 342 340 340 340
315 316 315 314 310 311 308 313 314 312 313 316 322 319 317 318 319 320 317 317 320 320 321 315 322 324 325 325 322 321 320 321 336 345 345 345 348 343 339 340 341 337 336 338 337
319 317 315 314 308 312 312 315 315 314 314 316 319 321 317 317 317 314 313 313 314 320 317 318 319 325 327 324 322 319 319 318 335 344 344 346 342 338 340 340 338 334 332 333 332

GFSSW_925_thetae_096.txt.gz
Theta_e
315 315 315 315 315 314 312 312 314 314 312 309 306 307 306 305 306 310 311 308 308 318 322 326 335 338 342 342 348 352 363 364 362 362 358 355 353 350 346 346 347 346 346 344 345
314 314 314 313 314 314 314 313 312 314 312 310 307 306 306 306 310 314 309 308 308 319 325 330 331 326 334 340 348 357 361 362 358 357 358 353 352 350 348 350 349 348 346 347 345
314 314 314 313 314 314 313 314 314 311 312 310 310 307 306 307 316 310 320 308 310 327 324 323 324 325 330 331 346 356 361 356 356 353 354 352 351 348 350 353 346 349 348 346 345
312 313 315 314 314 314 314 314 314 314 311 309 309 309 307 313 313 325 318 308 322 327 325 323 320 333 340 338 346 358 356 357 355 352 353 355 354 351 350 351 345 346 345 345 345
314 315 315 315 315 314 312 314 315 314 312 312 309 308 314 312 311 313 319 308 318 326 318 320 326 338 343 342 350 358 357 358 357 354 355 355 353 351 353 348 345 346 345 345 345
314 314 313 312 313 313 313 312 312 313 313 311 311 311 315 308 313 323 319 310 316 326 319 320 332 335 337 339 354 355 356 359 359 356 355 357 354 351 352 348 348 348 347 345 345
313 312 313 312 312 312 310 307 307 306 310 314 312 316 315 308 316 324 313 315 320 319 314 318 329 334 336 337 337 356 359 358 358 357 357 355 357 355 351 349 349 350 348 347 346
313 312 312 311 310 310 308 308 306 309 312 315 316 316 306 311 316 324 317 319 320 318 318 317 323 331 335 332 325 357 356 362 358 357 355 356 365 357 351 350 351 350 349 348 344
313 313 313 312 310 309 308 308 309 316 313 317 315 315 310 316 317 317 319 315 316 316 315 319 320 329 327 324 324 338 361 360 362 355 356 354 361 355 351 350 351 349 348 347 342
313 312 312 313 312 310 309 314 313 318 316 315 317 316 318 321 319 315 319 315 311 311 316 317 318 323 318 320 331 336 350 357 360 359 356 355 355 353 351 351 351 349 347 345 344
313 312 312 313 313 312 310 316 311 311 319 313 313 316 317 320 319 315 317 317 315 315 318 319 323 326 325 322 325 329 334 353 359 357 357 357 356 356 352 351 352 349 346 344 345
313 313 312 313 313 312 311 310 315 316 314 314 317 315 316 318 318 315 319 318 316 318 321 321 325 323 322 321 325 327 350 361 357 355 354 355 357 353 354 352 351 351 344 345 343
312 312 312 312 313 312 312 313 315 315 313 313 316 317 317 317 318 319 317 316 316 321 323 325 325 323 322 323 326 326 332 358 358 352 351 351 353 353 351 352 352 351 349 344 345
312 312 312 312 312 312 313 314 315 314 311 316 315 316 318 318 319 318 318 318 319 319 322 325 324 323 323 325 323 326 330 348 354 351 350 349 352 351 349 356 354 351 349 347 346
311 311 312 312 312 312 315 315 315 310 319 321 318 314 313 316 318 319 319 320 321 321 322 325 322 323 324 323 323 327 329 344 352 347 348 350 354 351 349 352 356 354 351 347 342
310 312 313 312 312 314 315 315 312 313 325 323 319 319 315 313 315 318 321 320 320 321 321 323 320 321 322 322 323 324 327 338 342 341 350 347 350 351 357 350 353 354 351 348 341
311 314 313 312 312 315 314 312 316 320 320 322 321 317 316 319 315 315 321 322 322 323 323 321 321 320 320 321 319 321 326 334 351 351 348 342 352 349 352 352 352 354 352 349 343
314 314 312 311 311 312 316 315 323 324 321 320 319 317 320 319 321 319 317 316 319 318 318 322 322 321 319 320 319 317 322 330 346 349 346 346 352 346 351 350 351 352 351 349 343
315 313 312 315 312 313 312 317 321 322 322 321 318 319 320 320 322 322 321 318 320 318 321 321 323 321 320 319 318 318 318 319 327 330 343 346 345 347 352 352 352 352 349 349 347
315 315 314 317 317 315 312 317 319 320 320 319 321 320 322 321 321 324 325 323 322 320 317 319 322 320 323 320 318 319 318 323 321 335 342 338 350 345 358 355 352 353 350 348 347
314 313 315 318 317 312 317 316 319 318 319 318 319 321 322 323 324 324 325 324 321 320 318 319 319 321 322 322 320 322 322 320 321 328 335 339 342 348 350 353 353 350 347 346 347
311 317 315 318 316 311 315 319 319 320 319 318 319 321 322 323 324 324 325 324 321 319 320 318 317 323 322 321 321 323 321 320 324 327 331 334 338 345 348 350 347 347 347 345 344
312 312 316 315 317 313 315 322 321 320 319 316 317 319 320 323 321 322 324 322 322 321 317 318 319 323 322 322 320 322 322 320 317 327 341 337 337 346 347 347 346 346 344 345 345
312 312 309 308 308 315 320 320 320 318 315 315 317 315 319 320 320 320 320 322 320 321 326 319 317 321 322 323 320 324 323 323 318 323 329 336 345 350 348 346 346 344 343 344 344
307 312 310 312 309 315 314 313 314 312 310 314 318 318 319 318 318 320 317 315 321 326 319 317 321 321 321 321 321 322 320 319 318 319 330 332 343 345 345 344 345 343 341 342 343
315 315 312 312 307 311 308 313 313 313 312 313 319 319 316 318 318 319 316 316 319 318 319 314 323 323 325 323 323 320 320 324 324 339 344 341 346 339 341 342 342 340 340 340 341
316 315 309 311 307 310 311 314 315 313 313 314 315 320 317 316 317 315 313 312 314 316 317 317 321 324 326 322 320 318 321 321 322 339 341 344 339 341 343 342 338 335 337 338 338

GFSSW_925_thetae_099.txt.gz
Theta_e
314 314 314 314 313 311 313 314 314 312 313 313 308 309 308 306 305 309 311 308 308 316 324 334 343 345 344 345 348 351 364 365 363 358 358 354 353 350 346 348 348 347 346 346 347
313 314 314 313 314 314 312 311 312 314 312 311 309 308 308 309 310 313 308 307 308 319 331 330 337 339 344 343 347 357 363 363 357 357 356 354 352 348 349 350 351 350 347 346 347
315 314 314 315 315 315 314 313 311 309 312 312 309 309 308 312 315 310 321 308 308 320 331 325 333 336 340 339 350 357 361 357 355 353 353 353 352 346 350 351 350 351 350 347 346
315 315 314 314 314 315 315 314 314 312 309 307 310 309 309 314 313 324 318 308 310 326 325 323 329 340 345 341 343 359 356 355 351 352 353 353 349 349 348 349 345 347 347 346 343
315 315 314 314 314 313 313 314 313 313 311 308 307 309 312 314 312 310 322 308 335 325 323 322 330 341 350 345 346 355 356 354 352 352 354 350 351 349 353 346 346 346 346 344 342
314 313 314 314 313 313 313 313 313 311 311 311 309 308 316 313 313 326 320 325 331 321 319 323 332 339 341 342 348 354 355 358 356 355 355 354 351 348 351 346 347 347 347 346 346
312 313 313 313 312 311 310 309 308 307 310 313 313 315 315 314 313 324 322 321 327 320 319 321 331 336 338 340 340 354 359 357 356 356 356 351 352 356 351 347 349 349 348 347 346
312 312 312 312 310 309 306 305 305 310 311 314 315 316 312 311 316 321 318 321 320 319 317 319 324 334 337 336 333 358 356 363 359 357 355 354 360 354 351 349 351 350 349 349 348
312 312 313 312 312 310 308 309 314 310 311 315 315 315 314 315 317 319 317 317 320 317 315 318 318 332 331 331 335 353 363 360 364 357 358 350 356 355 352 351 352 352 351 350 349
312 312 312 312 312 312 310 313 315 316 317 317 317 319 319 320 318 319 317 315 315 315 317 320 323 334 331 332 343 349 357 358 363 360 354 352 353 355 353 353 352 351 351 351 349
312 312 312 312 312 312 312 315 315 315 320 318 316 316 317 319 316 316 316 314 315 317 322 323 333 343 340 330 330 333 342 358 362 356 358 357 358 358 353 353 352 351 351 351 349
311 311 311 312 312 311 311 313 316 316 319 316 317 316 316 316 318 317 318 319 316 317 321 326 332 334 329 326 328 340 353 360 359 356 356 358 359 356 355 354 352 352 350 349 347
310 310 310 311 311 312 311 313 315 315 317 316 316 318 318 317 319 319 320 318 317 321 323 324 328 329 325 326 328 329 337 356 359 354 350 353 356 355 355 353 352 351 350 348 346
310 310 311 312 311 312 314 313 313 314 318 323 317 318 320 319 321 319 320 319 320 320 326 328 325 331 325 325 327 329 330 353 355 352 354 351 359 356 356 356 354 351 351 349 348
309 310 312 312 311 313 314 314 314 311 322 323 320 315 317 318 320 319 318 321 321 324 325 327 327 328 328 326 327 329 331 350 352 353 353 352 357 354 355 358 357 354 351 350 348
310 311 313 311 311 313 314 313 311 318 326 323 320 319 317 319 317 320 321 322 322 324 325 326 322 326 328 325 326 328 343 346 346 350 353 345 347 357 357 356 353 353 352 351 349
311 314 313 312 313 314 313 314 320 325 321 322 322 318 321 320 320 320 322 324 325 327 327 324 324 322 323 325 323 326 334 346 348 347 345 346 352 347 352 351 348 354 353 351 349
313 313 310 311 311 313 316 322 326 323 323 322 320 320 323 322 323 320 323 324 321 326 327 326 324 324 323 324 325 326 328 339 348 348 345 350 353 350 350 352 349 348 352 351 350
315 314 312 314 311 314 319 323 324 323 323 322 320 322 322 322 323 323 321 323 323 323 328 327 326 323 322 323 324 323 326 330 338 339 346 351 349 346 353 354 353 350 353 352 351
314 314 314 314 314 315 321 319 321 321 321 320 323 322 323 324 323 325 325 324 323 322 321 325 326 323 324 324 321 323 324 326 328 341 345 346 352 347 360 358 356 355 353 351 350
313 320 315 317 316 321 323 320 320 320 321 320 322 322 323 324 325 325 326 324 322 322 322 323 325 326 325 327 326 325 325 327 327 332 337 340 345 350 355 356 357 357 354 352 350
313 324 316 316 322 318 322 321 318 321 320 320 321 323 324 325 325 325 326 325 322 321 325 323 325 327 326 324 323 327 326 327 329 332 333 335 339 349 351 353 353 354 352 351 350
319 319 316 313 323 321 319 322 322 321 318 318 318 320 322 324 324 323 324 323 323 323 323 324 326 327 327 327 325 328 326 326 326 332 335 334 335 346 348 352 350 350 349 349 349
316 320 316 316 313 320 322 321 320 318 317 318 319 319 322 323 323 323 321 322 320 323 327 323 326 328 325 327 326 329 325 324 326 329 330 335 340 350 350 351 348 349 348 348 349
316 319 313 322 317 317 318 315 316 316 314 318 321 320 321 321 322 322 319 319 323 325 322 323 329 326 325 325 324 324 322 329 324 329 331 330 343 348 350 348 347 345 346 348 348
323 323 315 315 311 315 313 317 315 316 316 316 317 318 319 321 322 322 319 320 321 322 323 321 329 327 328 325 325 323 323 328 332 326 328 341 340 343 346 345 345 345 345 346 346
315 315 315 312 313 316 316 316 316 315 315 315 315 317 320 318 317 317 316 316 318 320 324 325 328 330 329 326 324 326 324 326 332 335 339 344 344 346 346 346 345 343 342 343 343

GFSSW_925_thetae_102.txt.gz
Theta_e
314 314 314 314 314 314 314 312 312 313 310 309 309 308 307 307 308 317 314 312 311 319 339 341 344 344 342 345 350 351 366 367 362 361 362 355 356 352 349 351 348 347 345 347 348
315 314 314 314 314 314 314 314 313 313 313 309 307 307 307 307 317 316 313 308 308 319 331 335 344 343 346 348 349 358 366 364 359 356 359 355 354 352 352 353 351 348 346 347 348
315 314 314 314 314 314 314 314 314 313 313 312 308 307 307 311 319 315 321 310 309 322 328 329 337 344 348 346 351 358 364 359 356 354 355 355 353 350 351 354 353 352 350 347 346
315 315 313 313 313 313 313 313 314 313 312 310 310 309 308 319 318 323 318 311 309 328 328 326 334 343 348 352 349 360 358 355 354 354 354 355 350 350 347 348 348 348 346 345 344
315 314 314 314 313 313 313 313 313 312 310 309 308 309 318 321 318 318 323 308 318 326 326 326 333 346 354 351 350 357 358 353 352 354 353 351 350 350 350 347 346 345 344 343 342
313 314 313 312 313 312 311 310 310 309 308 308 308 309 319 320 316 328 324 322 325 324 323 323 331 345 352 348 350 353 356 354 353 355 355 353 351 349 349 347 347 344 343 342 340
312 313 313 313 312 312 310 308 307 307 309 309 310 317 318 319 317 327 323 325 324 324 324 323 328 344 344 343 341 353 361 358 356 358 355 352 355 353 348 346 346 345 344 343 343
312 312 312 313 312 310 308 307 306 311 310 311 310 318 318 313 322 322 321 326 326 322 323 325 332 343 342 340 339 359 360 366 358 358 354 353 362 356 348 346 349 347 346 346 345
312 312 311 312 312 312 310 310 315 310 311 314 320 317 318 315 320 319 316 321 322 320 319 323 328 342 340 340 347 361 366 363 364 356 354 350 360 353 351 347 349 350 348 348 348
311 311 311 311 312 312 311 314 315 317 319 319 318 322 321 322 320 319 318 319 320 320 320 322 329 342 344 342 347 356 360 362 363 357 349 350 355 353 354 349 349 350 349 348 348
310 310 310 310 311 312 315 319 323 324 322 322 320 320 321 320 321 321 319 318 319 318 321 322 328 345 350 344 337 346 354 363 361 353 350 351 354 355 353 355 353 351 350 350 349
310 309 310 310 311 311 312 320 320 319 322 320 320 320 319 319 321 323 318 320 319 319 322 323 327 340 343 338 335 349 356 364 360 356 358 358 358 355 352 353 352 350 350 349 348
310 309 310 311 311 312 317 318 316 317 323 320 319 320 321 320 322 323 321 321 319 319 323 323 322 335 340 338 335 340 346 357 362 356 354 351 355 359 353 352 352 351 349 349 349
310 310 311 312 314 315 319 317 315 316 323 322 320 321 321 322 322 320 321 322 319 320 321 324 327 333 338 336 332 338 340 347 357 356 356 352 361 354 358 358 352 348 351 350 350
310 310 313 313 316 318 318 316 316 317 324 323 320 318 322 323 324 322 321 322 322 320 323 324 327 332 333 335 331 333 334 340 345 346 349 354 353 352 355 361 359 351 350 350 348
310 312 314 312 314 317 316 316 316 322 327 323 321 322 321 321 323 323 323 323 323 322 323 326 327 330 332 329 330 338 344 343 340 342 348 346 348 360 358 357 358 355 354 350 349
312 313 313 312 319 316 315 319 322 326 324 323 323 322 322 322 323 324 324 325 327 326 323 326 327 328 329 333 330 334 338 347 352 348 349 347 349 349 355 353 355 356 354 351 349
315 311 311 312 315 316 320 324 323 324 324 323 322 323 323 324 324 324 324 325 326 327 325 326 328 327 326 330 334 334 334 342 349 352 344 348 350 351 350 350 350 353 353 351 350
315 315 317 317 315 315 324 322 324 324 324 323 323 322 323 323 323 324 325 325 325 327 329 326 325 325 326 325 327 331 336 335 338 341 343 346 345 348 349 353 352 350 350 353 351
320 320 320 318 317 321 322 322 324 323 323 323 324 324 323 324 323 323 324 325 326 326 327 328 328 325 324 325 325 326 327 334 336 341 343 344 345 346 356 355 354 351 353 353 351
320 323 320 319 320 324 323 323 323 323 324 323 323 324 324 324 325 324 325 326 324 325 326 327 327 328 327 325 325 326 326 327 329 333 335 340 342 351 353 355 356 352 352 353 352
322 323 320 317 323 323 323 324 318 322 322 322 322 322 324 324 325 325 327 327 324 325 325 326 327 329 327 327 327 328 326 327 328 331 333 336 343 352 354 356 356 355 353 352 350
325 324 321 319 322 323 324 323 323 322 321 321 321 321 322 324 325 324 324 325 325 326 327 328 326 328 328 328 328 328 328 329 328 328 331 333 333 349 353 356 356 357 357 356 353
324 324 323 324 323 322 323 322 321 318 322 322 321 321 322 323 324 325 323 324 323 325 326 325 327 327 328 328 328 329 329 329 329 329 329 331 331 350 352 355 356 355 353 355 354
323 323 321 322 320 321 320 319 319 319 318 320 323 322 322 323 324 323 323 323 324 330 326 327 328 328 326 326 326 329 329 328 330 329 329 328 331 333 348 353 355 353 351 352 352
326 324 322 320 320 319 315 319 318 318 317 317 317 318 322 324 325 324 323 324 326 326 327 326 329 329 327 328 328 328 327 328 330 330 328 330 332 341 347 350 353 352 350 351 352
323 322 323 314 320 319 319 318 318 317 317 316 316 315 323 322 321 322 321 322 323 326 326 326 326 329 326 328 329 330 328 328 330 334 334 331 334 345 350 351 351 351 350 350 349

GFSSW_925_thetae_105.txt.gz
Theta_e
315 315 315 314 315 315 315 314 314 312 311 308 308 307 307 307 308 319 318 315 315 317 340 343 345 346 344 342 350 351 366 367 360 360 361 353 356 352 350 352 349 348 347 347 345
315 315 315 315 315 315 315 315 314 313 312 309 307 306 307 307 319 322 318 313 310 322 339 342 348 346 347 347 352 361 368 364 358 356 359 356 354 354 352 352 351 349 347 346 345
316 315 315 314 315 315 314 314 315 314 313 310 308 306 307 311 326 323 317 315 308 322 333 336 345 347 348 350 352 359 366 362 358 357 352 353 354 349 350 351 350 353 351 348 345
316 315 315 315 315 314 314 313 314 314 313 310 307 306 307 320 325 327 316 315 309 324 330 332 340 349 350 353 352 360 359 357 357 355 353 353 352 350 347 349 349 349 347 346 345
315 315 314 313 314 313 312 312 311 311 309 308 308 306 319 325 323 326 324 312 316 329 330 330 336 347 351 353 352 358 358 354 352 355 354 351 351 351 349 348 348 347 346 345 342
313 313 314 314 313 312 311 310 309 307 307 306 307 308 321 325 319 327 325 316 317 328 329 328 334 342 352 354 353 355 357 357 356 357 354 352 351 348 347 348 348 347 344 342 341
312 311 312 313 312 311 308 305 305 307 309 309 308 317 322 323 320 327 322 318 319 326 327 326 327 342 350 351 347 356 359 356 356 357 356 355 353 350 347 347 347 344 341 342 340
311 311 311 312 312 312 311 309 309 314 307 309 310 321 324 317 323 325 324 324 324 325 324 324 327 336 348 345 349 360 358 364 357 359 356 358 360 350 347 347 344 342 342 342 342
310 310 310 310 312 312 312 311 314 312 307 310 322 324 321 315 324 323 324 326 324 325 324 325 328 342 348 349 353 361 368 363 365 356 356 356 361 351 345 345 345 345 344 344 345
311 310 310 310 310 311 311 314 317 316 318 321 322 323 322 322 324 320 319 323 325 323 323 324 329 347 349 349 350 360 364 364 365 354 354 355 359 356 346 345 346 345 346 345 346
311 310 310 310 310 311 316 322 327 329 326 326 322 323 322 322 323 322 321 321 322 323 323 322 328 345 348 347 344 358 365 365 361 351 353 356 358 355 354 352 351 348 346 347 347
311 310 310 311 311 311 312 323 321 321 325 321 321 322 322 321 325 323 322 322 320 322 324 323 326 333 345 348 341 344 359 362 358 351 352 355 357 353 352 354 353 349 348 348 347
310 310 310 312 310 312 320 321 320 320 325 320 320 322 322 322 323 324 322 322 322 321 323 326 324 327 344 348 342 344 358 358 358 356 353 354 354 354 351 350 353 353 351 348 348
310 310 311 313 314 319 320 321 320 320 327 322 322 324 323 323 323 324 321 323 321 321 323 325 326 325 342 344 342 342 353 356 352 358 357 352 359 354 354 354 352 350 351 350 346
310 311 313 313 318 319 321 320 320 322 328 323 321 322 324 325 324 323 322 323 323 321 322 323 325 326 334 340 340 338 339 356 356 353 347 356 356 354 357 358 354 349 349 351 348
311 313 314 313 315 319 320 320 321 324 329 324 323 323 324 323 325 324 322 324 326 323 322 325 326 328 332 333 337 337 342 344 346 347 349 353 352 354 356 361 355 347 346 347 349
315 311 313 317 321 320 320 323 326 326 324 323 323 322 323 322 324 325 325 325 327 326 325 324 327 328 331 333 334 341 346 350 350 347 346 348 349 355 352 352 356 354 347 346 348
313 312 313 319 319 319 323 328 326 324 325 323 322 323 323 323 324 325 325 326 327 327 326 323 328 328 330 334 334 338 341 349 355 351 347 349 348 357 352 351 354 354 349 344 347
315 319 321 321 320 320 326 329 326 325 324 323 323 323 323 322 324 324 325 325 326 328 330 326 327 327 327 329 332 334 339 339 345 348 352 350 351 353 351 351 352 354 354 351 351
323 322 322 322 323 323 327 322 324 324 323 323 325 324 325 324 322 323 325 325 326 326 328 331 329 327 326 326 327 330 332 336 338 344 350 345 350 355 353 352 351 352 354 355 352
322 325 321 322 324 328 325 324 323 323 324 324 323 323 324 324 324 324 327 326 325 326 326 329 329 329 327 326 327 327 329 330 334 335 337 341 346 351 355 353 354 353 351 354 353
325 327 320 322 327 325 324 323 318 322 322 323 323 323 324 325 324 323 325 328 326 325 326 326 328 331 330 327 325 327 326 328 330 334 333 335 354 351 350 350 352 352 351 353 353
328 324 321 322 327 324 324 323 323 323 322 323 323 323 323 325 325 324 324 326 326 325 328 328 326 330 330 329 327 327 329 328 327 328 331 333 345 350 352 354 354 353 353 354 355
326 325 323 322 321 324 325 324 323 320 322 322 323 322 323 324 325 326 325 325 325 325 330 328 327 328 331 332 330 330 327 328 329 331 330 331 337 351 350 355 357 357 355 354 354
324 324 324 324 321 321 322 320 321 322 320 320 323 321 323 325 325 326 324 324 324 328 326 325 327 327 329 329 329 330 328 327 330 330 331 331 331 333 347 351 356 357 357 359 358
328 323 321 321 319 321 315 320 319 319 318 319 318 317 321 325 327 327 325 325 326 327 326 326 327 332 332 327 328 328 330 331 329 329 329 329 330 336 349 352 356 356 354 355 355
325 323 324 317 321 321 321 320 319 317 318 317 317 316 319 324 324 324 323 324 326 327 328 327 327 328 330 325 327 328 328 328 328 328 329 330 330 343 347 350 354 355 352 353 355

GFSSW_925_thetae_108.txt.gz
Theta_e
316 316 316 316 316 316 316 315 315 314 314 312 307 307 306 307 308 316 319 317 317 316 325 331 342 349 346 347 351 351 365 371 362 357 351 346 355 350 350 351 347 347 346 345 343
316 316 316 315 315 315 315 315 314 313 312 311 309 307 306 307 318 321 321 319 315 314 338 342 347 348 349 345 353 361 367 365 360 353 351 351 354 353 352 349 350 347 345 344 342
317 317 316 316 316 314 314 314 313 313 311 311 307 306 307 309 325 325 322 320 312 312 335 342 347 349 349 348 354 357 367 360 360 355 352 353 354 350 350 353 350 350 345 343 342
315 313 313 313 313 312 312 312 312 312 310 308 307 306 307 318 331 326 317 317 316 312 333 336 344 351 350 352 351 357 361 355 359 354 355 350 347 348 347 349 348 348 344 343 343
312 313 313 314 313 311 310 310 309 308 308 307 307 306 316 326 325 326 322 317 311 315 331 334 338 349 352 352 352 358 358 356 355 355 352 348 347 352 350 350 348 348 345 343 342
311 311 312 312 312 311 308 306 305 305 305 305 306 307 320 326 321 331 324 318 315 321 329 331 334 342 348 353 355 355 356 356 354 355 356 351 351 347 350 348 348 347 345 343 341
310 310 310 311 312 312 311 310 307 310 309 309 308 317 323 325 321 326 325 315 316 323 330 330 331 337 345 354 351 356 362 357 360 359 361 354 353 347 346 347 347 346 343 342 340
310 310 309 309 310 312 312 312 310 315 308 309 309 320 327 321 322 327 324 319 317 322 328 328 327 329 336 348 350 360 359 364 356 358 359 356 361 348 346 347 346 344 341 342 341
311 310 310 310 310 310 312 311 313 314 307 309 320 323 326 318 319 325 325 324 325 325 326 325 325 329 337 351 354 361 364 365 362 356 357 358 360 349 346 346 345 342 341 341 342
311 311 310 310 311 310 312 313 318 315 317 321 322 326 325 322 322 324 324 326 325 326 326 326 327 331 341 353 358 362 358 355 364 358 356 358 357 348 346 345 343 342 342 342 344
311 311 310 310 311 310 311 320 327 328 327 329 325 325 324 323 324 322 321 325 326 325 325 324 326 333 346 349 351 351 355 361 358 353 356 358 358 356 351 347 347 344 343 345 345
310 311 310 311 312 310 311 323 322 322 325 328 320 322 323 323 324 323 321 323 324 324 324 324 323 328 339 346 351 355 359 361 354 354 355 357 359 354 353 354 349 351 347 346 347
310 310 310 312 313 311 317 322 321 321 326 321 321 321 322 322 325 324 323 322 322 321 323 325 325 325 328 341 356 355 357 357 356 353 353 355 355 356 351 350 350 352 352 349 349
309 310 311 314 314 319 321 321 320 322 327 322 321 323 323 322 324 325 323 323 323 322 322 323 326 326 327 336 344 359 352 351 354 358 360 352 362 352 350 351 350 352 352 350 348
310 311 314 314 316 321 323 319 320 323 334 324 322 324 324 324 324 324 323 323 324 322 322 323 324 327 326 340 341 349 349 350 355 357 352 356 357 360 353 352 351 351 351 349 348
312 315 314 313 313 316 319 320 321 326 334 325 323 323 324 324 325 324 324 324 324 325 322 323 325 326 327 332 337 343 349 348 349 356 366 357 357 353 355 352 350 346 345 348 350
316 311 312 320 323 320 320 322 327 329 328 324 323 322 324 323 325 325 322 324 326 326 324 323 326 326 328 332 336 339 350 356 362 368 361 349 358 355 353 351 348 345 345 346 348
315 310 319 316 321 321 323 329 333 330 324 323 322 323 325 323 324 324 325 325 325 326 326 325 324 327 328 331 334 335 339 344 350 352 359 354 354 355 348 348 348 347 345 345 345
316 316 322 323 320 322 326 331 329 326 323 323 322 323 326 323 325 324 326 324 325 327 329 331 325 326 329 330 333 335 338 338 346 346 347 356 352 352 348 350 351 352 349 347 348
318 325 322 321 323 325 329 325 324 323 322 323 326 326 327 326 321 323 325 325 327 328 327 331 334 327 328 328 329 332 333 336 336 351 354 352 350 363 357 356 358 356 353 350 346
320 327 319 322 324 328 330 324 323 322 323 325 325 326 326 325 325 326 327 328 328 328 327 329 332 331 327 327 327 327 330 332 333 336 341 357 356 356 352 355 354 358 353 351 347
323 329 321 323 328 328 325 323 318 323 321 323 322 324 326 326 324 324 327 328 326 325 326 327 329 333 331 328 327 327 327 330 332 337 336 339 352 347 352 353 352 351 354 351 350
326 328 321 323 327 326 324 323 324 324 322 323 324 323 324 325 326 328 327 327 325 323 329 329 330 329 332 332 328 326 327 327 326 329 335 333 348 346 344 350 354 352 355 358 356
327 327 325 324 323 324 325 325 324 321 322 322 323 322 323 325 325 327 329 324 324 322 333 326 329 329 331 334 333 332 326 327 329 327 328 329 353 352 354 351 351 354 357 358 358
325 327 326 326 323 323 324 323 322 322 321 320 323 322 322 325 329 329 327 324 325 328 324 324 327 327 330 330 330 332 332 331 328 329 330 331 335 350 350 351 351 356 358 360 359
329 329 323 322 322 322 317 322 320 320 319 320 319 319 317 323 327 328 327 327 329 327 325 325 326 327 330 330 330 330 329 332 329 328 329 331 332 344 353 356 355 358 362 360 357
327 325 325 319 321 322 323 321 320 318 320 318 318 317 317 323 324 324 324 324 326 329 331 331 327 328 329 328 327 330 329 330 331 330 329 329 340 336 349 356 352 355 357 359 358

GFSSW_925_thetae_111.txt.gz
Theta_e
317 317 317 316 315 315 315 315 315 314 312 309 307 306 306 307 307 315 319 315 317 318 315 328 327 335 347 348 351 351 360 364 361 359 350 352 355 354 347 345 344 345 344 343 345
317 317 316 316 316 314 314 314 314 314 311 310 308 307 306 307 313 319 316 320 317 317 318 334 334 340 350 347 351 358 362 363 358 359 355 353 354 349 350 350 349 346 343 344 346
314 315 315 315 314 313 313 312 312 311 311 309 308 307 306 308 322 325 325 319 320 317 320 337 342 347 350 345 351 359 361 352 353 356 351 353 353 349 352 353 349 347 344 339 341
312 312 312 313 313 312 311 311 310 309 309 307 306 306 306 314 331 325 320 322 319 312 317 332 337 347 351 351 351 359 356 353 350 352 351 355 353 350 350 349 345 343 342 340 337
310 311 311 311 312 311 310 307 306 306 306 306 306 306 314 323 322 323 320 317 316 313 314 331 336 343 354 350 352 358 352 348 347 351 353 353 352 351 351 347 343 342 341 340 336
310 310 309 309 310 311 311 311 308 307 307 307 306 307 319 322 328 327 326 320 313 312 316 328 333 338 349 350 355 356 355 354 354 357 357 353 350 352 351 348 345 344 340 340 338
311 310 309 309 309 310 311 312 311 309 313 308 309 316 320 323 322 330 326 317 314 314 321 328 331 331 340 353 351 354 361 359 359 359 357 357 352 353 349 348 347 345 341 340 339
311 311 310 310 310 310 310 312 311 312 314 308 309 319 322 323 321 322 325 317 314 318 322 327 330 328 328 349 357 363 358 362 358 359 354 358 358 350 347 347 346 344 342 340 339
311 311 311 310 310 311 310 312 312 315 310 309 319 319 326 320 319 322 326 321 316 317 321 326 326 324 325 337 354 355 361 353 356 356 352 357 355 350 346 346 345 342 341 339 341
310 311 311 310 310 311 310 311 319 316 321 319 321 323 325 325 320 319 325 323 319 322 324 325 324 324 326 336 357 361 357 354 355 357 356 359 355 352 346 345 344 338 339 339 341
310 310 311 310 310 312 311 316 324 326 323 327 326 326 324 324 323 323 324 325 324 324 325 325 324 324 327 334 353 352 355 361 357 356 357 358 358 356 352 347 343 338 338 341 341
310 310 310 310 311 313 310 317 322 320 321 326 327 320 322 323 323 322 321 323 326 323 323 322 321 322 326 349 352 355 357 355 355 353 354 356 357 354 353 352 352 351 341 341 343
309 310 310 312 314 312 312 318 321 321 322 325 325 319 320 320 323 322 320 320 323 323 322 321 322 322 323 349 356 353 356 355 355 352 350 355 355 353 352 350 349 347 351 345 344
309 310 313 315 316 318 320 321 321 321 324 322 318 322 322 320 321 323 322 321 321 319 319 320 322 324 322 333 350 357 352 352 353 353 357 352 359 351 351 351 349 348 349 348 347
311 314 315 314 313 317 321 320 320 321 334 328 322 323 323 321 323 323 323 321 322 321 320 319 320 322 325 337 348 352 347 353 351 352 356 354 359 354 348 351 349 346 348 349 347
314 316 312 314 314 315 318 320 320 324 334 328 322 322 323 322 324 323 323 321 321 323 323 320 321 322 325 342 343 350 354 352 350 353 359 354 358 352 356 351 348 345 345 348 347
315 316 310 319 323 322 320 321 328 329 328 326 322 322 322 323 324 323 323 322 322 324 324 322 320 324 326 340 345 349 351 355 359 359 360 352 358 356 348 348 347 344 343 346 348
317 315 311 312 320 321 321 326 336 331 328 323 321 322 325 325 324 324 322 320 322 322 323 322 321 325 325 331 344 346 346 350 355 358 359 356 363 357 346 345 343 344 340 344 349
317 319 318 319 319 320 323 331 330 324 322 323 323 326 326 325 325 324 324 322 322 321 324 328 330 324 325 325 328 334 341 336 348 348 344 356 354 356 350 347 347 344 342 343 347
318 319 322 325 323 321 328 329 322 321 322 325 326 326 327 327 324 324 327 326 327 327 325 328 332 330 325 326 326 333 331 333 336 353 356 354 350 359 352 352 349 346 341 342 344
320 323 325 323 324 327 330 327 324 320 322 323 324 326 326 327 325 327 328 328 328 326 323 325 329 330 328 326 326 326 327 329 329 333 347 359 354 349 346 349 350 351 347 344 343
325 329 322 324 327 328 326 322 318 322 321 322 322 323 326 326 326 328 328 328 325 323 325 326 327 328 330 328 325 324 324 326 329 330 332 339 349 342 343 348 348 345 348 348 344
325 324 326 322 325 326 323 322 323 323 321 322 324 322 323 323 327 328 327 327 326 322 327 324 328 329 329 329 330 326 324 324 323 321 324 331 345 345 344 339 348 346 350 351 349
326 330 326 324 322 324 325 326 324 321 321 321 323 322 323 325 327 330 326 326 324 323 326 322 324 329 329 332 332 332 331 328 324 322 323 325 354 346 342 344 343 337 339 351 348
327 327 328 328 323 323 322 323 321 322 320 320 322 322 319 322 327 328 327 326 326 325 323 322 324 327 328 330 330 329 330 330 330 328 328 337 351 351 347 347 348 343 347 351 348
327 329 328 325 322 322 318 322 320 319 320 320 319 318 318 317 326 329 327 325 328 327 329 324 324 327 328 328 329 330 331 330 330 331 327 344 351 344 346 351 349 347 355 355 353
329 330 331 326 324 321 324 321 319 321 321 319 319 318 318 324 324 322 317 319 321 328 329 329 332 333 330 329 329 329 333 332 332 338 344 354 353 348 342 341 345 340 348 351 350

GFSSW_925_thetae_114.txt.gz
Theta_e
316 316 315 315 314 314 314 314 314 314 314 311 308 307 306 306 307 311 316 313 314 317 317 322 321 326 334 346 350 350 359 362 360 360 356 349 347 347 344 347 346 346 346 346 346
313 314 315 314 315 314 314 312 312 312 312 310 308 306 306 307 313 317 316 314 315 317 316 325 327 330 340 349 352 356 360 360 356 355 357 347 351 347 345 345 347 345 345 346 344
311 311 312 313 313 312 312 311 310 309 309 308 307 306 306 308 321 323 324 317 317 316 315 326 333 337 346 344 353 355 359 350 349 350 353 351 345 347 347 349 345 348 348 345 344
309 309 309 310 311 311 311 309 307 306 306 306 306 306 306 315 330 326 321 316 319 318 315 324 333 338 348 351 352 357 350 348 348 347 351 354 351 351 350 348 343 344 346 345 346
310 309 309 309 309 310 311 311 310 307 306 305 305 306 315 321 321 321 320 320 320 317 312 322 334 337 352 350 353 353 353 348 350 349 350 351 357 352 351 345 343 344 345 346 345
311 310 310 309 309 309 310 311 311 310 311 309 307 310 319 318 324 324 321 318 317 313 311 315 331 333 346 350 352 353 353 350 349 352 357 357 353 350 349 344 343 341 339 341 343
311 311 310 310 309 310 310 310 311 311 313 309 309 315 318 315 325 326 325 321 317 315 315 314 320 329 330 355 354 352 357 354 356 356 359 355 354 353 346 343 343 341 339 339 345
310 310 310 310 310 310 311 310 313 312 314 308 309 318 316 316 321 322 325 314 313 312 313 321 324 324 325 349 353 353 358 366 357 356 354 356 360 351 345 345 345 340 340 345 345
310 310 310 310 310 310 311 310 311 315 312 309 320 318 322 324 320 322 322 317 314 314 316 321 323 324 323 346 358 354 362 357 356 355 354 356 357 353 347 345 345 340 340 344 344
309 310 310 310 310 310 312 310 315 319 321 319 320 320 320 325 319 319 321 321 313 313 316 318 321 320 321 331 355 359 357 354 355 357 356 357 356 354 347 347 344 341 339 339 344
309 309 310 310 310 312 312 311 318 320 322 323 324 323 324 323 322 320 323 322 317 319 321 323 321 322 323 327 348 353 355 359 356 355 357 357 355 354 352 350 343 337 339 340 342
309 309 310 311 314 314 312 312 317 321 317 320 324 324 325 322 323 322 322 322 321 322 322 321 321 321 327 347 352 354 355 354 354 355 355 356 357 352 351 352 348 350 339 339 337
309 311 314 315 314 314 313 314 319 317 317 321 324 325 321 319 321 321 318 318 324 324 321 319 321 322 340 351 348 353 354 353 356 351 351 354 357 353 349 350 348 346 346 340 339
312 315 315 312 317 316 317 320 318 319 319 323 318 319 318 318 319 320 319 319 319 322 320 318 320 322 322 352 350 356 350 352 352 351 353 352 359 352 348 348 349 346 345 345 340
314 315 312 311 312 312 318 320 318 319 330 327 321 322 320 318 320 321 321 320 321 320 318 317 318 319 320 350 344 347 350 350 349 353 352 353 354 351 349 350 351 345 345 346 342
315 316 311 314 318 318 321 321 318 320 331 328 321 320 322 320 320 321 321 319 319 320 319 319 318 318 321 344 341 344 352 351 349 352 356 351 357 355 349 349 347 346 344 345 345
316 316 312 312 320 321 319 318 325 326 325 327 323 320 320 321 323 322 322 321 319 321 320 320 321 328 344 347 348 348 347 357 357 356 357 351 356 353 348 345 343 343 345 344 346
317 316 315 314 316 315 317 321 333 330 328 323 319 320 323 323 323 322 320 320 318 319 319 321 320 329 333 346 350 347 343 354 359 359 357 355 359 355 348 343 343 342 344 342 345
317 317 319 322 320 318 317 325 326 319 319 323 322 322 323 322 323 322 321 319 321 318 320 325 326 327 330 333 345 346 345 341 344 346 349 354 350 350 348 345 343 343 343 342 343
319 319 319 322 323 319 320 326 321 319 321 321 324 324 324 324 323 324 325 326 326 324 319 324 326 327 328 324 339 336 334 334 334 351 351 355 351 355 352 351 345 343 343 341 345
323 316 323 324 323 317 323 324 321 318 321 321 321 325 325 325 323 324 325 326 325 321 323 322 324 326 323 323 322 323 324 324 327 339 344 353 351 348 348 349 351 346 342 340 345
319 320 326 322 319 317 321 319 319 319 317 320 319 323 324 322 324 326 327 326 326 321 325 323 321 325 325 323 326 321 323 321 324 327 328 340 335 342 345 344 348 350 349 340 343
315 316 322 322 318 316 318 320 321 318 318 319 320 318 318 323 325 325 325 325 325 324 323 321 325 327 327 325 326 328 327 324 319 316 320 323 325 342 339 339 343 343 347 349 343
317 321 319 314 313 319 321 322 321 319 319 318 318 317 316 322 322 326 325 326 324 324 326 323 320 327 326 326 328 330 328 327 320 319 320 321 330 344 350 350 350 352 337 344 348
319 318 322 324 317 318 317 319 318 320 316 314 316 315 314 312 321 325 325 323 323 325 321 318 319 325 327 325 329 329 329 329 327 331 326 332 350 349 353 346 343 345 343 346 347
319 326 324 325 316 316 315 319 316 317 317 316 315 315 313 320 324 325 319 319 322 321 326 322 324 326 326 325 326 330 333 343 343 343 349 351 353 346 345 343 343 347 345 342 342
322 325 324 324 325 324 316 317 319 318 320 317 316 314 315 319 317 318 315 312 319 322 323 323 325 327 326 327 325 332 337 343 343 348 349 351 347 341 341 346 348 347 344 341 341

GFSSW_925_thetae_117.txt.gz
Theta_e
313 314 313 314 315 315 315 314 314 314 314 312 311 307 305 306 307 311 314 314 311 318 322 322 321 323 331 343 350 349 356 360 357 357 356 348 348 346 345 348 346 346 346 345 347
310 310 311 312 314 316 314 313 312 311 311 310 308 307 305 306 312 317 315 314 315 315 316 323 325 329 337 348 350 355 355 359 355 355 356 346 347 347 348 347 349 347 346 346 346
309 309 309 309 310 312 313 311 309 307 306 306 306 306 306 309 319 318 324 315 314 317 316 324 332 334 339 348 354 355 355 351 351 351 351 355 348 345 347 350 348 350 348 346 342
310 310 309 309 309 309 310 311 311 309 307 305 305 305 306 315 322 325 320 319 317 316 316 325 333 338 342 349 353 356 352 351 350 349 351 353 351 345 345 347 346 346 345 344 343
310 310 310 310 309 309 309 310 310 311 310 309 306 306 315 317 316 319 321 316 318 316 315 323 335 337 341 350 353 355 352 348 349 350 349 349 353 350 348 345 345 345 344 344 343
310 310 310 310 310 309 310 310 310 311 311 311 308 311 319 312 319 324 320 317 319 317 311 322 332 332 334 344 353 352 352 351 349 350 351 356 355 354 349 344 346 346 345 343 344
310 310 310 310 310 309 310 311 310 311 312 310 308 315 317 310 324 322 319 319 319 317 311 313 322 327 327 346 352 353 356 352 353 353 353 353 357 353 346 345 348 347 346 345 345
309 310 310 310 310 309 310 311 310 313 315 308 309 318 315 314 323 322 324 319 317 315 314 317 315 323 325 346 350 353 355 359 354 352 352 353 358 352 345 344 347 345 346 344 343
309 309 309 310 309 310 311 312 311 313 314 309 320 318 322 323 322 321 322 316 312 312 313 316 321 322 326 346 353 353 360 355 356 348 355 355 357 351 345 343 343 340 339 341 344
310 309 309 309 310 312 313 311 318 318 319 319 319 318 318 323 319 320 322 318 312 312 314 316 318 318 318 328 347 357 359 354 357 352 355 355 357 353 347 344 342 339 343 344 344
309 309 310 312 314 314 313 311 314 314 323 320 319 321 322 323 320 318 320 318 316 317 318 321 321 321 321 325 344 352 356 358 354 351 357 356 356 355 351 349 344 338 340 343 343
310 312 315 314 313 313 311 310 315 317 316 318 322 323 324 324 321 320 320 322 319 318 320 320 321 320 323 336 351 352 355 355 353 353 355 355 356 355 351 351 347 347 337 342 339
311 314 315 311 312 314 315 316 317 316 315 318 321 323 323 319 319 321 318 319 321 321 321 321 322 321 347 350 353 351 354 354 355 351 350 354 357 356 351 349 348 346 345 342 342
313 315 313 310 317 315 315 317 317 315 318 322 317 320 317 318 319 319 317 318 318 322 321 319 320 322 349 348 347 354 349 350 353 351 353 352 358 354 354 349 347 346 345 340 343
314 315 312 309 311 311 315 318 317 317 322 323 322 320 317 318 319 321 319 319 319 320 317 318 318 320 322 349 342 344 348 349 349 353 351 352 355 351 352 355 350 345 344 341 342
316 316 312 313 316 318 318 319 317 321 327 326 321 320 321 319 320 320 320 318 318 319 317 317 318 316 319 331 342 347 347 348 349 347 352 349 356 353 353 353 349 343 345 343 341
318 315 314 312 318 318 315 318 322 325 324 325 324 319 319 320 321 320 320 319 318 320 320 319 320 341 343 348 347 348 347 352 355 356 354 352 354 350 346 344 345 343 345 344 341
319 316 317 318 317 316 318 320 325 327 327 322 320 319 322 320 322 322 320 320 318 318 318 320 333 343 341 344 348 345 343 350 356 358 354 355 357 351 345 342 341 343 344 343 345
318 317 317 320 319 318 316 323 319 319 318 321 322 322 322 322 323 322 319 317 322 317 319 321 324 322 341 342 342 346 344 338 345 344 350 355 352 345 346 345 342 340 342 344 344
318 319 318 320 321 319 318 324 324 317 320 319 323 322 324 323 322 323 324 325 325 321 317 322 324 324 328 342 342 340 336 342 339 348 350 351 352 351 351 347 343 343 342 343 343
320 316 320 321 323 314 321 321 323 317 318 319 322 323 324 323 322 324 326 325 324 321 320 321 322 325 323 326 342 324 326 324 330 335 341 349 346 344 345 347 344 343 342 343 343
314 314 321 320 317 313 319 320 318 318 317 319 318 320 319 322 323 324 325 325 324 323 322 321 319 324 326 322 322 324 322 319 324 327 328 333 326 339 346 345 348 347 347 341 342
313 314 320 319 320 315 315 319 320 318 318 319 319 318 320 322 324 325 324 324 323 323 321 320 322 331 327 322 323 328 327 324 314 314 319 321 324 348 348 352 351 347 344 346 343
314 317 317 313 310 315 317 319 319 318 317 315 315 312 315 314 319 323 323 324 322 323 325 322 320 327 332 325 324 330 328 326 319 325 324 320 345 351 345 349 343 346 346 344 345
315 317 318 324 324 317 314 316 318 317 315 313 314 313 312 320 322 323 321 318 320 325 322 316 319 323 327 326 325 328 339 341 338 338 328 343 352 349 349 344 345 341 343 344 345
318 326 323 324 319 321 313 316 316 316 315 315 314 314 317 319 322 321 318 315 320 318 322 318 321 324 324 326 329 341 341 341 344 347 349 350 349 340 345 344 345 344 341 340 342
315 320 322 323 323 323 320 317 315 317 318 314 314 312 317 317 316 315 314 316 321 323 322 322 322 323 325 324 329 332 338 342 343 346 345 342 341 340 344 341 340 340 341 340 340

GFSSW_925_thetae_120.txt.gz
Theta_e
311 310 311 314 316 316 313 311 311 311 312 311 308 305 305 306 307 310 312 314 312 320 323 325 321 324 333 345 350 348 353 359 357 354 352 346 350 347 346 347 346 346 345 345 347
309 309 309 309 310 311 311 311 308 307 307 307 306 305 305 306 311 315 314 314 313 319 319 324 322 331 340 348 349 351 354 357 354 354 355 346 348 348 348 348 349 347 345 346 344
310 310 309 309 309 309 309 311 311 309 307 305 305 305 306 309 318 316 322 314 314 314 319 331 329 335 341 349 352 354 354 353 352 351 351 355 347 345 348 351 348 348 348 346 343
310 310 310 310 309 309 309 309 310 311 310 309 306 305 307 315 318 323 320 315 313 318 316 327 333 338 344 349 351 355 354 352 352 349 350 353 350 345 346 347 345 346 346 345 341
310 310 310 310 310 309 309 310 309 311 310 311 308 306 312 312 314 320 320 316 317 316 316 327 336 338 341 348 352 355 353 350 350 349 350 350 353 347 346 347 345 345 346 344 341
309 310 310 310 310 309 309 310 310 311 311 311 308 309 317 310 318 323 319 316 318 316 313 329 335 335 335 334 352 352 352 349 350 351 350 352 354 349 347 346 346 346 345 342 342
309 309 310 310 310 309 309 310 311 311 313 311 308 313 314 309 323 320 318 318 318 317 310 314 324 327 326 348 351 350 354 353 353 353 352 351 356 357 347 347 347 346 344 343 342
309 309 309 309 309 309 310 312 311 310 315 309 309 318 316 313 318 321 320 321 318 315 315 314 318 322 325 346 349 355 354 359 354 351 352 353 357 353 347 347 348 346 344 343 343
309 309 309 309 310 311 313 312 312 311 314 310 320 318 319 321 322 322 322 313 314 314 313 316 319 321 335 347 348 351 357 356 355 349 352 354 356 350 346 347 348 347 346 345 344
309 309 312 314 314 313 313 316 319 318 319 319 319 317 318 322 321 319 320 313 311 310 313 315 315 317 317 327 337 355 354 351 353 351 354 354 356 350 346 348 348 346 346 344 343
310 312 314 314 312 312 311 312 312 313 322 319 317 320 320 323 319 317 322 320 315 315 319 319 319 321 320 322 339 351 354 353 354 351 355 355 356 353 348 346 344 338 339 340 343
311 313 314 311 310 312 312 309 316 315 314 316 320 320 321 323 321 317 319 319 319 319 320 318 320 319 321 327 350 352 355 356 354 352 354 355 356 354 352 350 344 339 341 342 343
313 314 314 309 311 315 316 316 316 315 314 317 319 322 321 321 319 319 318 319 320 320 320 321 322 320 345 349 352 352 353 353 355 353 351 354 355 356 352 350 347 344 338 342 340
314 315 313 309 317 312 315 316 315 314 315 320 318 320 318 316 318 318 318 317 318 322 319 320 319 331 348 349 348 352 347 351 352 349 358 352 360 354 354 352 347 344 343 339 340
315 316 313 308 311 310 318 314 315 315 320 322 323 318 315 318 318 319 317 318 318 319 317 319 318 320 348 346 341 348 348 348 348 350 349 354 356 348 352 356 352 345 343 341 340
316 316 313 313 314 318 316 317 315 319 327 324 323 319 320 318 319 319 319 317 317 318 317 317 317 316 322 335 342 344 345 346 346 345 350 350 353 352 354 353 352 347 342 342 338
316 317 315 314 316 316 316 317 317 322 322 323 322 317 318 319 320 320 319 319 317 320 320 318 321 341 343 347 345 343 341 346 349 353 355 350 353 346 343 346 349 348 342 343 339
316 317 317 316 317 316 318 314 320 322 323 321 319 319 321 320 320 320 319 319 317 318 317 319 327 343 340 345 348 343 339 345 354 357 353 354 357 347 342 344 346 346 343 343 340
316 318 318 318 319 317 315 318 317 318 317 320 321 321 321 321 321 320 319 316 318 315 317 320 323 325 340 342 343 344 343 337 342 343 347 349 350 342 345 342 342 344 343 344 343
317 318 318 319 319 318 317 322 323 317 317 319 323 322 323 321 321 322 323 324 323 319 314 320 323 324 337 341 340 339 338 340 338 350 350 345 351 349 346 346 342 340 342 343 344
317 315 318 319 320 313 320 320 322 318 317 319 321 321 321 321 321 323 325 324 323 321 319 321 321 325 324 335 340 332 337 326 332 336 342 343 335 345 349 344 343 342 341 340 344
311 317 319 319 317 310 318 319 318 318 316 318 317 317 320 320 323 323 324 324 322 323 321 319 318 323 326 321 320 324 323 320 329 327 328 329 326 347 349 350 345 346 341 339 343
312 313 318 317 319 316 313 316 318 317 316 318 316 318 319 321 323 323 322 322 321 321 321 319 321 328 327 325 321 327 326 319 313 314 320 322 326 344 345 345 345 343 345 341 344
311 317 317 313 309 315 316 317 318 316 315 312 313 312 313 317 319 320 319 321 318 325 327 321 321 325 328 326 322 327 327 323 318 319 319 319 351 349 345 346 344 343 344 343 343
312 316 317 325 322 319 316 315 318 316 314 312 313 314 314 322 321 320 320 314 317 321 321 314 321 322 325 327 324 327 338 342 343 339 327 341 350 347 346 345 345 341 340 344 346
321 324 320 323 320 322 313 315 315 315 314 314 313 315 317 319 319 320 318 314 317 319 322 319 321 323 322 325 333 341 339 340 345 348 346 346 345 341 342 341 341 343 341 341 342
312 316 320 322 322 322 322 323 316 317 317 313 312 315 316 316 316 314 314 314 319 321 320 320 322 322 321 322 330 331 336 342 342 342 341 342 342 343 341 340 339 337 335 336 336

GFSSW_925_thetae_123.txt.gz
Theta_e
309 309 309 309 309 310 311 310 307 306 306 305 305 305 305 305 306 310 312 313 313 318 323 322 323 328 337 350 350 348 358 358 352 350 350 348 351 348 346 346 345 347 344 345 348
310 310 309 309 308 309 309 310 310 310 307 304 305 305 305 306 311 315 313 314 315 323 324 322 328 337 348 351 352 352 358 358 354 354 349 347 349 349 347 347 350 350 347 347 347
310 310 310 309 309 309 309 309 309 311 310 309 305 305 305 309 319 319 321 313 319 318 320 329 333 341 348 351 353 352 356 353 353 351 350 348 348 346 347 348 349 349 350 347 346
310 310 310 310 309 309 309 309 310 311 311 311 308 305 307 314 324 320 320 313 314 315 322 333 339 345 350 353 352 357 353 352 351 349 352 351 349 348 347 347 345 346 347 346 347
309 310 310 310 309 309 309 309 310 311 311 311 307 308 312 313 315 319 322 314 314 316 322 336 344 342 347 348 353 356 353 352 350 350 351 351 352 347 347 347 345 346 347 347 347
309 309 309 309 309 309 309 309 310 310 312 312 308 310 316 318 321 322 318 317 317 316 315 334 340 339 335 344 355 352 352 351 350 351 350 353 353 348 348 347 347 348 347 346 346
309 309 309 309 309 309 309 311 311 310 313 312 309 314 314 316 322 319 316 317 317 316 315 321 327 330 328 354 352 352 355 352 352 352 352 351 356 353 349 347 349 348 347 346 345
309 309 309 311 311 311 312 312 311 310 314 310 311 318 319 313 317 321 320 318 318 318 313 314 325 325 334 348 350 353 351 360 349 352 350 353 358 355 349 348 349 348 348 347 346
309 310 312 313 313 313 312 312 316 312 313 313 319 318 322 320 322 321 323 313 314 314 314 316 319 325 347 349 351 354 356 357 354 348 353 355 356 353 349 348 349 349 348 348 347
310 311 313 313 311 311 311 319 320 320 319 320 320 322 320 323 319 319 321 312 312 313 316 319 321 325 337 340 348 352 357 352 354 349 353 355 356 353 350 349 350 349 348 348 347
310 312 314 312 309 311 311 313 318 318 320 321 320 320 321 322 317 319 320 319 316 317 322 321 329 331 328 333 331 343 353 352 349 348 352 355 357 354 351 349 350 349 349 349 348
311 313 314 309 310 314 315 317 316 316 320 316 319 321 321 322 320 318 319 322 321 322 323 327 331 326 323 325 341 348 355 355 353 349 351 355 355 354 351 350 349 350 349 349 348
312 315 312 312 313 316 316 315 315 315 320 320 320 323 323 323 321 321 320 322 323 323 324 332 325 322 327 333 345 350 351 355 355 354 351 354 356 354 353 351 348 346 346 346 347
312 316 311 316 316 313 315 315 313 314 324 324 321 322 320 318 320 319 320 320 321 324 323 325 321 329 334 334 345 347 347 350 354 355 359 353 362 355 355 354 352 347 344 345 345
314 316 311 310 311 313 316 314 315 315 324 325 324 317 317 320 320 320 317 320 322 322 322 325 320 329 334 333 345 347 347 350 350 351 354 356 359 355 353 357 355 351 347 343 344
314 317 313 313 314 316 316 316 315 325 326 325 324 320 321 320 320 320 321 319 319 320 320 322 319 320 325 342 343 347 348 348 348 350 357 351 356 352 356 357 353 351 348 346 343
314 316 315 315 316 315 316 319 324 325 323 324 323 319 321 323 321 322 322 322 322 323 323 322 322 337 336 342 346 345 348 353 356 356 355 350 354 350 347 348 351 351 349 347 344
314 316 317 316 316 316 318 322 325 322 323 321 322 322 325 323 322 321 322 323 320 321 322 323 331 342 342 339 342 344 337 345 352 356 352 353 356 351 346 343 345 349 348 347 346
316 318 317 318 317 317 322 323 321 320 319 321 323 325 325 323 323 323 322 322 322 321 324 324 326 339 342 344 343 345 343 340 344 344 346 347 350 348 346 346 347 347 348 346 346
317 316 317 318 318 318 325 324 326 322 317 322 325 324 326 324 325 326 327 326 325 321 319 324 328 329 343 343 339 344 341 347 344 348 346 343 349 353 355 354 348 348 348 346 345
314 323 318 318 317 323 326 325 324 322 318 322 324 323 323 324 325 326 327 325 325 323 322 324 327 329 340 345 345 344 345 339 338 341 343 343 342 351 354 353 351 345 346 347 345
313 325 318 318 324 318 325 323 319 320 318 320 320 321 324 324 327 326 327 326 323 324 323 323 326 330 329 325 324 335 338 341 341 338 339 339 338 347 349 349 349 347 345 343 344
318 319 318 317 325 325 320 319 320 320 318 320 319 322 322 325 328 326 324 323 321 323 323 323 328 333 332 329 326 331 330 325 323 325 333 332 334 348 348 348 348 350 348 345 346
318 323 324 320 315 322 322 321 320 316 316 315 315 317 319 324 323 324 323 322 319 326 324 325 328 331 331 332 328 331 336 330 325 329 330 327 341 352 350 349 347 346 348 347 348
318 322 321 329 326 326 323 318 320 318 316 315 317 316 320 324 324 324 322 320 320 325 325 323 328 327 327 329 327 339 342 345 341 343 332 334 347 351 348 347 345 343 345 347 349
325 329 326 328 325 326 315 318 318 317 317 317 318 319 320 322 324 324 321 320 321 324 327 326 329 329 326 327 329 339 337 338 346 346 346 347 348 344 343 343 343 339 339 341 341
311 315 325 326 327 325 325 326 318 318 317 316 317 319 319 320 320 317 319 321 323 326 327 329 329 329 326 327 330 334 334 334 342 345 346 350 347 345 344 340 338 338 336 337 336